[[{"header":{"parameterUnit":"m.s-1","parameterCategory":1,"la1":30.6,"la2":28.766,"lo1":-90.7593,"lo2":-88.6598,"dy":0.0162,"dx":0.0183,"nx":116,"ny":114,"refTime":"2023-08-26T12:00:00:Z","depth":0,"parameterNumber":2,"parameterNumberName":"U-component_of_WINDS"},"data":[0.0,0.0,0.0,0.0,0.0,0.0,0.0,0.0,0.0,0.0,0.0,0.0,0.0,0.0,0.0,0.0,0.0,0.0,0.0,0.0,0.0,0.0,0.0,0.0,0.0,0.0,0.0,0.0,0.0,0.0,0.0,0.0,0.0,0.0,0.0,0.0,0.0,0.0,0.0,0.0,0.0,0.0,0.0,0.0,0.0,0.0,0.0,0.0,0.0,0.0,0.0,0.0,0.0,0.0,0.0,0.0,0.0,0.0,0.0,0.0,0.0,0.0,0.0,0.0,0.0,0.0,0.0,0.0,0.0,0.0,0.0,0.0,0.0,0.0,0.0,0.0,0.0,0.0,0.0,0.0,0.0,0.0,0.0,0.0,0.0,0.0,0.0,0.0,0.0,0.0,0.0,0.0,0.0,0.0,0.0,0.0,0.0,0.0,0.0,0.0,0.0,0.0,0.0,0.0,0.0,0.0,0.0,0.0,0.0,0.0,0.0,0.0,0.0,0.0,0.0,0.0,0.0,0.0,0.0,0.0,0.0,0.0,0.0,0.0,0.0,0.0,0.0,0.0,0.0,0.0,0.0,0.0,0.0,0.0,0.0,0.0,0.0,0.0,0.0,0.0,0.0,0.0,0.0,0.0,0.0,0.0,0.0,0.0,0.0,0.0,0.0,0.0,0.0,0.0,0.0,0.0,0.0,0.0,0.0,0.0,0.0,0.0,0.0,0.0,0.0,0.0,0.0,0.0,0.0,0.0,0.0,0.0,0.0,0.0,0.0,0.0,0.0,0.0,0.0,0.0,0.0,0.0,0.0,0.0,0.0,0.0,0.0,0.0,0.0,0.0,0.0,0.0,0.0,0.0,0.0,0.0,0.0,0.0,0.0,0.0,0.0,0.0,0.0,0.0,0.0,0.0,0.0,0.0,0.0,0.0,0.0,0.0,0.0,0.0,0.0,0.0,0.0,0.0,0.0,0.0,0.0,0.0,0.0,0.0,0.0,0.0,0.0,0.0,0.0,0.0,0.0,0.0,0.0,0.0,0.0,0.0,0.0,0.0,0.0,0.0,0.0,0.0,0.0,0.0,0.0,0.0,0.0,0.0,0.0,0.0,0.0,0.0,0.0,0.0,0.0,0.0,0.0,0.0,0.0,0.0,0.0,0.0,0.0,0.0,0.0,0.0,0.0,0.0,0.0,0.0,0.0,0.0,0.0,0.0,0.0,0.0,0.0,0.0,0.0,0.0,0.0,0.0,0.0,0.0,0.0,0.0,0.0,0.0,0.0,0.0,0.0,0.0,0.0,0.0,0.0,0.0,0.0,0.0,0.0,0.0,0.0,0.0,0.0,0.0,0.0,0.0,0.0,0.0,0.0,0.0,0.0,0.0,0.0,0.0,0.0,0.0,0.0,0.0,0.0,0.0,0.0,0.0,0.0,0.0,0.0,0.0,0.0,0.0,0.0,0.0,0.0,0.0,0.0,0.0,0.0,0.0,0.0,0.0,0.0,0.0,0.0,0.0,0.0,0.0,0.0,0.0,0.0,0.0,0.0,0.0,0.0,0.0,0.0,0.0,0.0,0.0,0.0,0.0,0.0,0.0,0.0,0.0,0.0,0.0,0.0,0.0,0.0,0.0,0.0,0.0,0.0,0.0,0.0,0.0,0.0,0.0,0.0,0.0,0.0,0.0,0.0,0.0,0.0,0.0,0.0,0.0,0.0,0.0,0.0,0.0,0.0,0.0,0.0,0.0,0.0,0.0,0.0,0.0,0.0,0.0,0.0,0.0,0.0,0.0,0.0,0.0,0.0,0.0,0.0,0.0,0.0,0.0,0.0,0.0,0.0,0.0,0.0,0.0,0.0,0.0,0.0,0.0,0.0,0.0,0.0,0.0,0.0,0.0,0.0,0.0,0.0,0.0,0.0,0.0,0.0,0.0,0.0,0.0,0.0,0.0,0.0,0.0,0.0,0.0,0.0,0.0,0.0,0.0,0.0,0.0,0.0,0.0,0.0,0.0,0.0,0.0,0.0,0.0,0.0,0.0,0.0,0.0,0.0,0.0,0.0,0.0,0.0,0.0,0.0,0.0,0.0,0.0,0.0,0.0,0.0,0.0,0.0,0.0,0.0,0.0,0.0,0.0,0.0,0.0,0.0,0.0,0.0,0.0,0.0,0.0,0.0,0.0,0.0,0.0,0.0,0.0,0.0,0.0,0.0,0.0,0.0,0.0,0.0,0.0,0.0,0.0,0.0,0.0,0.0,0.0,0.0,0.0,0.0,0.0,0.0,0.0,0.0,0.0,0.0,0.0,0.0,0.0,0.0,0.0,0.0,0.0,0.0,0.0,0.0,0.0,0.0,0.0,0.0,0.0,0.0,0.0,0.0,0.0,0.0,0.0,0.0,0.0,0.0,0.0,0.0,0.0,0.0,0.0,0.0,0.0,0.0,0.0,0.0,0.0,0.0,0.0,0.0,0.0,0.0,0.0,0.0,0.0,0.0,0.0,0.0,0.0,0.0,0.0,0.0,0.0,0.0,0.0,0.0,0.0,0.0,0.0,0.0,0.0,0.0,0.0,0.0,0.0,0.0,0.0,0.0,0.0,0.0,0.0,0.0,0.0,0.0,0.0,0.0,0.0,0.0,0.0,0.0,0.0,0.0,0.0,0.0,0.0,0.0,0.0,0.0,0.0,0.0,0.0,0.0,0.0,0.0,0.0,0.0,0.0,0.0,0.0,0.0,0.0,0.0,0.0,0.0,0.0,0.0,0.0,0.0,0.0,0.0,0.0,0.0,0.0,0.0,0.0,0.0,0.0,0.0,0.0,0.0,0.0,0.0,0.0,0.0,0.0,0.0,0.0,0.0,0.0,0.0,0.0,0.0,0.0,0.0,0.0,0.0,0.0,0.0,0.0,0.0,0.0,0.0,0.0,0.0,0.0,0.0,0.0,0.0,0.0,0.0,0.0,0.0,0.0,0.0,0.0,0.0,0.0,0.0,0.0,0.0,0.0,0.0,0.0,0.0,0.0,0.0,0.0,0.0,0.0,0.0,0.0,0.0,0.0,0.0,0.0,0.0,0.0,0.0,0.0,0.0,0.0,0.0,0.0,0.0,0.0,0.0,0.0,0.0,0.0,0.0,0.0,0.0,0.0,0.0,0.0,0.0,0.0,0.0,0.0,0.0,0.0,0.0,0.0,0.0,0.0,0.0,0.0,0.0,0.0,0.0,0.0,0.0,0.0,0.0,0.0,0.0,0.0,0.0,0.0,0.0,0.0,0.0,0.0,0.0,0.0,0.0,0.0,0.0,0.0,0.0,0.0,0.0,0.0,0.0,0.0,0.0,0.0,0.0,0.0,0.0,0.0,0.0,0.0,0.0,0.0,0.0,0.0,0.0,0.0,0.0,0.0,0.0,0.0,0.0,0.0,0.0,0.0,0.0,0.0,0.0,0.0,0.0,0.0,0.0,0.0,0.0,0.0,0.0,0.0,0.0,0.0,0.0,0.0,0.0,0.0,0.0,0.0,0.0,0.0,0.0,0.0,0.0,0.0,0.0,0.0,0.0,0.0,0.0,0.0,0.0,0.0,0.0,0.0,0.0,0.0,0.0,0.0,0.0,0.0,0.0,0.0,0.0,0.0,0.0,0.0,0.0,0.0,0.0,0.0,0.0,0.0,0.0,0.0,0.0,0.0,0.0,0.0,0.0,0.0,0.0,0.0,0.0,0.0,0.0,0.0,0.0,0.0,0.0,0.0,0.0,0.0,0.0,0.0,0.0,0.0,0.0,0.0,0.0,0.0,0.0,0.0,0.0,0.0,0.0,0.0,0.0,0.0,0.0,0.0,0.0,0.0,0.0,0.0,0.0,0.0,0.0,0.0,0.0,0.0,0.0,0.0,0.0,0.0,0.0,0.0,0.0,0.0,0.0,0.0,0.0,0.0,0.0,0.0,0.0,0.0,0.0,0.0,0.0,0.0,0.0,0.0,0.0,0.0,0.0,0.0,0.0,0.0,0.0,0.0,0.0,0.0,0.0,0.0,0.0,0.0,0.0,0.0,0.0,0.0,0.0,0.0,0.0,0.0,0.0,0.0,0.0,0.0,0.0,0.0,0.0,0.0,0.0,0.0,0.0,0.0,0.0,0.0,0.0,0.0,0.0,0.0,0.0,0.0,0.0,0.0,0.0,0.0,0.0,0.0,0.0,0.0,0.0,0.0,0.0,0.0,0.0,0.0,0.0,0.0,0.0,0.0,0.0,0.0,0.0,0.0,0.0,0.0,0.0,0.0,0.0,0.0,0.0,0.0,0.0,0.0,0.0,0.0,0.0,0.0,0.0,0.0,0.0,0.0,0.0,0.0,0.0,0.0,0.0,0.0,0.0,0.0,0.0,0.0,0.0,0.0,0.0,0.0,0.0,0.0,0.0,0.0,0.0,0.0,0.0,0.0,0.0,0.0,0.0,0.0,0.0,0.0,0.0,0.0,0.0,0.0,0.0,0.0,0.0,0.0,0.0,0.0,0.0,0.0,0.0,0.0,0.0,0.0,0.0,0.0,0.0,0.0,0.0,0.0,0.0,0.0,0.0,0.0,0.0,0.0,0.0,0.0,0.0,0.0,0.0,0.0,0.0,0.0,0.0,0.0,0.0,0.0,0.0,0.0,0.0,0.0,0.0,0.0,0.0,0.0,0.0,0.0,0.0,0.0,0.0,0.0,0.0,0.0,0.0,0.0,0.0,0.0,0.0,0.0,0.0,0.0,0.0,0.0,0.0,0.0,0.0,0.0,0.0,0.0,0.0,0.0,0.0,0.0,0.0,0.0,0.0,0.0,0.0,0.0,0.0,0.0,0.0,0.0,0.0,0.0,0.0,0.0,0.0,0.0,0.0,0.0,0.0,0.0,0.0,0.0,0.0,0.0,0.0,0.0,0.0,0.0,0.0,0.0,0.0,0.0,0.0,0.0,0.0,0.0,0.0,0.0,0.0,0.0,0.0,0.0,0.0,0.0,0.0,0.0,0.0,0.0,0.0,0.0,0.0,0.0,0.0,0.0,0.0,0.0,0.0,0.0,0.0,0.0,0.0,0.0,0.0,0.0,0.0,0.0,0.0,0.0,0.0,0.0,0.0,0.0,0.0,0.0,0.0,0.0,0.0,0.0,0.0,0.0,0.0,0.0,0.0,0.0,0.0,0.0,0.0,0.0,0.0,0.0,0.0,0.0,0.0,0.0,0.0,0.0,0.0,0.0,0.0,0.0,0.0,0.0,0.0,0.0,0.0,0.0,0.0,0.0,0.0,0.0,0.0,0.0,0.0,0.0,0.0,0.0,0.0,0.0,0.0,0.0,0.0,0.0,0.0,0.0,0.0,0.0,0.0,0.0,0.0,0.0,0.0,0.0,0.0,0.0,0.0,0.0,0.0,0.0,0.0,0.0,0.0,0.0,0.0,0.0,0.0,0.0,0.0,0.0,0.0,0.0,0.0,0.0,0.0,0.0,0.0,0.0,0.0,0.0,0.0,0.0,0.0,0.0,0.0,0.0,0.0,0.0,0.0,0.0,0.0,0.0,0.0,0.0,0.0,0.0,0.0,0.0,0.0,0.0,0.0,0.0,0.0,0.0,0.0,0.0,0.0,0.0,0.0,0.0,0.0,0.0,0.0,0.0,0.0,0.0,0.0,0.0,0.0,0.0,0.0,0.0,0.0,0.0,0.0,0.0,0.0,0.0,0.0,0.0,0.0,0.0,0.0,0.0,0.0,0.0,0.0,0.0,0.0,0.0,0.0,0.0,0.0,0.0,0.0,0.0,0.0,0.0,0.0,0.0,0.0,0.0,0.0,0.0,0.0,0.0,0.0,0.0,0.0,0.0,0.0,0.0,0.0,0.0,0.0,0.0,0.0,0.0,0.0,0.0,0.0,0.0,0.0,0.0,0.0,0.0,0.0,0.0,0.0,0.0,0.0,0.0,0.0,0.0,0.0,0.0,0.0,0.0,0.0,0.0,0.0,0.0,0.0,0.0,0.0,0.0,0.0,0.0,0.0,0.0,0.0,0.0,0.0,0.0,0.0,0.0,0.0,0.0,0.0,0.0,0.0,0.0,0.0,0.0,0.0,0.0,0.0,0.0,-1.8143,-1.714,0.0,0.0,0.0,0.0,0.0,0.0,0.0,0.0,0.0,0.0,0.0,0.0,0.0,0.0,0.0,0.0,0.0,0.0,0.0,0.0,0.0,0.0,0.0,0.0,0.0,0.0,0.0,0.0,0.0,0.0,0.0,0.0,0.0,0.0,0.0,0.0,0.0,0.0,0.0,0.0,0.0,0.0,1.0255,0.9767,0.0,0.0,0.0,0.0,0.0,0.0,0.0,0.0,0.0,0.0,0.0,0.0,0.0,0.0,0.0,0.0,0.0,0.0,0.0,0.0,0.0,0.0,0.0,0.0,0.0,0.0,0.0,0.0,0.0,0.0,0.0,0.0,0.0,0.0,0.0,0.0,0.0,0.0,0.0,0.0,0.0,0.0,0.0,0.0,0.0,0.0,0.0,0.0,0.0,0.0,0.0,0.0,0.0,0.0,0.0,0.0,0.0,0.0,0.0,0.0,0.0,0.0,0.0,0.0,0.0,0.0,0.0,0.0,0.0,0.0,-2.0861,-2.0007,0.0,0.0,0.0,0.0,0.0,0.0,0.0,0.0,0.0,0.0,0.0,0.0,0.0,0.0,0.0,0.0,0.0,0.0,0.0,0.0,0.0,0.0,0.0,0.0,0.0,0.0,0.0,0.0,0.0,0.0,0.0,0.0,0.0,0.0,0.0,0.0,0.0,0.0,0.0,0.0,0.0,1.1931,1.1641,1.1247,1.0848,0.0,0.0,0.0,0.0,0.0,0.0,0.0,0.0,0.0,0.0,0.0,0.0,0.0,0.0,0.0,0.0,0.0,0.0,0.0,0.0,0.0,0.0,0.0,0.0,0.0,0.0,0.0,0.0,0.0,0.0,0.0,0.0,0.0,0.0,0.0,0.0,0.0,0.0,0.0,0.0,0.0,0.0,0.0,0.0,0.0,0.0,0.0,0.0,0.0,0.0,0.0,0.0,0.0,0.0,0.0,0.0,0.0,0.0,0.0,0.0,0.0,0.0,0.0,-2.1316,-2.2265,-2.3658,-2.3934,-2.4082,-2.4129,-2.3843,-2.3383,-2.2705,-2.1472,0.0,0.0,0.0,0.0,0.0,0.0,0.0,0.0,0.0,0.0,0.0,0.0,0.0,0.0,0.0,0.0,0.0,0.0,0.0,0.0,0.0,1.6829,1.7281,1.7397,1.7355,1.7265,0.0,0.0,0.0,0.0,0.0,0.0,0.0,0.0,0.0,0.0,0.0,1.3712,1.2934,1.28,1.331,1.4268,1.2781,1.2069,1.1967,0.0,0.0,0.0,0.0,0.0,0.0,0.0,0.0,0.0,0.0,0.0,0.0,0.0,0.0,0.0,0.0,0.0,0.0,0.0,0.0,0.0,0.0,0.0,0.0,0.0,0.0,0.0,0.0,0.0,0.0,0.0,0.0,0.0,0.0,0.0,0.0,0.0,0.0,0.0,0.0,0.0,0.0635,0.1873,0.0,0.0,0.0,0.0,0.0,0.0,0.0,0.0,0.0,0.0,0.0,0.0,0.0,-1.7244,-1.7423,-1.916,-2.0401,-2.1267,-2.2851,-2.4103,-2.5048,-2.584,-2.6239,-2.6311,-2.7068,0.0,-2.3656,-2.3907,0.0,0.0,0.0,0.0,0.0,0.0,0.0,0.0,0.0,0.0,0.0,0.0,0.0,0.0,0.0,0.0,0.0,0.0,0.0,0.0,0.0,1.7814,1.8863,1.8848,1.9257,1.9277,1.8734,0.0,0.0,0.0,0.0,0.0,0.0,0.0,0.0,0.0,1.5762,1.5251,1.4412,1.467,1.4797,1.4796,1.4881,1.4514,1.3802,1.3238,0.0,0.0,0.0,0.0,0.0,0.0,0.0,0.0,0.0,0.0,0.0,0.0,0.0,0.0,0.0,0.0,0.0,0.0,0.0,0.0,0.0,0.0,0.0,0.0,0.0,0.0,0.0,0.0,0.0,0.0,0.0,0.0,0.0,0.0,0.0,0.0,0.0,0.0,0.0,-0.1138,-0.1647,-0.1738,-0.5525,-0.757,0.0,0.0,0.0,0.0,0.0,0.0,0.0,0.0,0.0,-1.9203,-1.986,-2.0413,-2.0887,-2.2251,-2.3323,-2.4063,-2.4906,-2.5721,-2.6533,-2.697,-2.7216,-2.7285,-2.7694,-2.7171,-2.5992,-2.545,-2.4342,-2.2957,0.0,0.0,0.0,0.0,-2.2271,-2.2643,0.0,0.0,0.0,0.0,0.0,0.0,0.0,0.0,0.0,0.0,0.0,0.0,1.6924,1.8944,2.0308,2.031,2.0831,2.096,2.0446,1.9114,0.0,0.0,0.0,0.0,0.0,0.0,0.0,1.7032,1.6807,1.6465,1.5968,1.6159,1.6081,1.5822,1.6499,1.6273,1.538,1.4796,1.3992,1.2962,0.0,0.0,0.0,0.0,0.0,0.0,0.0,0.0,0.0,0.0,0.0,0.0,0.0,0.0,0.0,0.0,0.0,0.0,0.0,0.0,0.0,0.0,0.0,0.0,0.0,0.0,0.0,0.0,0.0,0.0,0.0,0.0,0.0,0.0,0.0,0.0,0.0,-0.3616,-0.4517,-0.5143,-0.8077,-0.9864,0.0,0.0,0.0,0.0,0.0,0.0,-1.958,-1.9267,-1.9946,-2.1983,-2.2441,-2.2988,-2.3659,-2.455,-2.535,-2.6135,-2.6385,-2.6948,-2.773,-2.8032,-2.8163,-2.8207,-2.8285,-2.8315,-2.8205,-2.6788,-2.5844,-2.5209,-2.448,-2.4487,-2.4958,-2.5397,-2.5635,-2.5914,0.0,0.0,0.0,0.0,0.0,0.0,0.0,0.0,0.0,0.0,0.0,1.8678,1.8659,2.0152,2.1145,2.113,2.1123,2.1381,2.2041,1.982,1.8777,1.9401,0.0,0.0,0.0,0.0,0.0,1.7096,1.6844,1.6964,1.7465,1.6536,1.7077,1.871,1.7194,1.6354,1.6072,1.6075,1.5495,1.4412,1.2455,0.0,0.0,0.0,0.0,0.0,0.0,0.0,0.0,0.0,0.0,0.0,0.0,0.0,0.0,0.0,0.0,0.0,0.0,0.0,0.0,0.0,0.0,0.0,0.0,0.0,0.0,0.0,0.0,0.0,0.0,0.0,0.0,0.0,0.0,0.0,0.0,0.0,0.0,-0.7887,-1.1719,0.0,0.0,0.0,0.0,-1.8788,-1.8795,-1.9557,-2.1209,-2.1746,-2.2183,-2.2635,-2.347,-2.4093,-2.4455,-2.4731,-2.5232,-2.5911,-2.6771,-2.7575,-2.8401,-2.9226,-2.9538,-2.9521,-2.9837,-2.9869,-2.96,-2.8185,-2.7549,-2.7442,-2.7407,-2.7287,-2.7155,-2.7095,-2.7495,-2.8048,0.0,0.0,0.0,0.0,0.0,0.0,0.0,0.0,0.0,1.6397,1.7805,1.9011,1.9574,2.0579,2.1623,2.2653,2.2179,2.191,2.2135,2.0774,1.962,1.8798,0.0,0.0,0.0,0.0,1.7884,1.9206,1.8487,1.843,1.9,1.8502,1.8529,1.8988,1.8877,1.8626,1.8201,1.6613,1.5883,1.5656,1.4113,1.3307,0.0,0.0,0.0,0.0,0.0,0.0,0.0,0.0,0.0,0.0,0.0,0.0,0.0,0.0,0.0,0.0,0.0,0.0,0.0,0.0,0.0,0.0,0.0,0.0,0.0,0.0,0.0,0.0,0.0,0.0,0.0,0.0,0.0,0.0,0.0,0.0,0.0,-1.237,-1.4714,0.0,-1.6619,-1.8233,-1.9594,-2.0423,-2.075,-2.1632,-2.3232,-2.4081,-2.4914,-2.571,-2.6686,-2.7097,-2.6807,-2.6952,-2.7171,-2.7463,-2.772,-2.8335,-2.9262,-2.992,-3.0058,-2.976,-3.0349,-3.0396,-2.9954,-2.9488,-2.9277,-2.9201,-2.9246,-2.94,-2.9606,-2.9539,-2.985,-3.0272,0.0,0.0,0.0,0.0,0.0,0.0,0.0,0.0,0.0,1.7164,1.8406,1.9573,2.0402,2.1453,2.2495,2.3515,2.2999,2.2595,2.2507,2.1473,2.035,1.9193,1.8823,0.0,0.0,1.8956,1.9522,2.0805,2.0047,1.9844,2.0165,1.9887,1.9872,2.0077,2.0194,2.0383,2.0406,1.8227,1.7393,1.7377,1.5885,1.5257,1.5123,0.0,0.0,0.0,0.0,0.0,0.0,0.0,0.0,0.0,0.0,0.0,0.0,0.0,0.0,0.0,0.0,0.0,0.0,0.0,0.0,0.0,0.0,0.0,0.0,0.0,0.0,0.0,0.0,0.0,0.0,0.0,0.0,0.0,0.0,-1.3122,-1.4452,-1.5708,-1.718,-1.8483,-1.9403,-2.0384,-2.1343,-2.2296,-2.2662,-2.3414,-2.4806,-2.5663,-2.6512,-2.7434,-2.837,-2.8757,-2.8476,-2.8579,-2.8664,-2.8715,-2.9214,-2.9799,-3.0525,-3.1388,-3.1669,-3.1428,-3.1969,-3.1987,-3.1667,-3.1716,-3.17,-3.1529,-3.0821,-3.0814,-3.1202,-3.1095,-3.1414,-3.1781,0.0,0.0,0.0,0.0,0.0,0.0,0.0,1.6438,1.6996,1.8647,1.9572,2.0422,2.1249,2.2787,2.3714,2.3634,2.3535,2.3412,2.3316,2.1849,2.0938,2.0823,0.0,0.0,2.0714,2.0592,2.0876,2.1625,2.1345,2.1123,2.0986,2.0558,2.1046,2.222,2.1164,2.1423,2.2541,2.1009,2.0167,1.9657,1.77,1.7079,1.7155,0.0,0.0,0.0,0.0,0.0,0.0,0.0,0.0,0.0,0.0,0.0,0.0,0.0,0.0,0.0,0.0,0.0,0.0,0.0,0.0,0.0,0.0,0.0,0.0,0.0,0.0,0.0,0.0,0.0,0.0,0.0,0.0,0.0,-1.4049,-1.5514,-1.6927,-1.7648,-1.9107,-2.0572,-2.1959,-2.2646,-2.3455,-2.4434,-2.4507,-2.4903,-2.5897,-2.6499,-2.7082,-2.766,-2.8343,-2.8881,-2.9279,-2.9472,-2.9558,-2.9627,-3.1165,-3.1944,-3.2102,-3.3688,-3.4428,-3.4506,-3.4651,-3.4705,-3.4689,-3.4763,-3.4672,-3.4242,-3.2143,-3.1551,-3.1834,-3.1723,-3.2029,-3.2638,0.0,0.0,0.0,0.0,0.0,0.0,0.0,1.6471,1.6854,1.788,1.9245,2.0633,2.2026,2.2538,2.3239,2.4369,2.3247,2.2742,2.3329,2.1801,2.0844,0.0,0.0,0.0,2.1414,2.1296,2.1552,2.2254,2.1458,2.1808,2.3185,2.2315,2.2558,2.3762,2.3283,2.3257,2.3556,2.2689,2.2469,2.2483,2.0173,1.9184,1.8941,0.0,0.0,0.0,0.0,0.0,0.0,0.0,0.0,0.0,0.0,0.0,0.0,0.0,0.0,0.0,0.0,0.0,0.0,0.0,0.0,0.0,0.0,0.0,0.0,0.0,0.0,0.0,0.0,0.0,0.0,0.0,-1.6413,-1.6664,-1.6013,-1.6896,-1.7785,-1.8289,-1.9901,-2.1203,-2.1872,-2.3215,-2.4144,-2.4482,-2.5598,-2.6357,-2.6521,-2.8458,-2.944,-2.9202,-3.0465,-3.1067,-3.0851,-3.083,-3.1103,-3.1764,-3.1627,-3.2235,-3.3412,-3.3943,-3.4254,-3.4373,-3.5116,-3.4861,-3.4023,-3.4587,-3.4446,-3.3917,-3.3847,-3.3386,-3.2792,-3.3291,-3.3481,-3.3505,0.0,0.0,0.0,0.0,0.0,0.0,0.0,1.6683,1.7008,1.8543,1.9534,2.0708,2.2327,2.2767,2.3307,2.4166,2.3589,2.2948,2.2395,2.1351,2.0931,0.0,0.0,2.2331,2.2208,2.241,2.2654,2.3001,2.266,2.3047,2.4059,2.3622,2.3905,2.4776,2.4745,2.4835,2.4987,2.4592,2.4521,2.4539,2.2712,2.1349,2.0371,1.9512,1.8839,1.8247,1.7498,1.7768,1.8429,1.7859,0.0,0.0,0.0,0.0,0.0,0.0,0.0,0.0,0.0,0.0,0.0,0.0,0.0,0.0,0.0,0.0,0.0,0.0,0.0,0.0,0.0,0.0,0.0,0.0,-1.7906,-1.8395,-1.8596,-1.8841,-1.9448,-2.06,-2.1909,-2.3009,-2.3878,-2.5016,-2.5782,-2.5918,-2.6869,-2.7421,-2.731,-2.9041,-2.9962,-2.9711,-3.1247,-3.2006,-3.1922,-3.2168,-3.2525,-3.3071,-3.2969,-3.3459,-3.4438,-3.4887,-3.5208,-3.5483,-3.5994,-3.5867,-3.5223,-3.5573,-3.5447,-3.5043,0.0,0.0,0.0,0.0,-3.4363,-3.425,0.0,0.0,0.0,0.0,0.0,0.0,0.0,1.6835,1.7248,1.9607,2.0108,2.0781,2.2197,2.3152,2.3609,2.3376,2.4009,2.3461,2.1171,2.1098,0.0,2.2188,2.2858,2.3179,2.3052,2.3613,2.3831,2.37,2.4284,2.4416,2.4118,2.4597,2.5031,2.543,2.5704,2.6053,2.6391,2.6377,2.6183,2.5803,2.4775,2.333,2.1579,2.0218,1.9573,1.9321,1.8727,1.8984,1.9473,1.8478,0.0,0.0,0.0,0.0,0.0,0.0,0.0,0.0,0.0,0.0,0.0,0.0,0.0,0.0,0.0,0.0,0.0,0.0,0.0,0.0,0.0,0.0,0.0,0.0,-1.9131,-1.9827,-2.1262,-2.1114,-2.157,-2.3468,-2.4307,-2.5295,-2.6596,-2.7285,-2.7721,-2.7867,-2.8101,-2.8263,-2.8256,-2.9149,0.0,0.0,0.0,-3.2395,-3.2706,-3.3369,-3.3785,-3.3936,-3.4592,-3.5,-3.5294,-3.6022,-3.658,-3.693,-3.697,-3.7052,-3.7135,-3.7031,-3.6987,-3.6829,-3.543,-3.4771,-3.464,-3.4826,-3.4874,-3.4942,0.0,0.0,0.0,0.0,0.0,0.0,0.0,1.6087,1.6821,1.7949,1.9831,2.117,2.1426,2.2748,2.3291,2.252,2.2599,2.2443,2.1898,2.3111,2.3582,2.3015,2.3673,2.4026,2.3952,2.3866,2.3771,2.37,2.4147,2.4506,2.4821,2.5282,2.5713,2.6112,2.65,2.6513,2.6294,2.6704,2.6421,2.5649,2.4576,2.3763,2.3055,2.2419,2.1998,2.1702,2.1312,2.1282,2.1372,2.1211,2.0356,1.9419,1.9646,1.8432,0.0,0.0,0.0,0.0,0.0,0.0,0.0,0.0,0.0,0.0,0.0,0.0,0.0,0.0,0.0,0.0,0.0,0.0,0.0,-1.9346,-2.0267,-2.1242,-2.2275,-2.3218,-2.3752,-2.3573,-2.4867,-2.5923,-2.629,-2.734,-2.798,-2.7923,-2.864,-2.9313,-2.9914,-3.1166,-3.2067,-3.2402,-3.3272,-3.39,-3.4109,-3.4244,-3.4634,-3.5226,-3.489,0.0,-3.5667,-3.5545,-3.5814,-3.6468,-3.6731,-3.654,-3.613,-3.6763,-3.6948,-3.6741,-3.5697,-3.5555,-3.5859,-3.5229,-3.5368,-3.5891,0.0,0.0,0.0,0.0,0.0,0.0,0.0,1.6804,1.7504,1.8743,1.9926,2.0779,2.1161,2.1537,2.1727,2.1666,2.1592,2.1886,2.2694,2.3468,2.3866,2.3799,2.4063,2.4173,2.4096,2.3834,2.366,2.3589,2.4438,2.4925,2.5063,2.588,2.6472,2.6878,2.7175,2.7227,2.7121,2.7541,2.7287,2.6561,2.5471,2.4597,2.3786,2.2757,2.2263,2.2049,2.1681,2.1657,2.1777,2.129,2.0661,2.0147,2.0227,1.9461,1.8408,0.0,0.0,0.0,0.0,0.0,0.0,0.0,0.0,0.0,0.0,0.0,0.0,0.0,0.0,-1.8691,-1.9119,0.0,-2.098,-2.1229,-2.184,-2.2802,-2.424,-2.5561,-2.6036,-2.5087,-2.6388,-2.7486,-2.7828,-2.8663,-2.9124,-2.9149,-2.9617,-3.0228,-3.0981,-3.1709,-3.2463,-3.3064,-3.3862,-3.4408,-3.4592,-3.4922,-3.525,-3.5711,-3.5311,-3.5399,-3.5888,-3.5771,-3.5973,-3.6402,-3.669,-3.6681,-3.6485,-3.6967,-3.6987,-3.6673,-3.6226,-3.6173,-3.635,-3.5803,-3.5839,-3.6182,0.0,0.0,0.0,0.0,0.0,0.0,0.0,0.0,1.8425,1.9758,2.0117,2.0418,2.0895,2.0327,2.0156,2.0772,2.088,2.161,0.0,2.3433,2.3741,2.4375,2.421,2.4169,2.4253,2.4003,2.3894,2.3916,2.5068,2.5509,2.5276,2.6413,2.7094,2.7334,2.772,2.7902,2.7944,2.8326,2.8137,2.7464,2.6262,2.5199,2.4177,2.2422,2.1698,2.1602,2.1326,2.1293,2.1227,2.059,2.0388,2.0473,2.0467,2.0348,2.0147,1.9831,1.3298,0.0,0.0,0.0,0.0,0.0,0.0,0.0,0.0,-1.7483,-1.8302,-1.8209,-1.9708,-2.102,-2.0972,-2.2164,-2.3233,-2.347,-2.3763,-2.4523,-2.6091,-2.7487,-2.7989,-2.6938,-2.8172,-2.9302,-2.9704,-3.0212,-3.0596,-3.0771,-3.0898,-3.1298,-3.2011,-3.2164,-3.2617,-3.351,-3.4219,-3.4671,-3.483,-3.5318,-3.5707,-3.5949,-3.5842,-3.5932,-3.6198,-3.6302,-3.6388,-3.6461,-3.6708,-3.6891,-3.7069,-3.7182,-3.6987,-3.6719,-3.6817,-3.6787,-3.6686,-3.6517,-3.6535,-3.6594,0.0,0.0,0.0,0.0,0.0,0.0,0.0,0.0,0.0,1.8952,2.0241,2.0864,2.0131,1.9964,1.9899,1.9857,2.0498,2.1596,2.3223,2.3955,2.4369,2.4412,2.4266,2.4483,2.5134,2.49,2.4974,2.5443,2.6116,2.6225,2.576,2.6945,2.7294,2.7011,2.8143,2.8323,2.7749,2.8404,2.8155,2.7282,2.5648,2.4892,2.4439,2.2277,2.1313,2.1091,2.1313,2.0686,1.9882,2.0656,2.0806,2.0808,2.1541,2.1912,2.2014,2.1953,1.5857,0.8265,0.4306,-0.5647,-1.5442,-1.7598,-1.774,-1.7605,0.0,-1.9046,-1.9379,-2.0458,-2.1129,-2.1957,-2.3396,-2.4088,-2.4675,-2.5504,-2.5991,-2.6382,-2.6756,-2.8019,-2.8783,-2.8372,-2.993,-3.0924,-3.0749,-3.1271,-3.1812,-3.2204,-3.2492,-3.2956,-3.3689,-3.3739,-3.4163,-3.5023,-3.5278,-3.5311,-3.5203,-3.5498,-3.5915,-3.6498,-3.6608,-3.6729,-3.6786,-3.6831,-3.6625,-3.6251,-3.6626,-3.6869,-3.7009,-3.6908,-3.6788,-3.6771,-3.7222,-3.7396,-3.7396,-3.7353,-3.7679,-3.8025,0.0,0.0,0.0,0.0,0.0,0.0,0.0,0.0,0.0,0.0,1.9029,1.8983,1.8544,1.8879,1.9115,1.902,2.0642,0.0,2.2551,2.3787,2.4446,2.4284,2.4153,2.4202,2.4468,2.423,2.4206,2.4408,2.5358,2.56,2.5291,2.6758,2.7499,2.764,2.8178,2.8389,2.8249,2.7968,2.7722,2.7369,2.5639,2.4722,2.4191,2.2537,2.1086,1.993,2.0307,2.0066,0.0,2.0193,2.0589,2.0962,2.1353,2.1227,2.007,1.5802,0.7789,-0.1633,-1.0424,-1.6111,-1.9661,-2.0186,-2.0433,-2.0937,-2.2302,-2.299,-2.364,-2.4416,-2.5019,-2.5431,-2.5577,-2.6124,-2.6649,-2.7042,-2.7211,-2.7656,-2.8741,-2.9407,-2.9789,-2.9714,-3.082,-3.1506,-3.127,-3.1825,-3.2365,-3.2707,-3.2829,-3.3295,-3.4197,-3.4242,-3.4667,-3.5424,-3.5684,-3.5949,-3.627,-3.6418,-3.6854,-3.7619,-3.7665,-3.7648,-3.7643,-3.7735,-3.7566,-3.7119,-3.7387,-3.7288,-3.6987,-3.6948,-3.6788,-3.6596,-3.6807,-3.7034,-3.735,-3.7912,-3.8291,-3.8401,0.0,0.0,0.0,0.0,0.0,0.0,0.0,0.0,0.0,0.0,0.0,1.7598,1.7491,1.7955,1.8324,1.8483,2.0369,0.0,0.0,2.3363,2.4153,2.4192,2.4095,2.4085,2.4203,2.3979,2.3927,2.4088,2.5049,2.534,2.5107,2.6786,2.7696,2.7907,2.8345,2.8541,2.8574,2.781,2.7428,2.72,2.5629,2.4586,2.3773,2.2372,2.0824,1.9448,1.952,1.9257,1.8877,1.931,1.9792,2.0316,2.0695,1.9368,1.657,1.0931,0.1465,-0.9618,-2.0867,-2.2725,-2.1637,-2.2094,-2.2892,-2.3834,-2.5231,-2.6182,-2.6848,-2.7115,-2.7697,-2.7951,-2.7427,-2.7898,-2.8403,-2.8567,-2.8616,-2.9034,-3.0136,-3.0426,-3.0526,-3.0526,-3.1299,-3.1807,-3.1636,-3.2282,-3.2951,-3.3501,-3.3606,-3.3946,-3.465,-3.4783,-3.5148,-3.591,-3.5963,-3.6365,-3.7216,-3.7087,-3.757,-3.8542,-3.8542,-3.8525,-3.8521,-3.8437,-3.8163,-3.7689,-3.7875,-3.7603,-3.7005,-3.7176,-3.7062,-3.6873,-3.6997,-3.7378,-3.7905,-3.8429,-3.8732,-3.8728,0.0,0.0,0.0,0.0,0.0,0.0,0.0,0.0,0.0,0.0,0.0,0.0,0.0,1.7425,1.7723,1.8427,1.935,0.0,0.0,2.2776,2.3525,2.4172,2.4133,2.4379,2.495,2.4815,2.5028,2.5535,2.6026,2.601,2.5509,2.7374,2.7914,2.739,2.8698,2.8967,2.8396,2.822,2.758,2.6508,2.5341,2.4361,2.3288,2.136,2.0475,2.0167,1.9326,1.8033,1.6961,1.8008,1.8325,1.8496,1.9732,1.641,1.1764,1.0375,0.0904,-1.121,-2.0834,-2.1768,-2.0884,-2.4246,-2.5064,-2.5395,-2.6798,-2.7404,-2.7608,-2.7426,-2.7818,-2.8349,-2.8845,-2.9214,-2.9625,-3.0236,-3.0601,-3.0642,-3.0274,-3.0626,-3.079,-3.051,-3.1383,-3.1993,-3.1993,-3.2765,-3.3832,-3.5124,-3.5391,-3.5481,-3.5458,-3.5515,-3.5943,-3.6721,-3.6163,-3.6486,-3.7868,-3.7233,-3.767,-3.9166,-3.9166,-3.9262,-3.9324,-3.8677,-3.8012,-3.7456,-3.7671,-3.7504,-3.704,-3.755,-3.7781,-3.7808,-3.8321,-3.8974,-3.9543,-3.8836,-3.8952,-3.9495,0.0,0.0,0.0,0.0,0.0,0.0,0.0,0.0,0.0,0.0,0.0,0.0,0.0,0.0,0.0,0.0,1.9488,2.057,2.0471,2.2229,2.3318,2.3401,2.384,2.4124,2.4212,2.4055,2.3993,2.4017,2.4983,2.5244,2.4929,2.6604,2.7173,2.6865,2.7465,2.7496,2.7103,2.6474,2.6214,2.6121,2.4412,2.3766,2.3667,2.203,2.0411,1.8999,0.0,1.7808,1.6998,1.7743,1.8246,1.8741,1.9587,1.5171,0.7499,-0.3609,-1.2873,-2.0207,-2.3231,-2.433,-2.4704,-2.5216,-2.6808,-2.8362,-2.8591,-2.9413,-3.0051,-2.9926,-2.9699,-2.9585,-2.976,-2.9365,-2.9319,-3.0118,-3.0352,-3.0538,-3.0828,-3.1476,-3.1635,-3.1043,-3.1688,-3.2411,-3.3,-3.3573,-3.4124,-3.4711,-3.5217,-3.5611,-3.5817,-3.5844,-3.6007,-3.6263,-3.6696,-3.7357,-3.8242,-3.8591,-3.9225,-4.0175,-4.0029,-3.998,-4.0109,-3.9788,-3.9354,-3.8786,-3.8484,-3.8252,-3.8111,-3.7801,-3.788,-3.8232,-3.8491,-3.8642,-3.8745,-3.9187,-3.9181,-3.8797,0.0,0.0,0.0,0.0,0.0,0.0,0.0,0.0,0.0,0.0,0.0,0.0,0.0,0.0,0.0,0.0,0.0,1.9988,1.9724,0.0,2.2576,2.2941,2.3125,2.3267,2.3337,2.2937,2.2741,2.2776,2.3657,2.411,2.4198,2.5541,2.601,2.5831,2.6452,2.6545,2.6271,2.5911,2.5766,2.565,2.4014,2.3364,2.3215,2.1451,1.9864,0.0,1.7478,1.6929,1.6722,1.7254,1.6238,1.4808,1.5311,0.8267,-0.2575,-1.4726,-2.1812,-2.5637,-2.5342,-2.5973,-2.674,-2.681,-2.8308,-2.9804,-2.9901,-3.0823,-3.1517,-3.1145,-3.0746,-3.0417,-3.0091,-2.9374,-2.9138,-3.0031,-3.0245,-3.0602,-3.1484,-3.2145,-3.2406,-3.2043,-3.249,-3.3063,-3.3556,-3.4117,-3.4496,-3.4566,-3.526,-3.5773,-3.5975,-3.6232,-3.6686,-3.7261,-3.7617,-3.8264,-3.9203,-3.9502,-4.0001,-4.0697,-4.0502,-4.0502,-4.0583,-4.0195,-3.9802,-3.9478,-3.8894,-3.8684,-3.8685,-3.8218,-3.8407,-3.8928,-3.8698,-3.8831,-3.9157,-3.9273,-3.9163,-3.8957,0.0,0.0,0.0,0.0,0.0,0.0,0.0,0.0,0.0,0.0,0.0,0.0,0.0,0.0,0.0,0.0,0.0,0.0,1.9531,0.0,0.0,2.2721,2.2098,2.1917,2.2422,2.1624,2.1441,2.1925,2.2212,2.2688,2.3354,2.4282,2.4596,2.4406,2.5706,2.6062,2.5784,2.6376,2.6037,2.5056,2.4058,2.3098,2.2043,1.9856,1.8878,1.8366,1.5907,1.5225,1.5543,1.6035,1.205,0.6931,0.7226,-0.3374,-1.6946,-2.211,-2.5366,-2.7229,-2.6942,-2.6762,-2.706,-2.8982,-2.9622,-2.9922,-3.0647,-3.1579,-3.1979,-3.0935,-3.0807,-3.0594,-2.9688,-2.9097,-2.9042,-2.9854,-3.0267,-3.0888,-3.215,-3.261,-3.298,-3.3371,-3.3656,-3.3789,-3.37,-3.4413,-3.4899,-3.478,-3.5591,-3.607,-3.6087,-3.6761,-3.7911,-3.9439,-3.8837,-3.9181,-4.0577,-3.9924,-3.9959,-4.0697,-4.0697,-4.0697,-4.0662,-3.9843,-3.95,-3.9483,-3.9002,-3.8745,-3.8745,-3.8745,-3.9195,-3.9801,-3.8984,-3.956,-4.0698,-3.925,-3.9129,-3.9802,0.0,0.0,0.0,0.0,0.0,0.0,0.0,0.0,0.0,0.0,0.0,0.0,0.0,0.0,0.0,0.0,0.0,0.0,1.7903,0.0,0.0,0.0,0.0,0.0,0.0,0.0,0.0,2.0952,2.142,2.1983,2.2683,2.3148,2.3572,2.3895,2.4237,2.4188,2.3819,2.409,2.3681,2.2791,2.2048,2.1364,2.0585,1.9612,1.8368,1.6872,1.4844,1.1611,0.8319,0.8253,0.4477,-0.0238,-0.0451,-0.7159,-1.6308,-2.3196,-2.6234,-2.7489,-2.7944,-2.8826,-2.9692,-3.0118,-3.1006,-3.1603,-3.1029,-3.1477,-3.1605,-3.0118,-2.9435,-2.8665,-2.7392,-2.6933,-2.7226,-2.8664,-2.9369,-3.0434,-3.2415,-3.2767,-3.3119,-3.3854,-3.3957,-3.4278,-3.4869,-3.5152,-3.5497,-3.6008,-3.6534,-3.6918,-3.7094,-3.7816,-3.8188,-3.8016,-3.9002,-3.9444,-3.9306,-4.0112,-4.0586,-4.0697,-4.0583,-4.0485,-4.037,-3.962,-3.9538,-3.9865,-3.873,-3.8584,-3.9174,-3.87,-3.8952,-3.9606,-3.9445,-3.9979,-4.0693,-4.044,-4.0043,-3.9755,0.0,0.0,0.0,0.0,0.0,0.0,0.0,0.0,0.0,0.0,0.0,0.0,0.0,0.0,0.0,0.0,0.0,0.0,0.0,1.8459,0.0,0.0,0.0,0.0,0.0,0.0,0.0,0.0,0.0,0.0,2.1524,2.1552,2.174,2.1988,2.2285,2.2309,2.2151,2.2345,0.0,0.0,0.0,2.0147,1.9831,1.8834,1.7171,1.4891,1.1736,0.4687,-0.2598,0.0883,-0.2356,-0.8399,-1.1557,-1.6237,-2.1326,-2.5393,-2.7251,-2.813,-2.888,-2.9584,-3.0191,-3.0625,-3.1408,-3.1727,-3.0422,-3.0698,-3.0766,-2.8853,-2.8064,-2.7394,-2.6285,-2.6079,-2.6578,-2.8241,-2.914,-3.056,-3.3152,-3.3297,-3.3627,-3.4985,-3.4886,-3.503,-3.581,-3.6214,-3.662,-3.7037,-3.7275,-3.7585,-3.8131,-3.8814,-3.8995,-3.8668,-3.9811,-4.0227,-3.9811,-4.0614,-4.0935,-4.0858,-4.0697,-4.0583,-4.0517,-3.9685,-3.9608,-4.0103,-3.8721,-3.8611,-3.9289,-3.8334,-3.8597,-3.9571,-3.929,-3.9795,-4.0697,-4.0793,-4.05,-4.0079,0.0,0.0,0.0,0.0,0.0,0.0,0.0,0.0,0.0,0.0,0.0,0.0,0.0,0.0,0.0,0.0,0.0,0.0,0.0,0.0,0.0,0.0,0.0,0.0,1.9975,1.9092,1.8868,1.931,1.8947,1.9172,0.0,0.0,0.0,0.0,0.0,0.0,0.0,0.0,0.0,2.0645,1.95,1.9139,1.9137,0.0,0.0,1.2102,0.6339,-0.3858,-1.3571,-0.6948,-0.9688,-1.6729,-2.1752,-2.5554,-2.8108,-2.7964,-2.8353,-2.8975,-2.9691,-2.9737,-2.9807,-3.0856,-3.1381,-3.1217,-2.9584,-2.9841,-2.9765,-2.7373,-2.6747,-2.6409,-2.5586,-2.5725,-2.645,-2.7947,-2.9062,-3.0731,-3.3656,-3.3591,-3.4027,-3.6151,-3.5879,-3.5797,-3.6498,-3.7346,-3.7857,-3.8004,-3.8034,-3.8356,-3.9086,-3.9745,-4.0162,-4.0269,-4.0648,-4.0932,-4.1093,-4.1093,-4.1093,-4.1111,-4.0858,-4.0793,-4.0853,-3.986,-3.9737,-4.022,-3.8785,-3.8606,-3.9119,-3.782,-3.8195,-3.9491,-3.8836,-3.9434,-4.0697,-4.0697,-4.0583,-4.0485,0.0,0.0,0.0,0.0,0.0,0.0,0.0,0.0,0.0,0.0,1.3639,1.3723,0.0,0.0,0.0,0.0,0.0,0.0,0.0,0.0,0.0,0.0,0.0,0.0,1.9264,1.9053,1.8556,1.7786,1.7673,1.7589,0.0,0.0,0.0,0.0,0.0,0.0,0.0,0.0,0.0,1.7857,1.8063,1.7694,1.7031,0.0,0.0,0.0,-0.3606,-1.0903,-1.5869,-1.7812,-2.0961,-2.3386,-1.9537,-2.2955,-2.8518,-2.9347,-2.9475,-2.952,-3.0183,-3.0626,-3.102,-3.1603,-3.2063,-3.1954,-3.024,-2.9954,-2.926,-2.6295,-2.5645,-2.5153,-2.3728,-2.4472,-2.5588,-2.6544,-2.7851,-2.9606,-3.2124,-3.244,-3.3263,-3.5584,-3.5784,-3.6054,-3.6821,-3.7568,-3.8286,-3.8975,-3.9538,-3.9826,-3.9753,-4.0617,-4.1126,-4.1188,-4.0071,-3.9983,-4.1163,-4.1163,-4.1152,-4.1093,-4.0935,-4.084,-4.0728,-3.9907,-3.9833,-4.022,-3.8755,-3.8223,-3.835,-3.7479,-3.7813,-3.8767,-3.8511,-3.9358,-4.0697,-4.0583,-4.0534,-4.0468,0.0,0.0,0.0,0.0,0.0,0.0,0.0,1.2486,1.3376,1.5076,1.5636,1.5562,1.4667,1.4849,1.5224,0.0,0.0,0.0,0.0,0.0,0.0,0.0,0.0,0.0,1.859,1.8465,1.8118,1.7609,0.0,1.664,1.6567,1.6493,1.651,1.6686,1.6829,1.6768,1.6593,1.6714,1.6703,1.6564,1.6521,1.6485,0.0,0.0,0.0,0.0,0.0,-1.5101,-1.8873,-2.067,-2.3179,-2.5153,-2.3062,-2.5529,-2.9255,-2.9756,-2.9626,-2.9516,-3.0268,-3.076,-3.122,-3.1714,-3.1974,-3.1523,-2.9465,-2.8604,-2.7461,-2.4707,-2.4121,-2.3868,-2.3135,-2.3946,-2.5005,-2.5768,-2.686,-2.8574,-3.1253,-3.1637,-3.2687,-3.5437,-3.5829,-3.6204,-3.6939,-3.769,-3.8462,-3.9252,-3.9999,-4.0508,-4.076,-4.0893,-4.1068,-4.1408,-4.0368,-4.0298,-4.13,-4.1255,-4.1163,-4.1152,-4.0965,-4.0888,-4.0776,-4.0367,-4.0257,-4.0302,-3.8772,-3.8155,-3.822,-3.7045,-3.7295,-3.8504,-3.8431,-3.9264,-4.0502,-4.0436,-4.0337,-4.0271,0.0,0.0,0.0,0.0,0.0,0.0,0.0,1.3725,1.4941,1.681,1.7439,1.727,1.6091,1.5552,1.5627,0.0,0.0,0.0,0.0,0.0,0.0,0.0,0.0,0.0,0.0,0.0,0.0,1.7597,1.6457,0.0,0.0,0.0,0.0,0.0,1.5383,1.5347,1.5255,1.5044,1.5242,0.0,0.0,1.5583,1.533,0.0,0.0,0.0,0.0,-1.7678,-2.0813,-2.0593,-2.2222,-2.4618,-2.5972,-2.7771,-2.9368,-2.9309,-2.912,-2.9095,-2.9706,-3.0259,-3.082,-3.1374,-3.1439,-3.0782,-2.8596,-2.7356,-2.5973,-2.3517,-2.3028,-2.3028,-2.302,-2.3751,-2.4549,-2.5174,-2.61,-2.7706,-3.0363,-3.1017,-3.2317,-3.5269,-3.5854,-3.6277,-3.6995,-3.7928,-3.8737,-3.9311,-4.0225,-4.1033,-4.1569,-4.0884,-4.0788,-4.1408,-4.0823,-4.0788,-4.1426,-4.1318,-4.1209,-4.1209,-4.1012,-4.0935,-4.0888,-4.0793,-4.0631,-4.04,-3.899,-3.8457,-3.8459,-3.6847,-3.7148,-3.8608,-3.8391,-3.9105,-4.0288,-4.0255,-4.0188,-4.0087,0.0,0.0,0.0,0.0,0.0,0.0,0.0,1.4616,1.6072,1.8538,1.8184,1.7892,1.841,1.7104,1.654,0.0,0.0,0.0,0.0,0.0,0.0,0.0,0.0,0.0,0.0,0.0,0.0,1.6885,1.5872,0.0,0.0,0.0,0.0,0.0,0.0,1.3873,1.3583,1.4207,0.0,0.0,0.0,0.0,0.0,0.0,0.0,0.0,0.0,-1.878,-1.9763,-1.9846,-2.0986,-2.2501,-2.3257,-2.543,-2.7709,-2.7641,-2.7896,-2.8199,-2.8128,-2.8925,-2.9872,-3.0481,-3.0558,-3.0077,-2.8369,-2.7422,-2.6145,-2.3618,-2.3144,-2.3126,-2.302,-2.3683,-2.4278,-2.4468,-2.5676,-2.7254,-2.9024,-3.0494,-3.2294,-3.4765,-3.5611,-3.6353,-3.7188,-3.8461,-3.9276,-3.947,-4.0845,-4.1666,-4.1604,-4.0797,-4.0701,-4.1525,-4.0867,-4.0832,-4.1587,-4.1471,-4.1318,-4.1209,-4.1123,-4.1047,-4.0888,-4.0888,-4.0728,-4.0434,-3.9631,-3.9242,-3.9027,-3.7449,-3.7797,-3.9204,-3.8376,-3.8945,-4.0255,-4.0054,-3.9986,-4.0087,0.0,0.0,0.0,0.0,0.0,0.0,1.3732,1.4705,1.6157,1.8706,1.8686,1.8729,1.9553,1.8507,1.7899,1.8288,0.0,0.0,0.0,0.0,0.0,0.0,0.0,0.0,0.0,0.0,1.7261,1.7715,1.6219,0.0,0.0,0.0,0.0,0.0,0.0,1.3589,1.3542,1.3546,0.0,0.0,0.0,0.0,0.0,0.0,0.0,0.0,0.0,0.0,-1.968,-1.9406,-2.0207,-2.1316,-2.1359,-2.2775,-2.4707,-2.6147,-2.723,-2.7922,-2.7732,-2.8664,-2.9746,-2.9819,-2.9851,-2.9423,-2.7835,-2.6801,-2.5638,-2.3612,-2.3217,-2.3193,-2.3144,-2.3488,-2.3773,-2.3675,-2.4718,-2.5851,-2.6798,-2.8706,-3.091,-3.3262,-3.4677,-3.5934,-3.7173,-3.8192,-3.9153,-4.0087,-4.1223,-4.1902,-4.1858,-4.1429,-4.1332,-4.1587,-4.1323,-4.1306,-4.1604,-4.1471,-4.1318,-4.1209,-4.1123,-4.1047,-4.0888,-4.0888,-4.0793,-4.0549,-3.9764,-3.9392,-3.9211,-3.8057,-3.8261,-3.9262,-3.886,-3.9272,-4.0054,-3.9952,-3.9884,-3.9833,0.0,0.0,0.0,0.0,0.0,1.2336,1.3788,1.5115,1.6604,1.837,1.8778,1.9218,2.005,1.9058,1.8617,1.9378,1.7784,0.0,0.0,0.0,0.0,0.0,0.0,0.0,0.0,0.0,1.7003,1.8302,1.6476,1.6101,0.0,0.0,1.4684,1.5243,0.0,0.0,0.0,0.0,0.0,0.0,0.0,0.0,0.0,0.0,0.0,0.0,0.0,0.0,0.0,0.0,0.0,-2.0151,-1.9864,-2.0741,-2.2322,-2.4501,-2.6098,-2.7172,-2.7159,-2.8294,-2.952,-2.9761,-2.95,-2.8892,-2.7709,-2.655,-2.529,-2.3607,-2.3241,-2.3193,-2.3193,-2.3336,-2.3407,-2.3289,-2.4088,-2.4944,-2.5508,-2.7427,-2.9579,-3.1717,-3.3381,-3.496,-3.6521,-3.7972,-3.9416,-4.0888,-4.1669,-4.203,-4.2005,-4.1927,-4.1823,-4.171,-4.1692,-4.1648,-4.1648,-4.1515,-4.1408,-4.1255,-4.1152,-4.1076,-4.0935,-4.0935,-4.0793,-4.0614,-3.9987,-3.9651,-3.9552,-3.8625,-3.8713,-3.9423,-3.8901,-3.9209,-3.9867,-3.9597,-3.9613,-3.9729,0.0,0.0,0.0,0.0,0.0,0.0,1.3875,1.6157,1.7747,1.7722,1.8421,1.9179,1.9916,1.8458,1.8386,2.0778,1.8836,0.0,0.0,0.0,0.0,0.0,0.0,0.0,0.0,0.0,1.5705,1.8302,1.641,1.6383,1.8053,1.6232,1.536,1.5257,0.0,0.0,0.0,0.0,0.0,0.0,0.0,0.0,0.0,0.0,0.0,0.0,0.0,0.0,0.0,0.0,0.0,0.0,0.0,-1.964,-2.1044,-2.2674,-2.4265,-2.563,-2.6173,-2.7482,-2.9062,-3.0458,-2.9647,-2.8458,-2.8228,-2.7004,-2.5376,-2.3559,-2.3193,-2.3193,-2.3193,-2.3313,-2.3383,-2.3383,-2.4094,-2.4866,-2.5693,-2.7094,-2.8645,-3.0321,-3.1767,-3.3294,-3.5044,-3.8,-4.0387,-4.1864,-4.2037,-4.2079,-4.2005,-4.2037,-4.2079,-4.2005,-4.1884,-4.178,-4.178,-4.1648,-4.1515,-4.138,-4.1255,-4.118,-4.1093,-4.0935,-4.0776,-4.0485,-4.0468,-4.032,-4.002,-3.9143,-3.9328,-3.9918,-3.8202,-3.8489,-3.9817,-3.8925,-3.9177,-3.9901,0.0,0.0,0.0,0.0,0.0,0.0,0.0,1.3843,1.5324,1.5843,1.6628,1.7439,1.826,1.7785,1.7694,1.8403,1.7756,0.0,0.0,0.0,0.0,0.0,0.0,0.0,0.0,0.0,1.6474,1.8365,1.7272,1.751,1.8945,1.7229,1.637,1.6186,1.4939,1.4054,0.0,0.0,0.0,0.0,0.0,0.0,-0.114,0.0,0.0,0.0,0.0,0.0,0.0,0.0,0.0,0.0,0.0,0.0,0.0,-2.0941,-2.2831,-2.4447,-2.3978,-2.5048,-2.6263,-2.6062,-2.6126,-2.5923,-2.4662,-2.4815,-2.4734,-2.2995,-2.2589,-2.2681,-2.3248,-2.2922,-2.2904,-2.3998,-2.4871,-2.5508,-2.5768,-2.761,-2.9543,-3.1135,-3.4118,-3.6399,-3.7431,-3.8963,-4.0259,-4.1245,-4.1878,-4.2246,-4.2222,-4.2205,-4.2163,-4.2005,-4.1884,-4.178,-4.178,-4.1648,-4.1498,-4.1255,-4.1209,-4.1088,-4.084,-4.0888,-4.068,-4.0387,-4.0485,-4.0337,-4.002,-3.9243,-3.9378,-3.9986,-3.8824,-3.8942,-3.9713,-3.9461,-3.9493,-3.959,0.0,0.0,0.0,0.0,0.0,0.0,0.0,1.2793,1.4073,1.4558,1.5326,1.6295,1.7477,1.7208,1.7309,1.817,1.7585,0.0,0.0,0.0,0.0,0.0,0.0,0.0,0.0,1.566,1.6313,1.7824,1.7426,1.7801,1.8886,1.7876,1.7142,1.658,1.5289,1.4261,0.0,0.0,0.0,0.0,0.0,0.0,-0.3085,0.0,0.0,0.0,0.0,0.0,0.0,0.0,0.0,0.0,0.0,0.0,0.0,0.0,-2.1152,-2.2703,-2.2775,-2.3741,-2.4684,-2.4399,-2.4511,-2.4426,-2.3345,-2.3593,-2.3656,-2.2291,-2.1938,-2.2107,-2.2865,-2.2598,-2.2687,-2.3916,-2.4842,-2.5472,-2.575,-2.7611,-2.9744,-3.1885,-3.4829,-3.7077,-3.8127,-3.9002,-3.9911,-4.0976,-4.1573,-4.2007,-4.2269,-4.2042,-4.1859,-4.1671,-4.1785,-4.1902,-4.1902,-4.1692,-4.1498,-4.1255,-4.1209,-4.1088,-4.0858,-4.084,-4.0631,-4.037,-4.0097,-3.988,0.0,-3.8771,-3.8688,-3.9025,-3.8103,-3.8154,-3.8756,-3.8472,-3.8688,-3.9104,0.0,0.0,0.0,0.0,0.0,0.0,0.0,1.2684,1.3722,1.371,1.4463,1.5635,1.7238,1.6647,1.7046,1.9337,0.0,0.0,0.0,0.0,0.0,0.0,0.0,0.0,1.5716,1.5104,1.5455,1.6843,1.7083,1.7509,1.8111,1.83,1.7716,1.6453,1.5579,1.4409,0.0,0.0,0.0,0.0,0.0,0.0,0.0,0.0,0.0,0.0,0.0,0.0,0.0,0.0,0.0,0.0,0.0,0.0,0.0,0.0,0.0,0.0,0.0,-2.3177,-2.3921,-2.4613,-2.4208,-2.364,-2.3585,-2.3073,0.0,-2.1583,-2.1396,-2.1624,-2.2425,-2.2475,-2.2668,-2.3534,-2.4302,-2.5069,-2.5854,-2.7433,-2.9672,-3.2688,-3.4383,-3.5899,-3.7434,-3.8326,-3.9397,-4.0824,-4.1121,-4.1479,-4.2091,-4.155,-4.1139,-4.102,-4.1564,-4.1864,-4.1917,-4.1666,-4.1507,-4.1426,-4.115,-4.1076,-4.1111,-4.0741,-4.0597,-4.0434,-3.9623,-3.9088,-3.8723,-3.7884,-3.7484,-3.7417,-3.6372,-3.6538,-3.7236,-3.6602,-3.7302,-3.8455,0.0,0.0,0.0,0.0,0.0,0.0,0.0,0.0,0.0,0.0,1.3651,1.4552,1.5499,1.5415,1.5738,0.0,0.0,0.0,0.0,0.0,0.0,0.0,0.0,0.0,1.5034,1.5467,1.586,1.6198,1.754,1.8161,1.8176,1.8896,1.8217,1.6415,1.6139,1.471,0.0,0.0,0.0,0.0,0.0,0.0,0.0,0.0,0.0,0.0,-1.7382,-1.8195,0.0,0.0,0.0,0.0,0.0,0.0,0.0,0.0,-1.8896,-1.9055,-1.986,0.0,-2.1238,-2.0919,-2.1071,-2.1148,0.0,-2.1625,-2.2516,-2.1716,-2.1909,-2.2656,-2.4129,-2.3217,-2.2941,-2.5088,-2.5497,-2.6009,-2.7361,-2.9959,-3.2446,-3.4436,-3.5525,-3.6506,-3.7487,-3.8326,-3.8968,-3.9325,-3.9973,-4.0423,-4.0467,-4.0444,-4.0374,-4.0199,-4.0277,-4.0606,-4.1227,-4.0958,-4.1051,-4.1542,-4.0202,-4.0051,-4.0918,-4.0126,-3.9987,-4.0337,-4.0118,-3.9562,-3.8723,-3.7999,-3.7582,-3.7417,-3.6487,-3.6637,-3.7369,-3.7719,-3.8136,-3.8503,0.0,0.0,0.0,0.0,0.0,0.0,0.0,0.0,0.0,0.0,0.0,0.0,0.0,0.0,0.0,0.0,0.0,0.0,0.0,0.0,0.0,0.0,0.0,1.4776,1.4705,1.5138,1.5333,1.5266,1.6585,1.7362,1.7655,1.8517,1.8268,1.7091,1.6199,1.4719,0.0,0.0,0.0,0.0,0.183,0.0,0.0,0.0,0.0,0.0,-1.6773,-1.7676,0.0,-1.8342,-1.8413,-1.8644,0.0,0.0,0.0,0.0,-1.8431,-1.8624,-1.8999,-1.9731,-2.0343,-2.0018,-2.0223,-2.0393,-2.0,0.0,-2.1076,-2.0619,-2.108,-2.1911,-2.3105,-2.3106,-2.3629,-2.5697,-2.6555,-2.7603,-2.949,-3.1809,-3.3784,-3.5044,-3.5917,-3.672,-3.7505,-3.7987,-3.8397,-3.8772,-3.9258,-3.9672,-3.9896,-3.9783,-3.9586,-3.9414,-3.932,-3.9832,-4.1001,-4.0323,-4.0348,-4.1025,-3.9678,-3.9529,-4.0429,-3.9812,-3.9799,-4.037,-3.9997,-3.936,-3.8606,-3.758,-3.6982,-3.672,-3.5922,-3.5841,-3.6322,-3.7004,-3.7536,-3.7936,0.0,0.0,0.0,0.0,0.0,0.0,0.0,0.0,0.0,0.0,0.0,0.0,0.0,0.0,0.0,0.0,0.0,0.0,0.0,0.0,0.0,0.0,0.0,1.4719,1.4654,1.4741,1.468,1.4478,1.5551,1.6404,1.7032,1.7937,1.8162,1.7738,1.5976,1.4562,0.0,0.0,0.9282,0.5347,-0.0108,0.0,0.0,0.0,0.0,0.0,0.0,0.0,0.0,-1.768,-1.7949,-1.8414,-1.7716,0.0,0.0,0.0,0.0,0.0,-1.9075,-1.9829,-2.0478,-2.0374,-2.0521,-2.0686,-2.0639,-2.0221,-1.9858,-1.9858,-2.042,-2.1171,-2.1984,-2.3247,-2.4644,-2.6201,-2.7663,-2.939,-3.1564,-3.3037,-3.4248,-3.5258,-3.5954,-3.6702,-3.7505,-3.7577,-3.7862,-3.8576,-3.8668,-3.8956,-3.9521,-3.9174,-3.8833,-3.8649,-3.8576,-3.9233,-4.0628,-3.9688,-3.961,-4.0436,-3.9381,-3.9242,-3.9915,-3.9549,-3.9654,-4.0092,-3.935,-3.8719,-3.8204,-3.6898,-3.6169,-3.5826,-3.5131,-3.4965,-3.5148,-3.5893,-3.6605,-3.717,0.0,0.0,0.0,0.0,0.0,0.0,0.0,0.0,0.0,0.0,0.0,0.0,0.0,0.0,0.0,0.0,0.0,0.0,0.0,0.0,0.0,1.4776,1.4622,1.4632,1.4859,1.5349,1.5367,1.4822,1.6829,1.7531,1.7043,1.8401,1.8304,1.6939,1.568,1.4409,1.3192,1.2167,0.8811,0.3888,0.0757,0.0,0.0,0.0,0.0,0.0,0.0,0.0,0.0,-1.6111,-1.6633,-1.7153,-1.6426,0.0,0.0,0.0,0.0,0.0,-1.963,-2.0644,-2.1183,-1.9884,-2.0586,-2.1435,-2.0834,-2.1579,-2.2428,-2.2374,-2.2845,-2.3726,-2.5274,-2.5605,-2.6188,-2.7795,-2.9183,-3.064,-3.2328,-3.3293,-3.4375,-3.5972,-3.6239,-3.6648,-3.7505,-3.7577,-3.763,-3.7755,-3.7864,-3.7936,-3.8025,-3.8132,-3.8078,-3.7864,-3.7846,-3.8275,-3.9126,-3.8851,-3.935,-4.0539,-3.9089,-3.8933,-3.9881,-3.9105,-3.8683,-3.8555,-3.8252,-3.7672,-3.6858,-3.6415,-3.5852,-3.5207,-3.4996,-3.528,-3.5926,-3.6671,-3.6952,-3.6851,0.0,0.0,0.0,0.0,0.0,0.0,0.0,0.0,0.0,0.0,0.0,0.0,0.0,0.0,0.0,0.0,0.0,0.0,0.0,0.0,0.0,1.5479,1.5405,1.5189,1.4804,1.5553,1.5836,1.5555,1.6848,1.7601,1.7832,1.8987,1.8684,1.7072,1.4513,1.2281,1.0279,0.7946,0.3994,-0.085,0.0,0.0,0.0,0.0,0.0,0.0,0.0,0.0,0.0,0.0,-1.6056,-1.7035,-1.6289,0.0,0.0,0.0,0.0,0.0,-1.9217,-2.0371,-2.117,-2.0127,-2.1164,-2.2446,-2.2518,-2.2703,-2.3014,-2.3416,-2.3987,-2.4683,-2.5466,-2.6537,-2.7941,-2.9922,-3.1094,-3.2001,-3.2713,-3.2991,-3.3807,-3.5509,-3.6061,-3.679,-3.813,-3.8255,-3.82,-3.8144,-3.7809,-3.7595,-3.7522,-3.7739,-3.7774,-3.7649,-3.7649,-3.7792,-3.8018,-3.7942,-3.8451,-3.9446,-3.8139,-3.7947,-3.8756,-3.8234,-3.8064,-3.8213,-3.8061,-3.7638,-3.7079,-3.6965,-3.6386,-3.5592,-3.5544,-3.5694,-3.6141,-3.7182,-3.7686,-3.7687,0.0,0.0,0.0,0.0,0.0,0.0,0.0,0.0,0.0,0.0,0.0,0.0,0.0,0.0,0.0,0.0,0.0,0.0,0.0,0.0,1.5038,1.5733,1.6018,1.5828,1.5148,1.5968,1.6214,1.5847,1.6795,1.7751,1.8663,1.9136,1.8668,1.7233,1.3178,1.0233,0.8101,0.4056,-0.0356,-0.4765,0.0,0.0,0.0,0.0,0.0,0.0,0.0,0.0,0.0,0.0,0.0,0.0,0.0,0.0,0.0,-1.763,-1.8038,-1.8731,-1.9002,-1.9988,-2.0891,-2.0608,-2.1735,-2.3143,-2.3913,-2.3561,-2.3338,-2.4324,-2.4929,-2.5403,-2.576,-2.7702,-2.9861,-3.1732,-3.2523,-3.2955,-3.3102,-3.3148,-3.3699,-3.501,-3.599,-3.6986,-3.8148,-3.8415,-3.8467,-3.8374,-3.7879,-3.7577,-3.7449,-3.7631,-3.7667,-3.7613,-3.7613,-3.7577,-3.7466,-3.7334,-3.7648,-3.8386,-3.7532,-3.7306,-3.7773,-3.762,-3.761,-3.7684,-3.758,-3.7347,-3.703,-3.6982,-3.6486,-3.5809,-3.5991,-3.6208,-3.6605,-3.7505,-3.8063,-3.8131,0.0,0.0,0.0,0.0,0.0,0.0,0.0,0.0,0.0,0.0,0.0,0.0,0.0,0.0,0.0,0.0,0.0,0.0,0.0,0.0,1.4541,1.4784,1.5738,1.6317,1.6364,1.6996,1.657,1.5073,1.7291,1.8652,1.9123,1.8385,1.7708,1.6921,1.1976,0.9517,0.8773,0.3338,-0.1324,-0.5166,-0.6454,0.0,0.0,0.0,0.0,0.0,0.0,0.0,0.0,0.0,0.0,0.0,0.0,0.0,-1.7814,-1.7627,-1.8199,-1.9022,-1.9738,-2.0082,-2.0426,-2.1074,-2.1982,-2.2971,-2.3875,-2.3963,-2.426,-2.5823,-2.6123,-2.6561,-2.7994,-3.017,-3.1948,-3.2606,-3.2816,-3.3119,-3.3667,-3.441,-3.4977,-3.5083,-3.6434,-3.7128,-3.6631,-3.7238,-3.7666,-3.7666,-3.7612,-3.7613,-3.7667,-3.7703,-3.7703,-3.7703,-3.7703,-3.7685,-3.7594,-3.741,-3.757,-3.8111,-3.8058,-3.7895,-3.7611,-3.7663,-3.7146,-3.6146,-3.6014,-3.5853,-3.5643,-3.5505,-3.5315,-3.5238,-3.5937,-3.6887,-3.7837,-3.7637,-3.7503,-3.7193,0.0,0.0,0.0,0.0,0.0,0.0,0.0,0.0,0.0,0.0,0.0,0.0,0.0,0.0,0.0,0.0,0.0,0.0,0.0,1.371,1.4272,1.5403,1.6033,1.643,1.6566,1.7247,1.7003,1.5811,1.7691,1.8926,1.9489,1.8696,1.6682,1.3563,0.971,0.5849,0.2028,-0.1076,-0.4664,-0.8308,-0.8799,-1.1079,0.0,0.0,0.0,0.0,0.0,0.0,0.0,0.0,-1.4415,-1.54,-1.5315,-1.6694,-1.8235,-1.7559,-1.8075,-1.895,-1.9146,-2.0346,-2.1518,-2.1399,-2.2677,-2.4125,-2.4613,-2.5066,-2.6004,-2.8112,-2.8051,-2.8095,-2.9583,-3.1038,-3.2181,-3.2713,-3.287,-3.2959,-3.3148,-3.3859,-3.4372,-3.4476,-3.6239,-3.7396,-3.722,-3.7899,-3.8344,-3.8344,-3.7862,-3.7577,-3.7522,-3.7613,-3.7649,-3.7649,-3.7577,-3.7503,-3.741,-3.7241,-3.7267,-3.7409,-3.7409,-3.7288,-3.7037,-3.6894,-3.6509,-3.5975,-3.5745,-3.5583,-3.5525,-3.5746,-3.5568,-3.5171,-3.5711,-3.6455,-3.7105,-3.6963,-3.7264,-3.7625,0.0,0.0,0.0,0.0,0.0,0.0,0.0,0.0,0.0,0.0,0.0,0.0,0.0,0.0,0.0,0.0,0.0,0.0,1.3022,1.3446,1.4204,1.5431,1.6036,1.6283,1.6159,1.6887,1.6816,1.5924,1.7238,1.8251,1.8938,1.8365,1.5823,1.1604,0.7856,0.3241,-0.1904,-0.4842,-0.7796,-1.0523,-1.095,-1.2305,0.0,0.0,0.0,0.0,0.0,0.0,0.0,0.0,-1.4102,-1.5158,-1.5436,-1.6677,-1.7915,-1.747,-1.8198,-1.9111,-1.8806,-2.0321,-2.1914,-2.1774,-2.3325,-2.4987,-2.5423,-2.5914,-2.6908,-2.9094,-2.9148,-2.9296,-3.0772,-3.1506,-3.2084,-3.2616,-3.2805,-3.2909,-3.3093,-3.3804,-3.4335,-3.4387,-3.6257,-3.7469,-3.7274,-3.797,-3.8415,-3.8415,-3.7898,-3.754,-3.7466,-3.754,-3.7577,-3.7577,-3.7466,-3.7392,-3.7334,-3.7185,-3.7069,-3.6987,-3.6948,-3.6829,-3.6702,-3.6402,-3.6174,-3.5975,-3.5684,-3.5701,-3.5879,-3.6178,-3.6219,-3.6171,-3.6092,-3.6467,-3.6934,-3.6792,-3.708,-3.7335,0.0,0.0,0.0,0.0,0.0,0.0,0.0,0.0,0.0,0.0,0.0,0.0,0.0,0.0,0.0,0.0,0.0,0.0,1.3015,1.3769,1.4302,1.4563,1.5605,1.5875,1.522,1.5914,1.5907,1.5108,1.5778,1.651,1.7302,1.7077,1.514,1.1629,0.6645,0.2349,-0.1516,-0.7238,-1.0228,-1.1204,-1.2539,-1.3292,-1.3691,0.0,0.0,0.0,0.0,0.0,0.0,0.0,-1.3833,-1.4015,-1.6359,-1.6817,-1.6673,-1.7394,-1.8645,-1.9637,-1.8985,-1.987,-2.1231,-2.2171,-2.3783,-2.5346,-2.6209,-2.6368,-2.6776,-2.8385,-2.9194,-3.0078,-3.1542,-3.1768,-3.1912,-3.2417,-3.2692,-3.3057,-3.372,-3.462,-3.5187,-3.5101,-3.6595,-3.7255,-3.6399,-3.7094,-3.7577,-3.7613,-3.7577,-3.7577,-3.7577,-3.7577,-3.7577,-3.7577,-3.7466,-3.7392,-3.7392,-3.7185,-3.7069,-3.6987,-3.6869,-3.6748,-3.6702,-3.6402,-3.6174,-3.5975,-3.5861,-3.6124,-3.6569,-3.6505,-3.7233,-3.8234,-3.711,-3.7134,-3.7773,-3.7416,-3.6635,-3.5934,0.0,0.0,0.0,0.0,0.0,0.0,0.0,0.0,0.0,0.0,0.0,0.0,0.0,0.0,0.0,0.0,0.0,0.0,1.1293,1.2157,1.2913,1.3511,1.4625,1.5198,1.5121,1.5295,1.5544,1.5868,1.6067,1.6655,1.7553,1.6808,1.3346,0.7753,0.6114,0.1738,-0.4538,-0.6394,-0.8466,-1.0677,-1.2142,-1.3322,-1.4241,0.0,0.0,0.0,0.0,0.0,0.0,0.0,0.0,0.0,-1.5894,-1.7317,-1.8548,-1.7609,-1.8513,-1.9731,-1.904,-2.036,-2.1993,-2.2317,-2.4395,-2.648,-2.6929,-2.758,-2.8337,-2.9279,-3.0478,-3.1484,-3.1864,-3.276,-3.347,-3.347,-3.4018,-3.4497,-3.4693,-3.5491,-3.5846,-3.5258,-3.6613,-3.7327,-3.6594,-3.7167,-3.7667,-3.7793,-3.7667,-3.7613,-3.7685,-3.7613,-3.754,-3.7466,-3.7429,-3.7337,-3.7185,-3.7069,-3.697,-3.6869,-3.6667,-3.6585,-3.6544,-3.6335,-3.6165,-3.601,-3.6243,-3.6413,-3.6555,-3.69,-3.687,-3.6571,-3.6664,-3.6754,-3.671,-3.6048,-3.605,-3.6358,0.0,0.0,0.0,0.0,0.0,0.0,0.0,0.0,0.0,0.0,0.0,0.0,0.0,0.0,0.0,0.0,0.0,0.0,0.0,1.1706,1.2553,1.319,1.4117,1.4747,1.5045,1.4933,1.5155,1.5727,1.5713,1.6048,1.6634,1.517,1.147,0.5951,0.4149,-0.0279,-0.6432,-0.756,-0.9291,-1.1416,-1.2803,-1.3684,-1.4264,0.0,0.0,0.0,0.0,0.0,0.0,0.0,0.0,0.0,-1.5996,-1.73,-1.8568,-1.7879,-1.8909,-2.0162,-1.9706,-2.1259,-2.3118,-2.3542,-2.5793,-2.8112,-2.9017,-2.9192,-2.9395,-3.0115,-3.0974,-3.1833,-3.2727,-3.3283,-3.3761,-3.4283,-3.4764,-3.519,-3.5528,-3.6043,-3.6328,-3.6096,-3.697,-3.7434,-3.697,-3.7345,-3.7667,-3.7775,-3.7685,-3.7506,-3.7184,-3.7202,-3.6988,-3.6505,-3.6469,-3.6518,-3.6667,-3.6531,-3.6571,-3.6748,-3.6585,-3.6461,-3.6377,-3.6208,-3.6036,-3.5956,-3.6709,-3.6959,-3.6947,-3.7803,-3.7584,-3.6701,-3.7006,-3.6653,-3.5958,-3.5724,-3.5712,-3.588,0.0,0.0,0.0,0.0,0.0,0.0,0.0,0.0,0.0,0.0,0.0,0.0,0.0,0.0,0.0,0.0,0.0,0.0,0.0,0.0,1.2741,1.3224,1.3948,1.4546,1.4973,1.4811,1.4814,1.4992,1.4967,1.501,1.5057,1.2784,0.961,0.566,0.1403,-0.3045,-0.7464,-0.9912,-1.1688,-1.2923,-1.4039,-1.42,-1.3913,-1.5398,0.0,0.0,0.0,0.0,0.0,0.0,0.0,0.0,-1.6622,-1.7099,-1.7565,-1.8193,-1.9528,-2.0775,-2.0673,-2.2272,-2.4226,-2.5262,-2.7477,-2.983,-3.1484,-3.0902,-3.0188,-3.093,-3.1044,-3.1649,-3.3709,-3.3512,-3.3501,-3.487,-3.5102,-3.5403,-3.6185,-3.631,-3.6542,-3.7216,-3.7433,-3.7469,-3.7411,-3.754,-3.7613,-3.7613,-3.7685,-3.7327,-3.647,-3.654,-3.6113,-3.5119,-3.5013,-3.5296,-3.5872,-3.5735,-3.5963,-3.6597,-3.6527,-3.6377,-3.6182,-3.6079,-3.5939,-3.596,-3.7101,-3.7515,-3.7485,-3.8718,-3.8659,-3.7752,-3.7711,-3.6718,-3.5405,-3.5882,-3.5444,-3.4777,0.0,0.0,0.0,0.0,0.0,0.0,0.0,0.0,0.0,0.0,0.0,0.0,0.0,0.0,0.0,0.0,0.0,0.0,0.0,0.0,1.1485,1.2123,1.3822,1.482,1.493,1.492,1.4924,1.4912,1.4753,1.4849,1.5106,1.1799,0.856,0.5299,0.0762,-0.3837,-0.8268,-0.9955,-1.1538,-1.2975,-1.4069,-1.4055,-1.3509,-1.4411,-1.4178,0.0,0.0,0.0,0.0,0.0,0.0,0.0,-1.7509,-1.8416,-1.9125,-1.849,-1.9549,-2.0886,-2.0912,-2.2048,-2.364,-2.5252,-2.7539,-2.9533,-3.0014,-3.0787,-3.144,-3.1743,-3.2265,-3.2811,-3.319,-3.4607,-3.5559,-3.5223,-3.5652,-3.6078,-3.6346,-3.5864,-3.5757,-3.6524,-3.6649,-3.6899,-3.7487,-3.7577,-3.7613,-3.7667,-3.7649,-3.731,-3.6594,-3.6487,-3.6007,-3.5119,-3.5013,-3.4995,-3.4971,-3.5339,-3.5605,-3.5677,-3.5958,-3.6062,-3.6019,-3.6019,-3.6168,-3.6443,-3.6592,-3.6582,-3.6536,-3.7201,-3.6931,-3.617,-3.6482,-3.6015,-3.5033,-3.4474,-3.401,-3.3757,0.0,0.0,0.0,0.0,0.0,0.0,0.0,0.0,0.0,0.0,0.0,0.0,0.0,0.0,0.0,0.0,0.0,0.0,0.0,0.0,1.1095,1.2307,1.3634,1.452,1.4944,1.361,1.3552,1.489,1.1929,1.1348,1.291,0.8313,0.488,0.2389,-0.1977,-0.583,-0.9028,-1.004,-1.1445,-1.3063,-1.3658,-1.3823,-1.3724,-1.4603,-1.4346,-1.3763,-1.5469,0.0,0.0,0.0,0.0,0.0,0.0,0.0,-1.9003,-1.8843,-1.9765,-2.089,-2.108,-2.2554,-2.4681,-2.7222,-2.8945,-3.023,-3.1052,-3.181,-3.2402,-3.2511,-3.2834,-3.3198,-3.353,-3.4503,-3.5273,-3.5221,-3.5509,-3.5741,-3.5828,-3.5471,-3.533,-3.5722,-3.5811,-3.5989,-3.6399,-3.6792,-3.7041,-3.713,-3.7453,-3.731,-3.6541,-3.613,-3.5489,-3.4533,-3.4074,-3.3952,-3.4108,-3.4673,-3.5131,-3.5456,-3.5914,-3.6088,-3.5975,-3.5888,-3.5887,-3.6081,-3.6293,-3.63,-3.6237,-3.6703,-3.6403,-3.566,-3.6137,-3.5606,-3.4516,-3.389,-3.3694,-3.3594,0.0,0.0,0.0,0.0,0.0,0.0,0.0,0.0,0.0,0.0,0.0,0.0,0.0,0.0,0.0,0.0,0.0,0.0,0.0,0.0,0.0,1.2557,1.3402,1.3959,1.4157,1.1833,1.1593,1.3571,0.8253,0.6779,0.8873,0.4067,0.0946,-0.0774,-0.4773,-0.7654,-0.9567,-1.0023,-1.1275,-1.2945,-1.3118,-1.3343,-1.3705,-1.4694,-1.4433,-1.3848,-1.6132,-1.6519,-1.6219,-1.7784,0.0,0.0,0.0,0.0,-1.8388,-1.8966,-1.9821,-2.0673,-2.1078,-2.3179,-2.5974,-2.9052,-3.0231,-3.1064,-3.2509,-3.2921,-3.3042,-3.3135,-3.318,-3.3387,-3.3906,-3.4145,-3.4418,-3.4936,-3.4957,-3.494,-3.4991,-3.49,-3.4831,-3.4922,-3.4975,-3.5114,-3.5382,-3.5882,-3.6274,-3.6468,-3.7095,-3.7095,-3.6238,-3.5808,-3.5096,-3.4039,-3.3225,-3.3017,-3.3494,-3.394,-3.454,-3.5288,-3.5928,-3.6148,-3.5905,-3.5667,-3.5549,-3.5525,-3.6008,-3.6117,-3.6006,-3.6356,-3.6056,-3.5413,-3.5707,-3.5101,-3.3984,-3.3617,-3.3489,-3.3414,0.0,0.0,0.0,0.0,0.0,0.0,0.0,0.0,0.0,0.0,0.0,0.0,0.0,0.0,0.0,0.0,0.0,0.0,0.9429,0.0,0.0,1.1104,1.3262,1.3311,1.0803,1.0702,0.9876,0.8231,0.5511,0.3584,0.2412,0.0901,-0.0219,-0.1183,-0.4813,-0.7475,-0.9282,-0.9675,-1.0787,-1.2262,-1.2637,-1.2429,-1.2036,-1.3037,-1.3042,-1.2719,-1.445,-1.5436,-1.6061,-1.6909,-1.7711,0.0,0.0,0.0,-1.8538,-1.8461,-1.9042,-1.9899,-2.0512,-2.3012,-2.5913,-2.7816,-2.9478,-3.0892,-3.1888,-3.2637,-3.3135,-3.3262,-3.3723,-3.3916,-3.3279,-3.4267,-3.5019,-3.4347,-3.4225,-3.4225,-3.4258,-3.3651,-3.3455,-3.4135,-3.4258,-3.4775,-3.6114,-3.5721,-3.565,-3.6381,-3.6524,-3.6203,-3.54,-3.5865,-3.5794,-3.4959,-3.404,-3.3512,-3.3404,-3.3382,-3.3685,-3.4288,-3.5479,-3.5844,-3.5583,-3.5537,-3.5492,-3.5492,-3.5345,-3.5191,-3.5048,-3.4906,-3.4677,-3.4463,-3.4156,-3.3922,-3.363,-3.2819,-3.2231,-3.1886,0.0,0.0,0.0,0.0,0.0,0.0,0.0,0.0,0.0,0.0,0.0,0.0,0.0,0.0,0.0,0.962,0.9557,0.9473,0.9403,1.004,1.0547,1.0848,1.1965,1.1844,1.0253,0.8881,0.7857,0.7199,0.2996,0.0828,0.0594,-0.1903,-0.3423,-0.4167,-0.623,-0.8069,-0.9649,-0.9515,-1.0484,-1.2102,-1.1921,-1.2657,-1.3774,-1.322,-1.3548,-1.4416,-1.4708,-1.5087,-1.5626,-1.6796,-1.7404,-1.7733,-1.8125,0.0,0.0,0.0,-1.8822,-2.0043,-2.2076,-2.3691,-2.5438,-2.7946,-2.9242,-3.0302,-3.1667,-3.2224,-3.2613,-3.3273,-3.3545,-3.3499,-3.3127,-3.3584,-3.3862,-3.3425,-3.3387,-3.3419,-3.3372,-3.3069,-3.2962,-3.3235,-3.3695,-3.4102,-3.4351,-3.4884,-3.5186,-3.5164,-3.5523,-3.5544,-3.517,-3.5029,-3.4764,-3.4323,-3.3917,-3.3371,-3.2738,-3.3885,-3.4549,-3.4714,-3.5095,-3.5205,-3.5064,-3.5199,-3.5291,-3.5274,-3.4701,-3.4612,-3.4738,-3.374,-3.3499,-3.3632,-3.3253,-3.3152,-3.3072,-3.2085,-3.169,-3.1566,0.0,0.0,0.0,0.0,0.0,0.0,0.0,0.0,0.0,0.0,0.0,0.0,0.0,0.0,0.0,0.0,0.9516,0.9482,0.9457,0.9341,0.9754,1.0837,1.1013,1.0491,0.9213,0.7278,0.5855,0.4964,0.0702,-0.1203,-0.0917,-0.3903,-0.5794,-0.6673,-0.766,-0.8802,-0.999,-0.9793,-1.07,-1.2239,-1.208,-1.3249,-1.5017,-1.4333,-1.4969,-1.6165,-1.5436,-1.552,-1.6077,-1.6747,-1.7218,-1.7563,-1.8096,-1.831,0.0,0.0,0.0,-1.9786,-2.2297,-2.3315,-2.4356,-2.7406,-2.8639,-2.9569,-3.129,-3.1678,-3.1971,-3.298,-3.2979,-3.2931,-3.3129,-3.3042,-3.2902,-3.2805,-3.287,-3.2852,-3.2755,-3.258,-3.2509,-3.2621,-3.3186,-3.3521,-3.3395,-3.4298,-3.4741,-3.4467,-3.4722,-3.4902,-3.4799,-3.4409,-3.4127,-3.397,-3.3723,-3.3371,-3.2773,-3.4561,-3.5151,-3.4547,-3.4882,-3.4856,-3.459,-3.4956,-3.5088,-3.5024,-3.4413,-3.427,-3.4329,-3.3088,-3.2702,-3.2805,-3.2415,-3.2478,-3.2592,-3.1575,-3.142,-3.155,0.0,0.0,0.0,0.0,0.0,0.0,0.0,0.0,0.0,0.0,0.0,0.0,1.0162,0.9631,0.9271,0.9394,0.9465,0.9525,0.9593,0.9181,0.9478,1.0748,1.1167,0.0,0.6212,0.6357,0.3978,-0.1152,-0.1252,-0.2142,-0.3805,-0.4622,-0.5829,-0.7321,-0.8648,-0.9505,-1.0056,-1.0864,-1.1764,-1.2759,-1.3813,-1.4031,-1.396,-1.6348,-1.7139,-1.6851,-1.6181,-1.6972,-1.8105,-1.6659,-1.7204,-1.8512,-1.8428,-1.8467,-1.8547,0.0,0.0,0.0,-1.9408,-2.0732,-2.2481,-2.519,-2.7077,-2.8711,-3.0463,-3.0964,-3.1292,-3.2089,-3.2213,-3.239,-3.3166,-3.3122,-3.2965,-3.2805,-3.287,-3.2852,-3.2639,-3.2004,-3.1859,-3.2684,-3.2725,-3.3277,-3.4834,-3.4372,-3.4283,-3.4994,-3.4476,-3.4118,-3.3981,-3.4605,-3.4853,-3.4672,-3.3843,-3.3681,-3.4265,-3.504,-3.453,-3.2764,-3.4899,-3.5348,-3.4253,-3.4956,-3.5152,-3.4899,-3.4754,-3.4263,-3.3606,-3.3241,-3.2579,-3.1838,-3.1549,-3.1914,-3.2424,-3.1526,-3.1371,-3.147,0.0,0.0,0.0,0.0,0.0,0.0,0.0,0.0,0.0,0.0,0.0,0.0,0.0,0.9706,0.9464,0.9281,0.9367,0.9448,0.9466,0.8701,0.8517,0.911,0.8812,0.7395,0.4734,0.4652,0.2698,-0.129,-0.1263,-0.2154,-0.396,-0.4661,-0.5733,-0.7137,-0.8817,-0.9672,-0.995,-1.113,-1.1736,-1.2048,-1.3316,-1.4751,-1.6143,-1.6427,-1.7526,-1.8773,-1.7633,-1.7734,-1.8351,-1.8258,-1.8393,-1.8649,-1.8958,-1.8845,-1.8581,-1.8465,-1.7942,-1.7861,-1.9782,-2.0284,-2.1016,-2.4106,-2.578,-2.7121,-2.8865,-2.9674,-3.0323,-3.1311,-3.1779,-3.1971,-3.1725,-3.2409,-3.2965,-3.2805,-3.2378,-3.2186,-3.2486,-3.1853,-3.1706,-3.255,-3.3032,-3.3368,-3.3472,-3.3718,-3.3771,-3.3626,-3.3392,-3.3199,-3.3064,-3.333,-3.3405,-3.3213,-3.3352,-3.3661,-3.4293,-3.3891,-3.3653,-3.3425,-3.4432,-3.4688,-3.4292,-3.4818,-3.4681,-3.4046,-3.3935,-3.3693,-3.3381,-3.2201,-3.1433,-3.1082,-3.0847,-3.0911,-3.1118,-3.0815,-3.0752,-3.083,0.0,0.0,0.0,0.0,0.0,0.0,0.0,0.0,0.0,1.0145,0.0,0.0,0.0,0.0,0.995,0.9617,0.9675,0.9465,0.8898,0.8165,0.7959,0.8374,0.7779,0.6409,0.4212,0.393,0.1912,-0.1969,-0.1796,-0.2506,-0.4071,-0.4763,-0.574,-0.6924,-0.8611,-0.9821,-1.0721,-1.1851,-1.2394,-1.2629,-1.4018,-1.5754,-1.7584,-1.7987,-1.9349,-2.0884,-1.9789,-1.9716,-2.0102,-2.0148,-1.9974,-1.9752,-1.9826,-1.9241,-1.8502,-1.8483,-1.7788,-1.7463,-1.9458,-1.958,-1.993,-2.3271,-2.4604,-2.56,-2.7561,-2.8388,-2.9044,-2.998,-3.0739,-3.1114,-3.0851,-3.1583,-3.2268,-3.2378,-3.1969,-3.1746,-3.2115,-3.1235,-3.0879,-3.1738,-3.2502,-3.2857,-3.2608,-3.3314,-3.3613,-3.3151,-3.29,-3.274,-3.2573,-3.2606,-3.2523,-3.2319,-3.2947,-3.3306,-3.3398,-3.3279,-3.3321,-3.3482,-3.4075,-3.4347,-3.4292,-3.4708,-3.457,-3.395,-3.3514,-3.3074,-3.252,-3.1316,-3.0599,-3.0266,-3.0067,-3.0085,-3.0323,-3.0132,-3.021,-3.0414,0.0,0.0,0.0,0.0,0.0,0.0,0.0,0.0,1.0897,1.1329,0.0,0.0,0.0,0.0,0.0,1.0438,1.0313,0.9554,0.7928,0.7572,0.7798,0.866,0.8211,0.6831,0.4457,0.4173,0.1521,-0.369,-0.3017,-0.3306,-0.4431,-0.5003,-0.5826,-0.6851,-0.8043,-0.9971,-1.2319,-1.297,-1.3736,-1.4624,-1.6063,-1.7074,-1.8013,-2.1166,-2.2637,-2.2979,-2.266,-2.3044,-2.3532,-2.2263,-2.1917,-2.1908,-2.0992,-1.966,-1.842,-1.8385,-1.7785,-1.7275,0.0,0.0,0.0,-2.2522,-2.3482,-2.424,-2.6579,-2.7144,-2.7403,-2.8162,-2.8972,-2.9764,-3.0556,-3.0686,-3.0885,-3.1435,-3.1573,-3.1591,-3.1523,-3.0128,-2.9402,-3.0198,-3.1013,-3.1759,-3.2401,-3.3246,-3.3723,-3.3671,-3.3117,-3.2707,-3.2507,-3.2557,-3.2438,-3.2108,-3.2748,-3.2654,-3.18,-3.33,-3.3562,-3.2622,-3.3863,-3.4374,-3.4225,-3.4662,-3.4802,-3.4592,-3.3582,-3.2378,-3.103,-3.0714,-3.0158,-2.9473,-2.9183,-2.9548,-3.0117,-2.9513,-2.9826,-3.0398,0.0,0.0,0.0,0.0,0.0,0.0,1.1651,1.1751,1.1712,0.0,0.0,0.0,1.151,1.1155,1.087,1.0692,0.9825,0.9011,0.835,0.6574,0.5763,0.6257,0.4936,0.3563,0.2218,0.1229,-0.0668,-0.3488,-0.3165,-0.3585,-0.4765,-0.5117,-0.5945,-0.7132,-0.8057,-0.9542,-1.1407,-1.2086,-1.306,-1.4254,-1.5352,-1.7171,-1.937,-2.1052,-2.257,-2.3946,-2.5024,-2.5023,-2.4528,-2.4856,-2.4274,-2.3144,-2.1278,-1.9938,-1.8949,-1.8464,-1.7788,-1.7248,-1.7533,0.0,0.0,0.0,0.0,0.0,-2.4235,-2.4649,-2.5044,-2.6453,-2.7277,-2.779,-2.8005,-2.9462,-3.0475,-3.0012,-2.9864,-3.0224,-3.1331,-3.0066,-2.9359,-3.026,-3.1044,-3.1579,-3.1759,-3.2433,-3.2858,-3.2824,-3.2664,-3.2574,-3.2489,-3.2387,-3.2197,-3.1984,-3.2156,-3.2063,-3.1671,-3.2461,-3.2968,-3.3185,-3.3295,-3.3874,-3.4835,-3.4253,-3.3573,-3.2878,-3.2604,-3.157,-3.0109,-3.0459,-3.0112,-2.935,-2.9183,-2.9201,-2.939,-2.9339,-2.9478,-2.9774,0.0,0.0,0.0,0.0,0.0,1.3247,1.2229,1.2417,1.2513,0.0,0.0,0.0,1.192,1.1755,1.1596,1.1391,1.0118,0.8921,0.7968,0.6349,0.52,0.4698,0.3802,0.2487,0.0724,-0.0504,-0.2328,-0.483,-0.4405,-0.4688,-0.5652,-0.5746,-0.6222,-0.7038,-0.7812,-0.9122,-1.0791,-1.0947,-1.2196,-1.4199,-1.6006,-1.7988,-2.0067,-2.2213,-2.3866,-2.5263,-2.6589,-2.6944,-2.6722,-2.655,-2.5604,-2.4066,-2.1774,-2.0767,-2.0102,-1.8683,-1.7994,-1.7722,-1.7835,-1.7627,-1.7859,-1.9822,0.0,0.0,-2.3594,-2.3822,-2.3884,-2.5201,-2.6297,-2.6996,-2.6952,-2.811,-2.9126,-2.9312,-2.8645,-2.8694,-3.0396,-2.972,-2.9142,-2.9373,-3.0353,-3.0963,-3.0835,-3.1522,-3.207,-3.237,-3.2439,-3.2457,-3.2457,-3.2214,-3.202,-3.1894,-3.1821,-3.1691,-3.1559,-3.181,-3.2229,-3.2849,-3.251,-3.3145,-3.4512,-3.3442,-3.2798,-3.2557,-3.1878,-3.1027,-3.0132,-3.0124,-2.984,-2.935,-2.9167,-2.9075,-2.9121,-2.9305,-2.9412,-2.9518,0.0,0.0,1.431,1.3183,1.3711,1.3992,1.3221,1.3107,1.3258,0.0,1.3007,1.2553,1.2664,1.2659,1.2479,1.2094,1.0673,0.9,0.7117,0.6379,0.5358,0.3836,0.3765,0.2537,-0.0059,-0.1382,-0.3568,-0.671,-0.6066,-0.6112,-0.6825,-0.6691,-0.6725,-0.6871,-0.7627,-0.8871,-1.0377,-0.9985,-1.1481,-1.4357,-1.7128,-1.8984,-2.0448,-2.3891,-2.5762,-2.6634,-2.7513,-2.8509,-2.9127,-2.7486,-2.6193,-2.4815,-2.2557,-2.1982,-2.1651,-1.9204,-1.8621,-1.8793,-1.8735,-1.8319,-1.8534,-2.1348,-2.1081,0.0,-2.3766,-2.3738,-2.3353,-2.4147,-2.544,-2.6445,-2.6463,-2.6623,-2.7237,-2.8734,-2.7723,-2.7348,-2.9144,-2.9212,-2.8805,-2.8113,-2.929,-3.0101,-2.9831,-3.0565,-3.1354,-3.2039,-3.2266,-3.2354,-3.2354,-3.2055,-3.1894,-3.1858,-3.1605,-3.1422,-3.1359,-3.1065,-3.1263,-3.1933,-3.1532,-3.2139,-3.3594,-3.2409,-3.2284,-3.2868,-3.1352,-3.0617,-3.0489,-2.9758,-2.9473,-2.9473,-2.9183,-2.9074,-2.9027,-2.935,-2.9425,-2.9451,1.5163,1.4437,1.3914,1.4743,1.4031,1.3444,1.3697,1.3724,1.3735,1.378,1.3351,1.3097,1.3231,1.2986,1.2418,1.1333,0.993,0.8297,0.6408,0.508,0.413,0.3577,0.1897,0.0781,0.0381,-0.2232,-0.4381,-0.6092,-0.6037,-0.6574,-0.7587,-0.7611,-0.7646,-0.7704,-0.8496,-0.9193,-0.9843,-1.0753,-1.2325,-1.4383,-1.5889,-1.8376,-2.1447,-2.3767,-2.5721,-2.737,-2.8431,-2.8733,-2.8472,-2.7592,-2.6674,-2.5633,-2.3957,-2.3536,-2.3137,-2.0808,-2.0673,-2.103,-1.9811,-1.985,-2.0262,-2.0352,-2.0983,0.0,-2.2445,-2.1963,-2.16,-2.2347,-2.2711,-2.3116,-2.3795,-2.4943,-2.5897,-2.6295,-2.6641,-2.7477,-2.9144,-2.8721,-2.8202,-2.8172,-2.8963,-2.9426,-2.9271,-2.992,-3.0582,-3.1253,-3.1847,-3.2108,-3.1984,-3.1948,-3.1839,-3.1654,-3.1053,-3.0597,-3.037,-2.9589,-2.9727,-3.0792,-2.9963,-3.0685,-3.2656,-3.1599,-3.1156,-3.1239,-3.0826,-3.0238,-2.9571,-2.9398,-2.935,-2.9305,-2.9167,-2.8819,-2.8465,-2.9098,-2.909,-2.8865,1.4789,1.4662,1.4526,1.4602,1.4424,1.4244,1.4154,1.4183,1.4263,1.4506,1.4364,1.4062,1.3552,1.3136,1.2448,1.1344,0.9632,0.802,0.6632,0.5083,0.3823,0.2932,0.1386,0.0024,-0.1071,-0.3657,-0.5734,-0.7246,-0.7474,-0.8011,-0.8792,-0.8377,-0.8266,-0.8378,-0.8739,-0.9337,-1.0101,-1.0778,-1.2228,-1.4328,-1.6815,-1.9375,-2.2008,-2.4616,-2.6595,-2.7964,-2.8311,-2.8135,-2.7788,-2.838,-2.7722,-2.6385,-2.4908,-2.4819,-2.4721,-2.1955,-2.1849,-2.2277,-2.0753,-2.065,-2.1039,-2.148,-2.1503,0.0,0.0,-2.2295,-2.1627,-2.2382,-2.2832,-2.3095,-2.3109,-2.4101,-2.5042,-2.5526,-2.587,-2.671,-2.8472,-2.8599,-2.8399,-2.8085,-2.8676,-2.9047,-2.886,-2.9166,-2.963,-3.023,-3.0612,-3.0785,-3.0715,-3.0644,-3.0573,-3.0501,-3.0052,-2.9666,-2.9404,-2.8883,-2.8982,-2.9732,-2.9205,-2.9843,-3.1521,-3.0534,-3.0314,-3.0651,-3.0144,-2.9793,-2.9502,-2.935,-2.9396,-2.9457,-2.9213,-2.9007,-2.8873,-2.9268,-2.9233,-2.9127,1.41,1.4716,1.5064,1.4172,1.4711,1.5111,1.463,1.4586,1.4847,1.5404,1.5376,1.4983,1.412,1.3637,1.2817,1.1455,0.9807,0.8224,0.6805,0.5341,0.3865,0.2399,0.1266,-0.036,-0.2504,-0.4674,-0.6581,-0.8216,-0.855,-0.9094,-0.9805,-0.8909,-0.8645,-0.8937,-0.9083,-0.9706,-1.0606,-1.0966,-1.2459,-1.4825,-1.8209,-2.0238,-2.1605,-2.4867,-2.6907,-2.8027,-2.8262,-2.7862,-2.7466,-2.9018,-2.8548,-2.702,-2.5715,-2.5947,-2.6149,-2.3293,-2.314,-2.3612,-2.2286,-2.1896,-2.2139,-2.3259,-2.26,-2.2125,0.0,0.0,0.0,-2.273,-2.335,-2.3595,-2.2898,-2.335,-2.4085,-2.498,-2.4963,-2.5427,-2.7045,-2.7853,-2.8164,-2.7924,-2.8358,-2.8605,-2.8432,-2.8369,-2.8603,-2.923,-2.9248,-2.9317,-2.9438,-2.9368,-2.9315,-2.9315,-2.9021,-2.8721,-2.8461,-2.8165,-2.8262,-2.8788,-2.8621,-2.9237,-3.044,-2.9651,-2.9669,-3.0257,-2.9559,-2.935,-2.9531,-2.9207,-2.9284,-2.9592,-2.9116,-2.9069,-2.931,-2.931,-2.931,-2.9387,1.4382,1.4354,1.4529,1.4726,1.4529,1.4501,1.502,1.5107,1.536,1.5994,1.5613,1.5386,1.5614,1.5276,1.3877,1.1034,1.0727,0.9265,0.5889,0.4985,0.3955,0.2544,0.0725,-0.0815,-0.2055,-0.4016,-0.5614,-0.6821,-0.7153,-0.82,-0.988,-0.8919,-0.8825,-0.9455,-1.0406,-1.0877,-1.1033,-1.242,-1.4464,-1.6963,-1.8771,-1.928,-1.9232,-2.2469,-2.4935,-2.6956,-2.94,-2.9351,-2.8132,-2.8583,-2.8146,-2.7251,-2.6551,-2.6895,-2.7245,-2.5551,-2.5712,-2.6216,-2.5443,-2.5118,-2.49,-2.4481,-2.4627,-2.4568,-2.3412,0.0,-2.2688,-2.2,0.0,-2.1982,-2.1927,0.0,0.0,-2.3235,-2.3298,-2.3595,-2.4567,-2.525,-2.6166,-2.7648,-2.7848,-2.7812,-2.7709,-2.7556,-2.7728,-2.8372,-2.8322,-2.8579,-2.9263,-2.9315,-2.9208,-2.9047,-2.8403,-2.787,-2.7564,-2.6697,-2.682,-2.7924,-2.7736,-2.834,-2.963,-2.9382,-2.9307,-2.9248,-2.9169,-2.9059,-2.895,-2.8458,-2.8659,-2.9287,-2.8561,-2.8471,-2.8705,-2.8586,-2.8586,-2.8742,1.495,1.4892,1.495,1.5136,1.5007,1.492,1.5209,1.5709,1.6099,1.6141,1.6541,1.631,1.5,1.4457,1.3071,1.031,0.9669,0.8317,0.5728,0.5122,0.3958,0.1841,0.0339,-0.1251,-0.2951,-0.5185,-0.6559,-0.6951,-0.7789,-0.8573,-0.9292,-0.8717,-0.9036,-1.0162,-1.0799,-1.1441,-1.2117,-1.322,-1.4527,-1.5974,-1.7936,-1.8701,-1.91,-2.3169,-2.5469,-2.6961,-2.9941,-2.9812,-2.8492,-2.992,-2.9366,-2.8083,-2.8331,-2.8102,-2.7637,-2.6986,-2.6816,-2.6703,-2.6009,-2.5745,-2.5561,-2.5173,-2.4944,-2.4602,-2.3867,-2.3309,-2.284,-2.2476,0.0,0.0,0.0,0.0,0.0,0.0,-2.3387,-2.3832,-2.4225,-2.448,-2.5065,-2.6216,-2.6282,-2.64,-2.6765,-2.6605,-2.6605,-2.6899,-2.6737,-2.6808,-2.7181,-2.7521,-2.7654,-2.7619,-2.7177,-2.6833,-2.6524,-2.6138,-2.6526,-2.7607,-2.7515,-2.8083,-2.9259,-2.874,-2.8651,-2.8873,-2.8149,-2.8068,-2.8367,-2.7794,-2.7842,-2.8281,-2.7908,-2.8334,-2.9203,-2.9099,-2.9054,-2.9147,1.5294,1.5276,1.5298,1.5299,1.5254,1.5238,1.5238,1.5904,1.6353,1.6185,1.6956,1.6775,1.4708,1.4238,1.291,1.0069,0.9205,0.7945,0.5783,0.5351,0.391,0.1043,-0.0338,-0.1933,-0.3853,-0.5956,-0.7106,-0.7268,-0.8145,-0.8729,-0.9083,-0.8657,-0.9123,-1.034,-1.1003,-1.1913,-1.2975,-1.404,-1.5224,-1.6531,-1.8334,-1.9987,-2.1714,-2.5013,-2.6828,-2.8029,-3.0921,-3.0646,-2.9214,-3.1386,-3.0646,-2.8984,-2.9913,-2.9376,-2.8358,-2.8117,-2.7964,-2.7627,-2.6677,-2.657,-2.6517,-2.5756,-2.5103,-2.454,-2.4024,-2.3545,-2.3232,-2.3232,-2.3328,0.0,0.0,0.0,-2.3163,-2.3215,0.0,-2.3824,-2.3936,-2.3702,-2.3877,-2.4801,-2.5032,-2.5294,-2.5789,-2.5489,-2.5333,-2.5507,-2.515,-2.5154,-2.5592,-2.5967,-2.6267,-2.6468,-2.6347,-2.6134,-2.5844,-2.5844,-2.6276,-2.7169,-2.7102,-2.7572,-2.8507,-2.7881,-2.7964,-2.8436,-2.7384,-2.7331,-2.7987,-2.7162,-2.7121,-2.7458,-2.7224,-2.8051,-2.9392,-2.9259,-2.9342,-2.9473,1.5174,1.5214,1.5238,1.5043,1.5013,1.5013,1.5013,1.5374,1.5799,1.6246,1.6506,1.6353,1.5544,1.5628,1.4279,1.0681,1.0287,0.8929,0.5898,0.5588,0.3883,0.0285,-0.1436,-0.2968,-0.4355,-0.5533,-0.6542,-0.7395,-0.7432,-0.8179,-0.9555,-0.8909,-0.8919,-0.961,-1.1175,-1.235,-1.3302,-1.5085,-1.7577,-2.037,-2.1008,-2.3904,-2.7816,-2.7684,-2.8629,-3.0332,-3.2753,-3.2217,-3.0614,-3.2498,-3.1602,-2.9831,-3.0847,-3.0598,-2.9808,-2.9149,-2.9541,-2.988,-2.8408,-2.8504,-2.8464,-2.626,-2.5535,-2.498,-2.3488,-2.3606,-2.4068,-2.4068,-2.4576,-2.5005,-2.4902,-2.4281,-2.3826,-2.4041,-2.3309,0.0,0.0,-2.2302,-2.2314,-2.3759,-2.4511,-2.4905,-2.4834,-2.412,-2.3925,-2.4489,-2.3762,-2.3905,-2.533,-2.5297,-2.5528,-2.6187,-2.622,-2.6043,-2.5701,-2.5701,-2.594,-2.6342,-2.6342,-2.656,-2.6957,-2.6942,-2.7214,-2.7703,-2.7149,-2.7287,-2.7821,-2.6667,-2.6618,-2.7169,-2.6566,-2.7297,-2.8608,-2.849,-2.8894,-2.9473,1.5453,1.5415,1.5492,1.5638,1.5595,1.5714,1.6248,1.6665,1.6809,1.6481,1.654,1.5837,1.3806,1.324,1.2042,0.9641,0.9,0.7727,0.5309,0.4593,0.2744,-0.0603,-0.2156,-0.3862,-0.5802,-0.6746,-0.7327,-0.7531,-0.7697,-0.8203,-0.8992,-0.8581,-0.9497,-1.1507,-1.1965,-1.3118,-1.4823,-1.6311,-1.7817,-1.943,-2.2299,-2.5691,-2.8986,-2.854,-2.9328,-3.0926,-3.2944,-3.2855,-3.2029,-3.3257,-3.2619,-3.1342,-3.169,-3.1023,-3.017,-3.0448,-3.0423,-3.0092,-2.9089,-2.8982,-2.8705,-2.6843,-2.5941,-2.5235,-2.4094,-2.3981,-2.4138,-2.4102,-2.4667,-2.5114,-2.5034,-2.481,-2.4538,-2.4162,-2.3876,-2.3188,0.0,-2.0651,-2.0192,-2.0666,-2.2243,-2.3471,-2.385,-2.4032,-2.4177,-2.4303,-2.3961,-2.398,-2.4496,-2.4778,-2.5055,-2.5283,-2.5615,-2.5712,-2.5492,-2.5454,-2.5972,-2.7105,-2.6493,-2.6709,-2.7523,-2.6569,-2.6364,-2.6777,-2.5777,-2.5753,-2.6373,-2.5683,-2.5632,-2.5975,-2.6222,-2.7001,-2.8043,-2.8227,-2.8822,-2.9409,1.5402,1.5575,1.5826,1.5926,1.6152,1.6323,1.635,1.7069,1.7182,1.6056,1.6142,1.5384,1.2898,1.2101,1.0916,0.8863,0.7903,0.653,0.4393,0.2884,0.0758,-0.2025,-0.4065,-0.5867,-0.7401,-0.8286,-0.8747,-0.8798,-0.9131,-0.9425,-0.9689,-0.9571,-1.05,-1.2314,-1.2598,-1.3953,-1.6121,-1.7344,-1.8718,-2.0412,-2.3856,-2.7109,-2.9895,-2.9895,-3.0706,-3.2023,-3.3439,-3.3359,-3.273,-3.3642,-3.3135,-3.2142,-3.2403,-3.1794,-3.1014,-3.1124,-3.112,-3.0829,-2.9766,-2.9513,-2.9172,-2.7529,-2.6531,-2.5728,-2.4831,-2.4812,-2.4968,-2.4885,-2.5466,-2.5947,-2.5846,-2.5621,-2.523,-2.4597,-2.4249,-2.3215,0.0,-1.978,-1.9241,-1.9474,-2.0994,-2.2201,-2.2535,-2.2967,-2.3248,-2.336,-2.2988,-2.3109,-2.3901,-2.4179,-2.4531,-2.498,-2.5357,-2.5432,-2.5278,-2.5278,-2.5703,-2.6541,-2.6029,-2.6119,-2.6682,-2.5706,-2.5579,-2.5964,-2.4978,-2.4994,-2.5712,-2.5266,-2.5217,-2.5365,-2.5798,-2.6543,-2.7421,-2.8067,-2.8589,-2.8905,1.4961,1.554,1.6119,1.5829,1.6533,1.6726,1.5466,1.6521,1.6831,1.5084,1.5355,1.4929,1.2904,1.2176,1.0879,0.8501,0.709,0.5417,0.3218,0.0616,-0.1767,-0.3851,-0.6978,-0.879,-0.9099,-0.996,-1.0645,-1.1103,-1.142,-1.1556,-1.1595,-1.1653,-1.1814,-1.2065,-1.3101,-1.4858,-1.7116,-1.815,-2.0377,-2.335,-2.5719,-2.8272,-3.0759,-3.1625,-3.2606,-3.3609,-3.4303,-3.3752,-3.2872,-3.3773,-3.3246,-3.2247,-3.2925,-3.2773,-3.2213,-3.1237,-3.162,-3.2055,-3.0477,-3.017,-2.988,-2.8382,-2.7366,-2.6518,-2.5752,-2.6061,-2.6516,-2.6434,-2.6983,-2.7428,-2.7382,-2.6678,-2.5897,-2.5299,-2.4309,-2.2856,-2.0722,-1.9681,-1.9423,-2.0057,-2.0738,-2.115,-2.1086,-2.1049,-2.1278,-2.1832,-2.1068,-2.1491,-2.3538,-2.35,-2.3974,-2.5271,-2.5346,-2.5278,-2.5005,-2.5201,-2.5155,-2.4869,-2.4942,-2.4838,-2.4544,-2.4513,-2.4828,-2.533,-2.4818,-2.5045,-2.5743,-2.5433,-2.5317,-2.5394,-2.5394,-2.5921,-2.6783,-2.7876,-2.8151,-2.7952,1.4377,1.4769,1.5303,1.5407,1.5443,1.5596,1.6038,1.581,1.5622,1.5748,1.4935,1.3776,1.2387,1.0866,0.9366,0.7976,0.6558,0.4772,0.2591,0.0421,-0.2007,-0.4699,-0.6829,-0.873,-1.0365,-1.0409,-1.1092,-1.2496,-1.1454,-1.16,-1.2895,-1.2038,-1.2359,-1.3713,-1.4087,-1.5632,-1.8054,-1.9406,-2.2079,-2.5478,-2.6897,-2.9059,-3.143,-3.1639,-3.3071,-3.4981,-3.5222,-3.4873,-3.4274,-3.402,-3.3477,-3.2763,-3.2347,-3.2229,-3.2126,-3.1882,-3.2004,-3.2039,-3.1192,-3.0994,-3.0797,-2.992,-2.9029,-2.8323,-2.8052,-2.8084,-2.815,-2.8018,-2.8115,-2.8207,-2.8109,-2.7006,-2.5868,-2.5184,-2.3456,-2.1814,-2.0632,-2.028,-1.9887,-1.9249,-2.0245,-2.0927,-2.0816,-2.123,-2.154,-2.1524,-2.1711,-2.2135,-2.2785,-2.3139,-2.3468,-2.3835,-2.4826,-2.524,-2.5068,-2.5084,-2.5274,-2.5699,-2.5098,-2.4992,-2.5253,-2.4715,-2.4591,-2.472,-2.4575,-2.478,-2.5203,-2.5187,-2.524,-2.5333,-2.5333,-2.5687,-2.6284,-2.7259,-2.7524,-2.7257,1.4773,1.4986,1.5225,1.5176,1.515,1.5295,1.5714,1.559,1.5285,1.4928,1.4028,1.3038,1.1878,1.0203,0.8745,0.7732,0.6192,0.4191,0.1682,-0.0748,-0.3161,-0.5464,-0.7654,-0.9612,-1.1361,-1.1703,-1.2526,-1.3907,-1.3023,-1.3088,-1.4062,-1.3269,-1.3454,-1.4525,-1.5093,-1.6684,-1.9108,-2.1635,-2.3902,-2.5927,-2.7501,-2.9377,0.0,-3.1504,-3.279,-3.4488,-3.4499,-3.4694,-3.4711,-3.3676,-3.3205,-3.2951,-3.2044,-3.1912,-3.2073,-3.2001,-3.2073,-3.2127,-3.1672,-3.1407,-3.1155,-3.0765,-3.0047,-2.9453,-2.9421,-2.9358,-2.9246,-2.9149,-2.8774,-2.8468,-2.837,-2.708,-2.5674,-2.4516,-2.284,-2.1478,-2.0973,-2.0604,-2.025,-1.9891,-2.015,-2.0317,-2.0136,-2.0463,-2.0593,-2.0473,-2.0742,-2.1181,-2.1891,-2.2454,-2.3007,-2.3647,-2.434,-2.4782,-2.495,-2.4926,-2.5051,-2.5346,-2.4889,-2.4766,-2.4914,-2.4627,-2.4457,-2.44,-2.462,-2.4806,-2.4974,-2.5146,-2.5262,-2.5317,-2.5333,-2.5456,-2.5759,-2.6238,-2.6465,-2.6562,1.5549,1.5653,1.5566,1.4975,1.5192,1.534,1.4983,1.5517,1.5388,1.3781,1.3271,1.2695,1.1477,0.996,0.8616,0.7488,0.5677,0.3424,0.0639,-0.2322,-0.4702,-0.6314,-0.8943,-1.0939,-1.2184,-1.3311,-1.4418,-1.5398,-1.5266,-1.5203,-1.5202,-1.4837,-1.4766,-1.5012,-1.6065,-1.7829,-2.03,-2.3881,-2.546,-2.5757,-2.7824,-2.944,-3.0725,-3.1229,-3.2131,-3.3098,-3.2954,-3.3719,-3.4506,-3.3002,-3.2745,-3.2913,-3.1932,-3.1819,-3.2054,-3.1873,-3.1965,-3.2144,-3.1984,-3.1638,-3.1319,-3.1269,-3.083,-3.0387,-3.0249,-3.0202,-3.0154,-2.9967,-2.9329,-2.8727,-2.8508,-2.7085,-2.5463,-2.3913,-2.2654,-2.1825,-2.1695,-2.108,-2.0773,-2.1119,-2.0552,0.0,-1.9422,-1.9409,-1.9321,-1.9137,-1.9163,-1.972,-2.1005,-2.1566,-2.2499,-2.3915,-2.3951,-2.4216,-2.4766,-2.4782,-2.4701,-2.4457,-2.4498,-2.4374,-2.4223,-2.4416,-2.4441,-2.44,-2.4806,-2.4989,-2.4997,-2.5285,-2.5378,-2.5394,-2.5317,-2.5256,-2.5256,-2.5146,-2.5425,-2.5866,1.5648,1.5804,1.5651,1.4378,1.4428,1.4633,1.4574,1.4955,1.5122,1.4894,1.4201,1.3215,1.1864,0.9694,0.7892,0.6855,0.4119,0.1652,-0.0275,-0.3167,-0.5561,-0.7384,-0.9972,-1.1959,-1.32,-1.441,-1.5664,-1.6999,-1.6595,-1.6335,-1.6243,-1.5834,-1.5683,-1.5823,-1.6735,-1.8767,-2.1697,-2.4029,-2.579,-2.7162,-2.8502,-2.9946,-3.1345,-3.0823,-3.1656,-3.3031,-3.2267,-3.2841,-3.3772,-3.2878,-3.2728,-3.2821,-3.2024,-3.18,-3.1837,-3.18,-3.1893,-3.1984,-3.202,-3.2056,-3.2057,-3.2161,-3.209,-3.1792,-3.1077,-3.1341,-3.1498,-3.0803,-3.0474,-3.0093,-2.9334,-2.7331,-2.5479,-2.4641,-2.3796,-2.3215,-2.3147,-2.3056,-2.2462,-2.1033,-2.1753,-2.1556,-1.9519,-1.978,-1.9502,-1.8242,-1.9095,-1.9875,-2.036,-2.0879,-2.1818,-2.3239,-2.3787,-2.4325,-2.4822,-2.4782,-2.4645,-2.4359,-2.4457,-2.4374,-2.4223,-2.4416,-2.458,-2.4742,-2.4942,-2.5123,-2.5339,-2.5378,-2.5355,-2.5333,-2.5185,-2.5107,-2.5045,-2.5107,-2.5147,-2.5195,1.6977,1.6758,1.6446,1.5642,1.5775,1.5745,1.5108,1.547,1.5378,1.4375,1.3402,1.2282,1.0856,0.8789,0.7009,0.5843,0.2952,0.0508,-0.1221,-0.4406,-0.6651,-0.7764,-1.0526,-1.26,-1.3821,-1.5426,-1.672,-1.7689,-1.738,-1.706,-1.6739,-1.6251,-1.5941,-1.5883,-1.7837,-1.999,-2.2309,-2.4842,-2.6554,-2.7712,-2.9023,-3.0159,-3.1007,-3.0659,-3.1141,-3.1893,-3.1524,-3.2148,-3.3048,-3.2667,-3.2689,-3.2766,-3.1949,-3.1746,-3.18,-3.18,-3.1856,-3.1912,-3.1929,-3.2073,-3.2214,-3.2232,-3.2319,-3.2266,-3.176,-3.1882,-3.1968,-3.1479,-3.1009,-3.0299,-2.8973,-2.7301,-2.5947,-2.5234,-2.4472,-2.3934,-2.3904,-2.3904,-2.3409,-2.2082,-2.246,-2.2042,-2.0004,-2.0356,-2.0058,-1.8502,-1.894,-1.9496,-2.0015,-2.0178,-2.1129,-2.2996,-2.3212,-2.3739,-2.467,-2.4605,-2.4426,-2.4204,-2.4291,-2.4291,-2.425,-2.4441,-2.4686,-2.4886,-2.5084,-2.524,-2.5394,-2.5355,-2.5278,-2.5201,-2.5084,-2.5045,-2.5005,-2.5045,-2.5045,-2.5005,1.84,1.7907,1.7433,1.6989,1.7006,1.6688,1.5709,1.5882,1.5456,1.3689,1.2629,1.1394,0.9701,0.7811,0.5968,0.4177,0.1619,-0.0728,-0.2777,-0.5686,-0.7643,-0.8174,-1.106,-1.3181,-1.4307,-1.6386,-1.7735,-1.8317,-1.8325,-1.8043,-1.7488,-1.692,-1.6605,-1.6621,-1.9069,-2.1063,-2.2824,-2.5534,-2.7131,-2.7924,-2.9473,-3.0274,-3.0568,-3.0609,-3.0773,-3.0929,-3.116,-3.1698,-3.2366,-3.2474,-3.2706,-3.2727,-3.1895,-3.1709,-3.1746,-3.18,-3.1819,-3.1839,-3.18,-3.1982,-3.2179,-3.2108,-3.2232,-3.2318,-3.2004,-3.1986,-3.1985,-3.1668,-3.0938,-2.9866,-2.8322,-2.7267,-2.6371,-2.5613,-2.4942,-2.4456,-2.4288,-2.4327,-2.4029,-2.3036,-2.2797,-2.2146,-2.0643,-2.0603,-2.0239,-1.9085,-1.9005,-1.918,-1.9653,-1.9625,-2.0492,-2.2464,-2.2577,-2.3079,-2.4113,-2.4205,-2.4162,-2.4036,-2.4166,-2.4208,-2.4261,-2.4508,-2.4791,-2.5045,-2.524,-2.5355,-2.5378,-2.5278,-2.5201,-2.5068,-2.5005,-2.4966,-2.4966,-2.4966,-2.5005,-2.5005,1.9125,1.8849,1.843,1.7105,1.6295,1.5813,1.5706,1.5189,1.4612,1.4067,1.3115,1.1545,0.9237,0.7054,0.4522,0.1527,-0.0415,-0.2701,-0.5644,-0.693,-0.809,-0.9207,-1.2055,-1.3965,-1.4835,-1.7317,-1.8832,-1.9287,-1.9993,-1.991,-1.9075,-1.8649,-1.8841,-1.9552,-2.0272,-2.1668,-2.3514,-2.5399,-2.6766,-2.7867,-2.9641,-3.0485,-3.0651,-3.0568,-3.0733,-3.1076,-3.1683,-3.1776,-3.1722,-3.2349,-3.2728,-3.2766,-3.2024,-3.1709,-3.1617,-3.1746,-3.1709,-3.1654,-3.1746,-3.1929,-3.2108,-3.2108,-3.2232,-3.2161,-3.1237,-3.1498,-3.1668,-3.0795,-2.9896,-2.8968,-2.8064,-2.7215,-2.6371,-2.5613,-2.5313,-2.4962,-2.4228,-2.4663,-2.4431,-2.2817,-2.2524,-2.2102,-2.1183,-1.9917,-1.9272,-1.9672,-1.9594,-1.9373,-1.9015,-1.9373,-2.0051,-2.0968,-2.2034,-2.2568,-2.2524,-2.359,-2.4036,-2.3824,-2.4082,-2.4151,-2.412,-2.4564,-2.4886,-2.5091,-2.5301,-2.5378,-2.5378,-2.5185,-2.5068,-2.5005,-2.4862,-2.4822,-2.4822,-2.4982,-2.5005,-2.5005,2.0159,1.9376,1.8681,1.8134,1.6849,1.5835,1.5765,1.4811,1.3707,1.2558,1.1847,1.0477,0.7947,0.5661,0.3281,0.0754,-0.1525,-0.3814,-0.6062,-0.7449,-0.882,-1.0248,-1.2727,-1.4621,-1.5664,-1.8191,-1.9632,-1.9898,-2.0304,-2.0323,-1.9821,-1.9361,-1.9869,-2.1257,-2.2003,-2.3319,-2.5114,-2.5837,-2.6824,-2.7972,-2.9165,-2.9782,-3.0075,-3.0566,-3.0855,-3.1066,-3.1409,-3.1501,-3.1568,-3.1859,-3.2059,-3.2179,-3.1886,-3.1709,-3.1617,-3.1746,-3.1709,-3.1617,-3.1746,-3.1893,-3.1984,-3.1984,-3.2108,-3.2109,-3.162,-3.1686,-3.1733,-3.1239,-3.0387,-2.9491,-2.8744,-2.7786,-2.6887,-2.6219,-2.5879,-2.5624,-2.5274,-2.5349,-2.4898,-2.339,-2.3043,-2.2489,-2.1327,-2.0113,-1.9734,-2.04,-1.9184,-1.8666,-1.9309,-1.903,-1.9576,-2.1124,-2.1889,-2.2448,-2.2705,-2.3538,-2.3867,-2.3797,-2.3982,-2.4151,-2.4359,-2.4661,-2.4966,-2.5301,-2.5378,-2.5394,-2.5317,-2.5123,-2.491,-2.4751,-2.4782,-2.4742,-2.4726,-2.4926,-2.5005,-2.5069,2.0817,1.9726,1.8775,1.8639,1.713,1.5878,1.5747,1.445,1.3014,1.1819,1.0313,0.8543,0.6523,0.4001,0.1588,-0.0383,-0.297,-0.5224,-0.6909,-0.8404,-0.987,-1.1394,-1.3593,-1.5275,-1.632,-1.8762,-2.0139,-2.038,-2.0684,-2.0811,-2.0812,-2.036,-2.1001,-2.2469,-2.3357,-2.4664,-2.6188,-2.642,-2.7227,-2.8371,-2.8895,-2.9428,-3.0055,-3.067,-3.0952,-3.1089,-3.1427,-3.1494,-3.1551,-3.1773,-3.1802,-3.18,-3.18,-3.1709,-3.1617,-3.1746,-3.1709,-3.1617,-3.1746,-3.1839,-3.1894,-3.1894,-3.1984,-3.2073,-3.193,-3.1856,-3.1694,-3.1268,-3.0619,-2.9892,-2.9149,-2.8152,-2.7214,-2.6532,-2.6187,-2.5826,-2.5291,-2.5513,-2.5143,-2.3659,-2.3183,-2.2565,-2.1519,-2.0432,-2.0083,-2.0748,-1.9358,-1.8888,-1.9797,-1.906,-1.935,-2.0972,-2.1659,-2.2245,-2.2692,-2.3417,-2.3839,-2.3839,-2.4009,-2.4234,-2.4498,-2.4766,-2.5084,-2.547,-2.5394,-2.5355,-2.5294,-2.5045,-2.4806,-2.4589,-2.4686,-2.4726,-2.4686,-2.4926,-2.5045,-2.5179,2.0984,2.0002,1.9012,1.8347,1.6835,1.5658,1.5525,1.4042,1.2797,1.2513,0.8798,0.5811,0.4942,0.1997,-0.0634,-0.2481,-0.5064,-0.721,-0.8749,-1.0012,-1.1316,-1.2838,-1.4628,-1.5938,-1.6676,-1.885,-2.0245,-2.0795,-2.131,-2.1816,-2.2273,-2.2069,-2.2446,-2.3317,-2.4188,-2.5224,-2.635,-2.7096,-2.8052,-2.9091,-2.9108,-2.9823,-3.0912,-3.0912,-3.1032,-3.1292,-3.2002,-3.1975,-3.1619,-3.2354,-3.2231,-3.18,-3.18,-3.1709,-3.1617,-3.1746,-3.1709,-3.1617,-3.1746,-3.1839,-3.1894,-3.1894,-3.1984,-3.2073,-3.193,-3.1856,-3.1502,-3.0452,-3.0166,-2.9833,-2.8945,-2.8132,-2.7286,-2.6372,-2.6079,-2.5409,-2.3673,-2.4749,-2.507,-2.3414,-2.2609,-2.2143,-2.1991,-2.0637,-2.0004,-2.055,-2.053,-2.0462,-2.0478,-1.9592,-1.9412,-2.01,-2.119,-2.1862,-2.2009,-2.3175,-2.3882,-2.3982,-2.4177,-2.4359,-2.4498,-2.491,-2.5278,-2.5578,-2.5371,-2.5294,-2.5256,-2.4942,-2.4726,-2.4589,-2.4589,-2.4686,-2.4822,-2.4926,-2.5139,-2.539,2.0418,1.9599,1.8686,1.7617,1.6298,1.5035,1.4018,1.2172,1.0319,0.8643,0.5862,0.3101,0.0862,-0.0516,-0.2241,-0.4502,-0.6354,-0.8165,-1.0004,-1.1289,-1.2631,-1.42,-1.5618,-1.6813,-1.7872,-1.9645,-2.0709,-2.1068,-2.1521,-2.1975,-2.2458,-2.3525,-2.4304,-2.4839,-2.5222,-2.5787,-2.6455,-2.668,-2.7145,-2.7816,-2.882,-2.9646,-3.0269,-3.079,-3.1055,-3.1224,-3.1506,-3.1572,-3.1551,-3.179,-3.1764,-3.1654,-3.1654,-3.1617,-3.1617,-3.1746,-3.1709,-3.1617,-3.1746,-3.1837,-3.1819,-3.1819,-3.1819,-3.1728,-3.1728,-3.1579,-3.1321,-3.0852,-3.0275,-2.9794,-2.947,-2.8227,-2.7197,-2.6965,-2.6303,-2.5591,-2.4984,-2.5255,-2.4885,-2.3255,-2.2888,-2.2499,-2.1866,-2.0881,-2.0751,-2.1873,-2.045,-1.9962,-2.0936,-2.0231,-2.0243,-2.122,-2.1159,-2.1542,-2.2475,-2.2923,-2.3443,-2.3982,-2.4177,-2.4467,-2.4846,-2.5029,-2.5224,-2.547,-2.5262,-2.524,-2.5256,-2.4942,-2.4726,-2.4589,-2.4686,-2.4782,-2.4822,-2.4926,-2.5139,-2.539,2.0225,1.9308,1.8234,1.7189,1.5621,1.4149,1.3064,1.0943,0.8577,0.5908,0.3498,0.0621,-0.3057,-0.3811,-0.4623,-0.6266,-0.7975,-0.96,-1.1286,-1.2373,-1.3606,-1.5099,-1.6213,-1.7313,-1.8478,-1.9863,-2.0809,-2.1375,-2.1974,-2.2513,-2.2914,-2.4109,-2.4848,-2.5201,-2.5984,-2.6554,-2.6953,-2.7268,-2.7809,-2.8405,-2.9128,-2.9782,-3.0454,-3.0886,-3.1134,-3.1252,-3.1257,-3.1406,-3.1517,-3.1538,-3.1596,-3.162,-3.1345,-3.1448,-3.1709,-3.18,-3.1746,-3.1709,-3.18,-3.18,-3.18,-3.18,-3.1746,-3.1671,-3.1617,-3.1428,-3.1235,-3.1117,-3.0622,-3.0185,-3.0168,-2.8733,-2.7602,-2.7618,-2.6498,-2.5621,-2.5524,-2.5432,-2.4772,-2.3203,-2.2972,-2.2631,-2.1776,-2.1452,-2.1724,-2.2829,-2.179,-2.1335,-2.1843,-2.0613,-2.0557,-2.2034,-2.1674,-2.1974,-2.311,-2.3262,-2.364,-2.4193,-2.44,-2.4726,-2.5123,-2.5084,-2.5146,-2.5355,-2.5146,-2.5107,-2.5201,-2.4942,-2.4742,-2.4686,-2.4782,-2.4822,-2.4902,-2.4982,-2.5337,-2.5814,2.0277,1.9004,1.7714,1.6935,1.488,1.3051,1.2391,1.0116,0.7339,0.4319,0.1713,-0.1679,-0.6573,-0.7277,-0.7525,-0.7901,-0.9711,-1.137,-1.2504,-1.3312,-1.4341,-1.5652,-1.6585,-1.7556,-1.8584,-1.9772,-2.0788,-2.1767,-2.2689,-2.329,-2.3569,-2.4031,-2.4425,-2.4833,-2.654,-2.7422,-2.7662,-2.8598,-2.9534,-3.0285,-2.9886,-3.0314,-3.119,-3.119,-3.1252,-3.1295,-3.1295,-3.1406,-3.1517,-3.1542,-3.1671,-3.1679,-3.0936,-3.1231,-3.1783,-3.1731,-3.1765,-3.18,-3.18,-3.18,-3.18,-3.18,-3.18,-3.1709,-3.1579,-3.1368,-3.1173,-3.1274,-3.1004,-3.0788,-3.0788,-2.9443,-2.8229,-2.8033,-2.6678,-2.5562,-2.5416,-2.5317,-2.4713,-2.3167,-2.2948,-2.2654,-2.1819,-2.2295,-2.2876,-2.3328,-2.4008,-2.3979,-2.3011,-2.0917,-2.0576,-2.2426,-2.2396,-2.2835,-2.3782,-2.409,-2.4354,-2.4539,-2.4742,-2.4982,-2.5294,-2.5084,-2.5084,-2.5294,-2.5084,-2.5045,-2.5107,-2.4886,-2.4822,-2.4782,-2.4822,-2.4902,-2.5005,-2.5005,-2.5648,-2.6575,1.9893,1.8248,1.6789,1.5972,1.3829,1.1816,1.0425,0.7812,0.4941,0.2177,-0.0279,-0.3099,-0.6588,-0.7703,-0.8723,-0.9945,-1.093,-1.1994,-1.3183,-1.4112,-1.5225,-1.6616,-1.7523,-1.8555,-1.9786,-2.1169,-2.2314,-2.3222,-2.3551,-2.3935,-2.4418,-2.5317,-2.596,-2.6365,-2.6936,-2.7374,-2.7712,-2.864,-2.9255,-2.9764,-3.0299,-3.0813,-3.1274,-3.1274,-3.1312,-3.1295,-3.1295,-3.1406,-3.1479,-3.1389,-3.1504,-3.16,-3.1261,-3.1405,-3.1551,-3.1074,-3.1351,-3.18,-3.18,-3.18,-3.18,-3.1671,-3.1542,-3.1389,-3.1157,-3.1095,-3.1015,-3.0895,-3.0363,-2.9882,-2.9762,-2.8428,-2.7317,-2.7279,-2.6352,-2.554,-2.5371,-2.5333,-2.4637,-2.2891,-2.3205,-2.323,-2.2267,-2.2809,-2.3219,-2.3176,-2.3295,-2.3147,-2.272,-2.2122,-2.2051,-2.2611,-2.168,-2.1974,-2.3767,-2.3616,-2.3996,-2.4886,-2.4989,-2.5068,-2.5146,-2.5045,-2.5045,-2.5146,-2.5045,-2.5045,-2.5091,-2.5005,-2.4902,-2.4822,-2.4886,-2.4966,-2.5005,-2.5005,-2.5648,-2.6446,1.9097,1.7488,1.6019,1.4942,1.2632,1.0668,0.997,0.6496,0.309,0.0567,-0.1953,-0.4518,-0.7167,-0.8516,-0.9755,-1.1115,-1.1745,-1.2494,-1.3416,-1.4694,-1.5909,-1.7022,-1.8035,-1.9072,-2.0156,-2.1605,-2.2956,-2.4264,-2.4455,-2.483,-2.5319,-2.603,-2.6557,-2.6981,-2.7556,-2.7955,-2.8255,-2.9237,-2.984,-3.0166,-3.0774,-3.1201,-3.1411,-3.1389,-3.1389,-3.1411,-3.1406,-3.1445,-3.1521,-3.1542,-3.1579,-3.1603,-3.1148,-3.1305,-3.1479,-3.0867,-3.1232,-3.1856,-3.1856,-3.1856,-3.1819,-3.1654,-3.1504,-3.1368,-3.1157,-3.1055,-3.0935,-3.0855,-3.0132,-2.9497,-2.9497,-2.8124,-2.6978,-2.6978,-2.5853,-2.4949,-2.4912,-2.4451,-2.3824,-2.2865,-2.2967,-2.3018,-2.2802,-2.3031,-2.3289,-2.3488,-2.3477,-2.3217,-2.2652,-2.2569,-2.2634,-2.2974,-2.2439,-2.2656,-2.3782,-2.3933,-2.4351,-2.5139,-2.5107,-2.5146,-2.5185,-2.5021,-2.4966,-2.5029,-2.4926,-2.4966,-2.5029,-2.5005,-2.4966,-2.4902,-2.4966,-2.5005,-2.5005,-2.5005,-2.5815,-2.6784,1.8133,1.6596,1.5139,1.3726,1.1175,0.933,0.938,0.5325,0.1489,-0.0795,-0.3317,-0.5773,-0.8102,-0.9372,-1.0591,-1.174,-1.2343,-1.294,-1.3537,-1.5139,-1.6396,-1.7211,-1.8374,-1.9436,-2.0373,-2.1813,-2.3334,-2.5043,-2.5401,-2.5781,-2.6168,-2.6655,-2.7074,-2.7486,-2.8307,-2.8796,-2.9026,-2.9985,-3.0551,-3.0845,-3.1179,-3.1411,-3.1579,-3.1538,-3.1538,-3.1579,-3.15,-3.1538,-3.1596,-3.1726,-3.1763,-3.1642,-3.1005,-3.1156,-3.1497,-3.0952,-3.1319,-3.1858,-3.1858,-3.1875,-3.1802,-3.1617,-3.1483,-3.1385,-3.1274,-3.1055,-3.0838,-3.0784,-2.9926,-2.9218,-2.9237,-2.7894,-2.6814,-2.6776,-2.5357,-2.4264,-2.4333,-2.3528,-2.2949,-2.2859,-2.2698,-2.2778,-2.3255,-2.3193,-2.3375,-2.3937,-2.3982,-2.3613,-2.2847,-2.2691,-2.2844,-2.3304,-2.3477,-2.3691,-2.3909,-2.4564,-2.5021,-2.5294,-2.5185,-2.5185,-2.5256,-2.4942,-2.4862,-2.4966,-2.4822,-2.4862,-2.4982,-2.4982,-2.4966,-2.5005,-2.5005,-2.5005,-2.5005,-2.5005,-2.5998,-2.7288,1.7294,1.5192,1.3177,1.1941,0.9207,0.6857,0.5619,0.2563,-0.0229,-0.2109,-0.4385,-0.6672,-0.8646,-0.9958,-1.1052,-1.1996,-1.2972,-1.37,-1.3941,-1.5631,-1.6867,-1.7357,-1.9079,-2.0465,-2.129,-2.3059,-2.4511,-2.5633,-2.6164,-2.6633,-2.7041,-2.8031,-2.8728,-2.915,-2.9383,-2.9609,-2.9827,-3.0225,-3.0551,-3.0845,-3.1179,-3.1411,-3.1579,-3.1538,-3.1538,-3.1579,-3.1389,-3.1406,-3.1517,-3.1555,-3.1559,-3.16,-3.1291,-3.1401,-3.1562,-3.1274,-3.1493,-3.1837,-3.1837,-3.1688,-3.1538,-3.15,-3.1308,-3.1055,-3.0992,-3.0855,-3.0525,-2.9795,-2.8963,-2.819,-2.7597,-2.6639,-2.588,-2.5816,-2.4991,-2.4333,-2.418,-2.3919,-2.3469,-2.2723,-2.3444,-2.3769,-2.3197,-2.3564,-2.3819,-2.3824,-2.3839,-2.3666,-2.3215,-2.3302,-2.3318,-2.3319,-2.2916,-2.3266,-2.4451,-2.4871,-2.5162,-2.5294,-2.5294,-2.524,-2.5107,-2.4886,-2.4822,-2.4822,-2.4686,-2.4726,-2.4822,-2.4822,-2.4902,-2.5005,-2.5005,-2.5005,-2.5005,-2.5005,-2.5998,-2.7288,1.5709,1.3536,1.1389,0.9703,0.7242,0.4972,0.3503,0.0693,-0.1962,-0.4077,-0.5849,-0.7564,-0.9098,-1.0345,-1.1428,-1.2413,-1.376,-1.4739,-1.5083,-1.6228,-1.7371,-1.8339,-1.9767,-2.1405,-2.3332,-2.453,-2.5712,-2.6976,-2.7278,-2.7651,-2.8109,-2.8809,-2.9319,-2.9677,-2.9738,-2.9957,-3.0274,-3.0485,-3.0757,-3.1083,-3.1312,-3.1521,-3.1709,-3.1596,-3.1634,-3.1709,-3.1504,-3.1504,-3.1559,-3.1651,-3.1634,-3.1579,-3.1504,-3.1504,-3.1538,-3.1445,-3.1596,-3.18,-3.1856,-3.1746,-3.1631,-3.1517,-3.1329,-3.1117,-3.0975,-3.0871,-3.0533,-2.9639,-2.8774,-2.7954,-2.7077,-2.6265,-2.568,-2.5616,-2.4531,-2.3807,-2.4042,-2.3201,-2.2686,-2.2994,-2.3379,-2.359,-2.3594,-2.3658,-2.3711,-2.3696,-2.3566,-2.3436,-2.3319,-2.3363,-2.3363,-2.3319,-2.3325,-2.3814,-2.4686,-2.491,-2.5123,-2.5294,-2.524,-2.5146,-2.5091,-2.4831,-2.4726,-2.4782,-2.4605,-2.4645,-2.4822,-2.4902,-2.4966,-2.5068,-2.5123,-2.5123,-2.5068,-2.5123,-2.6118,-2.7304,1.3881,1.1899,0.9909,0.7927,0.5591,0.3428,0.1797,-0.0768,-0.3235,-0.5441,-0.695,-0.8361,-0.9598,-1.0745,-1.1844,-1.3018,-1.4391,-1.5557,-1.6327,-1.7137,-1.8145,-1.9364,-2.0746,-2.2685,-2.5135,-2.579,-2.6701,-2.7955,-2.8107,-2.8463,-2.8951,-2.9243,-2.956,-2.9853,-2.9897,-3.013,-3.0568,-3.0692,-3.0998,-3.1351,-3.15,-3.1614,-3.18,-3.1654,-3.1671,-3.18,-3.1671,-3.1617,-3.1617,-3.1746,-3.1829,-3.1854,-3.1854,-3.1953,-3.1995,-3.1747,-3.1538,-3.1485,-3.1823,-3.1543,-3.119,-3.1247,-3.1113,-3.0925,-3.0746,-3.0644,-3.0323,-2.9407,-2.8543,-2.7629,-2.6678,-2.6037,-2.5605,-2.5524,-2.4255,-2.3501,-2.3951,-2.2823,-2.2288,-2.3305,-2.3305,-2.3421,-2.3937,-2.3726,-2.3538,-2.3566,-2.3451,-2.3319,-2.3246,-2.3275,-2.3363,-2.3451,-2.3909,-2.4343,-2.4742,-2.4926,-2.5123,-2.5294,-2.5201,-2.5146,-2.5091,-2.4831,-2.4726,-2.4726,-2.4564,-2.462,-2.4766,-2.4902,-2.5005,-2.5068,-2.5201,-2.5162,-2.5107,-2.5201,-2.6062,-2.708,1.246,1.0562,0.8699,0.7342,0.4836,0.2184,0.0078,-0.1795,-0.3635,-0.5196,-0.709,-0.8821,-1.0341,-1.1235,-1.2372,-1.4042,-1.479,-1.5773,-1.7103,-1.8633,-1.9656,-2.0017,-2.2489,-2.445,-2.5809,-2.6477,-2.7129,-2.779,-2.8253,-2.8701,-2.9074,-2.9486,-2.977,-2.9973,-3.0103,-3.0359,-3.0692,-3.0895,-3.1173,-3.1517,-3.1559,-3.1671,-3.18,-3.1654,-3.1671,-3.18,-3.1671,-3.1617,-3.1617,-3.1746,-3.219,-3.2715,-3.2581,-3.3083,-3.3511,-3.253,-3.1342,-3.054,-3.1595,-3.0678,-2.9553,-3.0324,-3.0255,-2.9972,-2.9817,-2.9738,-2.942,-2.8477,-2.7652,-2.6809,-2.5848,-2.554,-2.5378,-2.5185,-2.4487,-2.3967,-2.3824,-2.3615,-2.3452,-2.3413,-2.3718,-2.3937,-2.3982,-2.3739,-2.3566,-2.3509,-2.3509,-2.3378,-2.3127,-2.3246,-2.3494,-2.394,-2.4177,-2.4385,-2.4589,-2.495,-2.5146,-2.5294,-2.5294,-2.524,-2.5107,-2.4989,-2.4846,-2.4589,-2.4589,-2.4589,-2.463,-2.4782,-2.4902,-2.5005,-2.5005,-2.5005,-2.5005,-2.5107,-2.5648,-2.6366,1.101,0.8883,0.6765,0.5223,0.3122,0.0938,-0.1172,-0.3122,-0.4794,-0.6098,-0.7997,-0.973,-1.0949,-1.197,-1.3107,-1.4702,-1.5918,-1.7133,-1.8411,-1.9946,-2.1236,-2.2072,-2.3899,-2.5286,-2.6136,-2.693,-2.761,-2.8152,-2.8622,-2.9044,-2.935,-2.9681,-2.9946,-3.0146,-3.0316,-3.0568,-3.0895,-3.1117,-3.1312,-3.1559,-3.1579,-3.1671,-3.18,-3.1746,-3.1763,-3.18,-3.1746,-3.1671,-3.1685,-3.228,-3.262,-3.287,-3.3197,-3.3214,-3.2838,-3.1414,-3.0309,-2.967,-3.0052,-2.9638,-2.9327,-3.002,-3.0057,-2.9732,-2.9087,-2.9299,-2.9204,-2.7795,-2.7235,-2.6689,-2.5675,-2.5432,-2.5339,-2.5146,-2.4496,-2.4173,-2.4484,-2.3975,-2.367,-2.4048,-2.4122,-2.4082,-2.4024,-2.3739,-2.361,-2.3566,-2.3451,-2.3378,-2.3334,-2.3451,-2.3696,-2.4177,-2.4385,-2.463,-2.491,-2.5029,-2.5185,-2.5355,-2.524,-2.5146,-2.5091,-2.4926,-2.4822,-2.4726,-2.463,-2.4645,-2.4726,-2.4926,-2.5029,-2.5068,-2.5278,-2.5256,-2.5068,-2.5317,-2.5789,-2.6302,0.9546,0.7508,0.5464,0.4142,0.2112,-0.0157,-0.2895,-0.4295,-0.565,-0.7285,-0.9049,-1.0527,-1.176,-1.277,-1.3929,-1.5414,-1.6683,-1.7954,-1.9323,-2.1148,-2.2565,-2.3498,-2.4901,-2.5837,-2.6283,-2.7255,-2.7989,-2.8429,-2.8858,-2.9273,-2.9576,-2.9814,-3.0076,-3.0316,-3.051,-3.0797,-3.1134,-3.1295,-3.1504,-3.1671,-3.1671,-3.1709,-3.18,-3.18,-3.18,-3.18,-3.18,-3.1746,-3.1774,-3.2607,-3.3055,-3.3287,-3.3607,-3.3168,-3.2293,-3.0993,-2.9904,-2.9121,-2.9085,-2.871,-2.8488,-2.9178,-2.9289,-2.9026,-2.8315,-2.8727,-2.8882,-2.7657,-2.7126,-2.67,-2.5889,-2.5577,-2.5339,-2.5146,-2.4671,-2.449,-2.4863,-2.4335,-2.4011,-2.4451,-2.4291,-2.4082,-2.4024,-2.3739,-2.361,-2.3566,-2.3451,-2.3407,-2.3509,-2.361,-2.3867,-2.4359,-2.4549,-2.4815,-2.5185,-2.5185,-2.5224,-2.5378,-2.5224,-2.5146,-2.5146,-2.4966,-2.4862,-2.4782,-2.4766,-2.4766,-2.4822,-2.5029,-2.5107,-2.5107,-2.5355,-2.5317,-2.5146,-2.5355,-2.566,-2.5982,0.8074,0.6503,0.5082,0.4482,0.2117,-0.1017,-0.5021,-0.5398,-0.6224,-0.867,-1.0034,-1.1378,-1.2718,-1.3603,-1.4651,-1.6057,-1.6977,-1.8148,-1.9823,-2.2092,-2.3628,-2.4073,-2.5398,-2.6176,-2.6283,-2.7423,-2.8186,-2.8511,-2.8889,-2.9348,-2.9793,-2.9913,-3.0189,-3.051,-3.0723,-3.1004,-3.1278,-3.1487,-3.1654,-3.1783,-3.1783,-3.18,-3.18,-3.18,-3.18,-3.18,-3.18,-3.18,-3.1903,-3.2645,-3.3421,-3.4037,-3.3802,-3.3128,-3.2349,-3.1623,-3.0255,-2.9011,-2.8958,-2.7822,-2.6791,-2.7515,-2.77,-2.7664,-2.7448,-2.7977,-2.8395,-2.805,-2.7352,-2.6747,-2.6534,-2.5915,-2.5355,-2.5146,-2.5091,-2.5029,-2.4822,-2.4686,-2.4549,-2.4498,-2.4193,-2.3982,-2.3982,-2.3739,-2.3566,-2.3509,-2.3509,-2.3509,-2.3509,-2.3711,-2.4009,-2.4498,-2.471,-2.4974,-2.5394,-2.5317,-2.5317,-2.5378,-2.5317,-2.5294,-2.5294,-2.5146,-2.4989,-2.4822,-2.4926,-2.4926,-2.4822,-2.5029,-2.5068,-2.5005,-2.5068,-2.5091,-2.5091,-2.5091,-2.5185,-2.5278,0.6553,0.5649,0.4462,0.2508,0.0862,-0.1251,-0.43,-0.5761,-0.7283,-0.9357,-1.0944,-1.2285,-1.339,-1.4316,-1.5382,-1.6757,-1.7898,-1.9512,-2.1873,-2.3059,-2.4002,-2.4708,-2.555,-2.6096,-2.6457,-2.756,-2.8317,-2.8637,-2.9121,-2.9576,-2.9913,-2.9973,-2.9969,-2.9879,-3.062,-3.0504,-2.9799,-3.0638,-3.0971,-3.1024,-3.1078,-3.1389,-3.1837,-3.1982,-3.1929,-3.18,-3.1839,-3.1856,-3.1903,-3.2645,-3.3059,-3.3266,-3.311,-3.2081,-3.0751,-3.0023,-2.9049,-2.8078,-2.7414,-2.7224,-2.7236,-2.7597,-2.8015,-2.8139,-2.74,-2.8185,-2.8867,-2.8165,-2.7688,-2.7235,-2.6631,-2.6214,-2.5751,-2.5124,-2.4966,-2.4862,-2.4822,-2.4661,-2.4539,-2.4498,-2.4317,-2.4151,-2.4024,-2.394,-2.3797,-2.3566,-2.3566,-2.361,-2.3711,-2.3839,-2.4109,-2.4498,-2.4806,-2.5084,-2.5317,-2.5355,-2.5432,-2.5524,-2.5371,-2.5294,-2.5294,-2.5123,-2.5005,-2.4926,-2.4966,-2.5005,-2.5029,-2.5068,-2.5146,-2.5217,-2.5262,-2.5208,-2.5082,-2.474,-2.4543,-2.4382,0.5174,0.438,0.3366,0.1409,-0.0235,-0.2188,-0.5151,-0.6623,-0.8253,-1.0542,-1.1885,-1.3107,-1.4458,-1.533,-1.6376,-1.755,-1.9023,-2.0643,-2.2665,-2.3386,-2.4105,-2.4892,-2.566,-2.6204,-2.6563,-2.771,-2.8414,-2.8779,-2.9321,-2.977,-3.0146,-3.0189,-3.0212,-3.0258,-3.0527,-3.0298,-2.9687,-3.0365,-3.0643,-3.0713,-3.1061,-3.1458,-3.18,-3.1946,-3.191,-3.18,-3.1856,-3.1666,-3.1524,-3.2559,-3.2827,-3.2647,-3.2042,-3.1107,-3.0003,-2.8897,-2.8215,-2.7619,-2.679,-2.6751,-2.7064,-2.7509,-2.8092,-2.8394,-2.7755,-2.8448,-2.9075,-2.847,-2.8208,-2.7971,-2.7412,-2.6983,-2.6445,-2.5632,-2.5377,-2.5161,-2.4854,-2.462,-2.4498,-2.4498,-2.4374,-2.4193,-2.4082,-2.3982,-2.3839,-2.3595,-2.3653,-2.3696,-2.3797,-2.4009,-2.4276,-2.4605,-2.4926,-2.5217,-2.541,-2.5448,-2.5524,-2.5616,-2.541,-2.5294,-2.5294,-2.5123,-2.5045,-2.5005,-2.5045,-2.5029,-2.5068,-2.5146,-2.5201,-2.5208,-2.5051,-2.4938,-2.4729,-2.4099,-2.3843,-2.3722,0.4095,0.3054,0.2034,0.0783,-0.1251,-0.3828,-0.6868,-0.7776,-0.9102,-1.1931,-1.2828,-1.3902,-1.5649,-1.6524,-1.7413,-1.8432,-2.0139,-2.1616,-2.2592,-2.3267,-2.3989,-2.4835,-2.5797,-2.6457,-2.6788,-2.7825,-2.8573,-2.8967,-2.9441,-2.9946,-3.0417,-3.0485,-3.0699,-3.1072,-3.0395,-3.0173,-3.0312,-3.04,-3.047,-3.0697,-3.1386,-3.1731,-3.18,-3.1837,-3.1837,-3.18,-3.18,-3.1317,-3.0886,-3.2162,-3.2406,-3.1978,-3.068,-3.0094,-2.9627,-2.8317,-2.7754,-2.7464,-2.6841,-2.6552,-2.6562,-2.73,-2.7998,-2.845,-2.8339,-2.8803,-2.9173,-2.889,-2.8838,-2.8796,-2.8555,-2.7997,-2.7297,-2.643,-2.6163,-2.5753,-2.4876,-2.4667,-2.456,-2.4498,-2.4333,-2.4223,-2.4223,-2.3982,-2.3782,-2.3653,-2.3739,-2.3839,-2.3839,-2.4135,-2.4467,-2.4775,-2.5123,-2.5371,-2.5578,-2.5578,-2.5616,-2.5616,-2.541,-2.5294,-2.5294,-2.5146,-2.5068,-2.5005,-2.5068,-2.5068,-2.5005,-2.5217,-2.5169,-2.4987,-2.4532,-2.4333,-2.4188,-2.3255,-2.3055,-2.3195,0.3874,0.2589,0.1018,-0.0862,-0.3129,-0.5231,-0.6681,-0.8538,-1.0399,-1.2258,-1.3807,-1.501,-1.5895,-1.7079,-1.8094,-1.8844,-2.0655,-2.2113,-2.3075,-2.3695,-2.4465,-2.5453,-2.6028,-2.6616,-2.7233,-2.7989,-2.8668,-2.9198,-2.9547,-2.9989,-3.0485,-3.0468,-3.0432,-3.0328,-3.0234,-2.9651,-2.8836,-2.9438,-2.9799,-2.9989,-3.0733,-3.1339,-3.1875,-3.2001,-3.1946,-3.18,-3.1839,-3.1372,-3.0644,-3.0281,-2.9676,-2.9143,-2.9433,-2.8577,-2.7622,-2.854,-2.784,-2.6838,-2.7293,-2.725,-2.7138,-2.7304,-2.781,-2.8395,-2.8852,-2.9419,-2.9626,-2.8945,-2.92,-2.9118,-2.7881,-2.7924,-2.7694,-2.6281,-2.6325,-2.6076,-2.4801,-2.4932,-2.4945,-2.4421,-2.4317,-2.4276,-2.4223,-2.4024,-2.394,-2.3925,-2.394,-2.3982,-2.3982,-2.4177,-2.4385,-2.463,-2.4989,-2.5224,-2.5432,-2.5562,-2.5616,-2.5616,-2.5432,-2.5355,-2.5294,-2.5294,-2.5162,-2.5005,-2.5068,-2.5107,-2.5068,-2.5084,-2.4844,-2.4537,-2.434,-2.3939,-2.3362,-2.2692,-2.2401,-2.2253,0.1996,0.0948,-0.0313,-0.219,-0.4219,-0.6153,-0.7732,-0.9383,-1.1284,-1.3266,-1.445,-1.5548,-1.6715,-1.7755,-1.8834,-2.002,-2.1325,-2.2445,-2.3492,-2.393,-2.4694,-2.5729,-2.619,-2.6736,-2.7401,-2.8073,-2.8748,-2.9305,-2.9621,-3.0017,-3.0526,-3.0651,-3.0694,-3.0641,-2.9966,-2.9604,-2.9472,-2.9438,-2.973,-3.0249,-3.1011,-3.1548,-3.1894,-3.1984,-3.1722,-3.132,-3.132,-3.0801,-2.9955,-2.88,-2.8493,-2.8509,-2.8288,-2.7743,-2.7282,-2.7809,-2.7265,-2.6569,-2.6989,-2.6947,-2.6849,-2.7143,-2.7432,-2.7855,-2.8484,-2.8837,-2.8949,-2.8747,-2.9011,-2.9,-2.8089,-2.8179,-2.7869,-2.6354,-2.6183,-2.5831,-2.4745,-2.4777,-2.4802,-2.4446,-2.4694,-2.481,-2.4597,-2.4307,-2.4067,-2.3925,-2.4024,-2.4124,-2.4151,-2.4317,-2.4523,-2.4831,-2.5068,-2.5278,-2.547,-2.5562,-2.5616,-2.5616,-2.547,-2.5339,-2.5201,-2.5294,-2.5178,-2.5005,-2.5068,-2.4877,-2.4537,-2.4576,-2.4292,-2.3695,-2.341,-2.3042,-2.2591,-2.1969,-2.1504,-2.1199,-0.0402,-0.0953,-0.1721,-0.3593,-0.5146,-0.6835,-0.91,-1.0431,-1.2056,-1.4347,-1.5002,-1.5901,-1.7463,-1.8442,-1.9628,-2.1262,-2.1913,-2.2702,-2.3741,-2.4163,-2.4865,-2.5893,-2.6351,-2.6826,-2.7452,-2.8033,-2.8654,-2.9305,-2.9633,-3.0027,-3.0526,-3.0733,-3.0948,-3.104,-2.9697,-2.9639,-3.0437,-2.9713,-2.992,-3.0783,-3.1581,-3.1894,-3.193,-3.1894,-3.1426,-3.0785,-3.0714,-3.0093,-2.911,-2.7715,-2.7894,-2.8526,-2.7334,-2.7233,-2.7449,-2.6995,-2.669,-2.6535,-2.6786,-2.6545,-2.6349,-2.6986,-2.7114,-2.7186,-2.7699,-2.7947,-2.8184,-2.8533,-2.8705,-2.8672,-2.8345,-2.8286,-2.786,-2.6579,-2.6194,-2.5784,-2.5082,-2.4865,-2.4808,-2.4684,-2.5071,-2.5207,-2.4889,-2.4514,-2.4177,-2.3925,-2.4109,-2.425,-2.4343,-2.4482,-2.4726,-2.5107,-2.524,-2.541,-2.56,-2.5616,-2.5616,-2.5616,-2.547,-2.5301,-2.5146,-2.5112,-2.4987,-2.4831,-2.4893,-2.4458,-2.3733,-2.3899,-2.3506,-2.277,-2.2401,-2.2096,-2.1821,-2.1278,-2.0845,-2.0564,-0.181,-0.2276,-0.3049,-0.5395,-0.6465,-0.7672,-0.9948,-1.1636,-1.3179,-1.4673,-1.5781,-1.6688,-1.7373,-1.8787,-2.0183,-2.1325,-2.2125,-2.2907,-2.3741,-2.4465,-2.5216,-2.6056,-2.6549,-2.7137,-2.774,-2.778,-2.8278,-2.9305,-2.9633,-3.0027,-3.0526,-3.0651,-3.0583,-3.0309,-2.9515,-2.935,-2.9661,-2.9558,-2.9989,-3.0855,-3.16,-3.1984,-3.2073,-3.193,-3.1426,-3.0785,-3.0714,-2.9765,-2.8387,-2.7363,-2.7144,-2.7197,-2.6876,-2.6759,-2.6859,-2.7485,-2.7007,-2.6614,-2.8025,-2.7311,-2.6385,-2.7098,-2.7097,-2.6946,-2.7044,-2.7923,-2.8744,-2.8646,-2.8587,-2.8351,-2.7546,-2.7322,-2.7232,-2.7015,-2.7256,-2.7188,-2.6502,-2.6305,-2.6001,-2.5443,-2.4947,-2.4555,-2.4304,-2.428,-2.4261,-2.4219,-2.4276,-2.4359,-2.4549,-2.4701,-2.4846,-2.5091,-2.5301,-2.5492,-2.5663,-2.5637,-2.5616,-2.5616,-2.547,-2.5355,-2.5262,-2.4623,-2.4222,-2.4065,-2.4195,-2.3798,-2.3022,-2.3059,-2.2683,-2.2134,-2.2073,-2.1643,-2.1069,-2.1086,-2.1103,-2.1118,-0.2631,-0.3396,-0.4373,-0.6395,-0.7617,-0.8974,-1.1001,-1.2204,-1.3535,-1.5188,-1.5833,-1.6533,-1.7432,-1.8988,-2.0388,-2.16,-2.2372,-2.3088,-2.393,-2.4738,-2.5495,-2.6056,-2.6736,-2.7077,-2.7169,-2.7597,-2.8102,-2.8761,-2.914,-2.9541,-2.9914,-3.0508,-3.0353,-2.9578,-2.9329,-2.9316,-2.9506,-2.9506,-2.9989,-3.0802,-3.16,-3.1948,-3.1984,-3.193,-3.1426,-3.0733,-3.0214,-2.9058,-2.7767,-2.7755,-2.7366,-2.6926,-2.6842,-2.6708,-2.6673,-2.7028,-2.6789,-2.6632,-2.7684,-2.7408,-2.6965,-2.764,-2.7707,-2.7705,-2.7899,-2.8403,-2.879,-2.8619,-2.856,-2.8233,-2.7376,-2.7164,-2.701,-2.6546,-2.6608,-2.6698,-2.6792,-2.6389,-2.5987,-2.5652,-2.4999,-2.4596,-2.4744,-2.4548,-2.4359,-2.4302,-2.4385,-2.4589,-2.4806,-2.4886,-2.5005,-2.5262,-2.5432,-2.5352,-2.5025,-2.5447,-2.541,-2.4984,-2.4874,-2.4762,-2.4627,-2.4292,-2.3851,-2.3338,-2.3391,-2.3011,-2.2327,-2.2382,-2.197,-2.1335,-2.1353,-2.1244,-2.1006,-2.1119,-2.0973,-2.0837]},{"header":{"parameterUnit":"m.s-1","parameterCategory":1,"la1":30.6,"la2":28.766,"lo1":-90.7593,"lo2":-88.6598,"dy":0.0162,"dx":0.0183,"nx":116,"ny":114,"refTime":"2023-08-26T12:00:00:Z","depth":0,"parameterNumber":3,"parameterNumberName":"V-component_of_WINDS"},"data":[0.0,0.0,0.0,0.0,0.0,0.0,0.0,0.0,0.0,0.0,0.0,0.0,0.0,0.0,0.0,0.0,0.0,0.0,0.0,0.0,0.0,0.0,0.0,0.0,0.0,0.0,0.0,0.0,0.0,0.0,0.0,0.0,0.0,0.0,0.0,0.0,0.0,0.0,0.0,0.0,0.0,0.0,0.0,0.0,0.0,0.0,0.0,0.0,0.0,0.0,0.0,0.0,0.0,0.0,0.0,0.0,0.0,0.0,0.0,0.0,0.0,0.0,0.0,0.0,0.0,0.0,0.0,0.0,0.0,0.0,0.0,0.0,0.0,0.0,0.0,0.0,0.0,0.0,0.0,0.0,0.0,0.0,0.0,0.0,0.0,0.0,0.0,0.0,0.0,0.0,0.0,0.0,0.0,0.0,0.0,0.0,0.0,0.0,0.0,0.0,0.0,0.0,0.0,0.0,0.0,0.0,0.0,0.0,0.0,0.0,0.0,0.0,0.0,0.0,0.0,0.0,0.0,0.0,0.0,0.0,0.0,0.0,0.0,0.0,0.0,0.0,0.0,0.0,0.0,0.0,0.0,0.0,0.0,0.0,0.0,0.0,0.0,0.0,0.0,0.0,0.0,0.0,0.0,0.0,0.0,0.0,0.0,0.0,0.0,0.0,0.0,0.0,0.0,0.0,0.0,0.0,0.0,0.0,0.0,0.0,0.0,0.0,0.0,0.0,0.0,0.0,0.0,0.0,0.0,0.0,0.0,0.0,0.0,0.0,0.0,0.0,0.0,0.0,0.0,0.0,0.0,0.0,0.0,0.0,0.0,0.0,0.0,0.0,0.0,0.0,0.0,0.0,0.0,0.0,0.0,0.0,0.0,0.0,0.0,0.0,0.0,0.0,0.0,0.0,0.0,0.0,0.0,0.0,0.0,0.0,0.0,0.0,0.0,0.0,0.0,0.0,0.0,0.0,0.0,0.0,0.0,0.0,0.0,0.0,0.0,0.0,0.0,0.0,0.0,0.0,0.0,0.0,0.0,0.0,0.0,0.0,0.0,0.0,0.0,0.0,0.0,0.0,0.0,0.0,0.0,0.0,0.0,0.0,0.0,0.0,0.0,0.0,0.0,0.0,0.0,0.0,0.0,0.0,0.0,0.0,0.0,0.0,0.0,0.0,0.0,0.0,0.0,0.0,0.0,0.0,0.0,0.0,0.0,0.0,0.0,0.0,0.0,0.0,0.0,0.0,0.0,0.0,0.0,0.0,0.0,0.0,0.0,0.0,0.0,0.0,0.0,0.0,0.0,0.0,0.0,0.0,0.0,0.0,0.0,0.0,0.0,0.0,0.0,0.0,0.0,0.0,0.0,0.0,0.0,0.0,0.0,0.0,0.0,0.0,0.0,0.0,0.0,0.0,0.0,0.0,0.0,0.0,0.0,0.0,0.0,0.0,0.0,0.0,0.0,0.0,0.0,0.0,0.0,0.0,0.0,0.0,0.0,0.0,0.0,0.0,0.0,0.0,0.0,0.0,0.0,0.0,0.0,0.0,0.0,0.0,0.0,0.0,0.0,0.0,0.0,0.0,0.0,0.0,0.0,0.0,0.0,0.0,0.0,0.0,0.0,0.0,0.0,0.0,0.0,0.0,0.0,0.0,0.0,0.0,0.0,0.0,0.0,0.0,0.0,0.0,0.0,0.0,0.0,0.0,0.0,0.0,0.0,0.0,0.0,0.0,0.0,0.0,0.0,0.0,0.0,0.0,0.0,0.0,0.0,0.0,0.0,0.0,0.0,0.0,0.0,0.0,0.0,0.0,0.0,0.0,0.0,0.0,0.0,0.0,0.0,0.0,0.0,0.0,0.0,0.0,0.0,0.0,0.0,0.0,0.0,0.0,0.0,0.0,0.0,0.0,0.0,0.0,0.0,0.0,0.0,0.0,0.0,0.0,0.0,0.0,0.0,0.0,0.0,0.0,0.0,0.0,0.0,0.0,0.0,0.0,0.0,0.0,0.0,0.0,0.0,0.0,0.0,0.0,0.0,0.0,0.0,0.0,0.0,0.0,0.0,0.0,0.0,0.0,0.0,0.0,0.0,0.0,0.0,0.0,0.0,0.0,0.0,0.0,0.0,0.0,0.0,0.0,0.0,0.0,0.0,0.0,0.0,0.0,0.0,0.0,0.0,0.0,0.0,0.0,0.0,0.0,0.0,0.0,0.0,0.0,0.0,0.0,0.0,0.0,0.0,0.0,0.0,0.0,0.0,0.0,0.0,0.0,0.0,0.0,0.0,0.0,0.0,0.0,0.0,0.0,0.0,0.0,0.0,0.0,0.0,0.0,0.0,0.0,0.0,0.0,0.0,0.0,0.0,0.0,0.0,0.0,0.0,0.0,0.0,0.0,0.0,0.0,0.0,0.0,0.0,0.0,0.0,0.0,0.0,0.0,0.0,0.0,0.0,0.0,0.0,0.0,0.0,0.0,0.0,0.0,0.0,0.0,0.0,0.0,0.0,0.0,0.0,0.0,0.0,0.0,0.0,0.0,0.0,0.0,0.0,0.0,0.0,0.0,0.0,0.0,0.0,0.0,0.0,0.0,0.0,0.0,0.0,0.0,0.0,0.0,0.0,0.0,0.0,0.0,0.0,0.0,0.0,0.0,0.0,0.0,0.0,0.0,0.0,0.0,0.0,0.0,0.0,0.0,0.0,0.0,0.0,0.0,0.0,0.0,0.0,0.0,0.0,0.0,0.0,0.0,0.0,0.0,0.0,0.0,0.0,0.0,0.0,0.0,0.0,0.0,0.0,0.0,0.0,0.0,0.0,0.0,0.0,0.0,0.0,0.0,0.0,0.0,0.0,0.0,0.0,0.0,0.0,0.0,0.0,0.0,0.0,0.0,0.0,0.0,0.0,0.0,0.0,0.0,0.0,0.0,0.0,0.0,0.0,0.0,0.0,0.0,0.0,0.0,0.0,0.0,0.0,0.0,0.0,0.0,0.0,0.0,0.0,0.0,0.0,0.0,0.0,0.0,0.0,0.0,0.0,0.0,0.0,0.0,0.0,0.0,0.0,0.0,0.0,0.0,0.0,0.0,0.0,0.0,0.0,0.0,0.0,0.0,0.0,0.0,0.0,0.0,0.0,0.0,0.0,0.0,0.0,0.0,0.0,0.0,0.0,0.0,0.0,0.0,0.0,0.0,0.0,0.0,0.0,0.0,0.0,0.0,0.0,0.0,0.0,0.0,0.0,0.0,0.0,0.0,0.0,0.0,0.0,0.0,0.0,0.0,0.0,0.0,0.0,0.0,0.0,0.0,0.0,0.0,0.0,0.0,0.0,0.0,0.0,0.0,0.0,0.0,0.0,0.0,0.0,0.0,0.0,0.0,0.0,0.0,0.0,0.0,0.0,0.0,0.0,0.0,0.0,0.0,0.0,0.0,0.0,0.0,0.0,0.0,0.0,0.0,0.0,0.0,0.0,0.0,0.0,0.0,0.0,0.0,0.0,0.0,0.0,0.0,0.0,0.0,0.0,0.0,0.0,0.0,0.0,0.0,0.0,0.0,0.0,0.0,0.0,0.0,0.0,0.0,0.0,0.0,0.0,0.0,0.0,0.0,0.0,0.0,0.0,0.0,0.0,0.0,0.0,0.0,0.0,0.0,0.0,0.0,0.0,0.0,0.0,0.0,0.0,0.0,0.0,0.0,0.0,0.0,0.0,0.0,0.0,0.0,0.0,0.0,0.0,0.0,0.0,0.0,0.0,0.0,0.0,0.0,0.0,0.0,0.0,0.0,0.0,0.0,0.0,0.0,0.0,0.0,0.0,0.0,0.0,0.0,0.0,0.0,0.0,0.0,0.0,0.0,0.0,0.0,0.0,0.0,0.0,0.0,0.0,0.0,0.0,0.0,0.0,0.0,0.0,0.0,0.0,0.0,0.0,0.0,0.0,0.0,0.0,0.0,0.0,0.0,0.0,0.0,0.0,0.0,0.0,0.0,0.0,0.0,0.0,0.0,0.0,0.0,0.0,0.0,0.0,0.0,0.0,0.0,0.0,0.0,0.0,0.0,0.0,0.0,0.0,0.0,0.0,0.0,0.0,0.0,0.0,0.0,0.0,0.0,0.0,0.0,0.0,0.0,0.0,0.0,0.0,0.0,0.0,0.0,0.0,0.0,0.0,0.0,0.0,0.0,0.0,0.0,0.0,0.0,0.0,0.0,0.0,0.0,0.0,0.0,0.0,0.0,0.0,0.0,0.0,0.0,0.0,0.0,0.0,0.0,0.0,0.0,0.0,0.0,0.0,0.0,0.0,0.0,0.0,0.0,0.0,0.0,0.0,0.0,0.0,0.0,0.0,0.0,0.0,0.0,0.0,0.0,0.0,0.0,0.0,0.0,0.0,0.0,0.0,0.0,0.0,0.0,0.0,0.0,0.0,0.0,0.0,0.0,0.0,0.0,0.0,0.0,0.0,0.0,0.0,0.0,0.0,0.0,0.0,0.0,0.0,0.0,0.0,0.0,0.0,0.0,0.0,0.0,0.0,0.0,0.0,0.0,0.0,0.0,0.0,0.0,0.0,0.0,0.0,0.0,0.0,0.0,0.0,0.0,0.0,0.0,0.0,0.0,0.0,0.0,0.0,0.0,0.0,0.0,0.0,0.0,0.0,0.0,0.0,0.0,0.0,0.0,0.0,0.0,0.0,0.0,0.0,0.0,0.0,0.0,0.0,0.0,0.0,0.0,0.0,0.0,0.0,0.0,0.0,0.0,0.0,0.0,0.0,0.0,0.0,0.0,0.0,0.0,0.0,0.0,0.0,0.0,0.0,0.0,0.0,0.0,0.0,0.0,0.0,0.0,0.0,0.0,0.0,0.0,0.0,0.0,0.0,0.0,0.0,0.0,0.0,0.0,0.0,0.0,0.0,0.0,0.0,0.0,0.0,0.0,0.0,0.0,0.0,0.0,0.0,0.0,0.0,0.0,0.0,0.0,0.0,0.0,0.0,0.0,0.0,0.0,0.0,0.0,0.0,0.0,0.0,0.0,0.0,0.0,0.0,0.0,0.0,0.0,0.0,0.0,0.0,0.0,0.0,0.0,0.0,0.0,0.0,0.0,0.0,0.0,0.0,0.0,0.0,0.0,0.0,0.0,0.0,0.0,0.0,0.0,0.0,0.0,0.0,0.0,0.0,0.0,0.0,0.0,0.0,0.0,0.0,0.0,0.0,0.0,0.0,0.0,0.0,0.0,0.0,0.0,0.0,0.0,0.0,0.0,0.0,0.0,0.0,0.0,0.0,0.0,0.0,0.0,0.0,0.0,0.0,0.0,0.0,0.0,0.0,0.0,0.0,0.0,0.0,0.0,0.0,0.0,0.0,0.0,0.0,0.0,0.0,0.0,0.0,0.0,0.0,0.0,0.0,0.0,0.0,0.0,0.0,0.0,0.0,0.0,0.0,0.0,0.0,0.0,0.0,0.0,0.0,0.0,0.0,0.0,0.0,0.0,0.0,0.0,0.0,0.0,0.0,0.0,0.0,0.0,0.0,0.0,0.0,0.0,0.0,0.0,0.0,0.0,0.0,0.0,0.0,0.0,0.0,0.0,0.0,0.0,0.0,0.0,0.0,0.0,0.0,0.0,0.0,0.0,0.0,0.0,0.0,0.0,0.0,0.0,0.0,0.0,0.0,0.0,0.0,0.0,0.0,0.0,0.0,0.0,0.0,0.0,0.0,0.0,0.0,0.0,0.0,0.0,0.0,0.0,0.0,0.0,0.0,0.0,0.0,0.0,0.0,0.0,0.0,0.0,0.0,0.0,0.0,0.0,0.0,0.0,0.0,0.0,0.0,0.0,0.0,0.0,0.0,0.0,0.0,0.0,0.0,0.0,0.0,0.0,0.0,0.0,0.0,0.0,0.0,0.0,0.0,0.0,0.0,0.0,0.0,0.0,0.0,0.0,0.0,0.0,0.0,0.0,0.0,0.0,0.0,0.0,0.0,0.0,0.0,0.0,0.0,0.0,0.0,0.0,0.0,0.0,0.0,0.0,0.0,0.0,0.0,0.0,0.0,0.0,0.0,0.0,0.0,0.0,0.0,0.0,0.0,0.0,0.0,0.0,0.0,0.0,-0.7284,-0.6579,0.0,0.0,0.0,0.0,0.0,0.0,0.0,0.0,0.0,0.0,0.0,0.0,0.0,0.0,0.0,0.0,0.0,0.0,0.0,0.0,0.0,0.0,0.0,0.0,0.0,0.0,0.0,0.0,0.0,0.0,0.0,0.0,0.0,0.0,0.0,0.0,0.0,0.0,0.0,0.0,0.0,0.0,0.4673,0.479,0.0,0.0,0.0,0.0,0.0,0.0,0.0,0.0,0.0,0.0,0.0,0.0,0.0,0.0,0.0,0.0,0.0,0.0,0.0,0.0,0.0,0.0,0.0,0.0,0.0,0.0,0.0,0.0,0.0,0.0,0.0,0.0,0.0,0.0,0.0,0.0,0.0,0.0,0.0,0.0,0.0,0.0,0.0,0.0,0.0,0.0,0.0,0.0,0.0,0.0,0.0,0.0,0.0,0.0,0.0,0.0,0.0,0.0,0.0,0.0,0.0,0.0,0.0,0.0,0.0,0.0,0.0,0.0,0.0,0.0,-0.8481,-0.783,0.0,0.0,0.0,0.0,0.0,0.0,0.0,0.0,0.0,0.0,0.0,0.0,0.0,0.0,0.0,0.0,0.0,0.0,0.0,0.0,0.0,0.0,0.0,0.0,0.0,0.0,0.0,0.0,0.0,0.0,0.0,0.0,0.0,0.0,0.0,0.0,0.0,0.0,0.0,0.0,0.0,0.5375,0.549,0.5365,0.5468,0.0,0.0,0.0,0.0,0.0,0.0,0.0,0.0,0.0,0.0,0.0,0.0,0.0,0.0,0.0,0.0,0.0,0.0,0.0,0.0,0.0,0.0,0.0,0.0,0.0,0.0,0.0,0.0,0.0,0.0,0.0,0.0,0.0,0.0,0.0,0.0,0.0,0.0,0.0,0.0,0.0,0.0,0.0,0.0,0.0,0.0,0.0,0.0,0.0,0.0,0.0,0.0,0.0,0.0,0.0,0.0,0.0,0.0,0.0,0.0,0.0,0.0,0.0,-1.0339,-1.062,-1.1284,-1.097,-1.0785,-1.068,-0.9755,-0.9329,-0.9289,-0.8949,0.0,0.0,0.0,0.0,0.0,0.0,0.0,0.0,0.0,0.0,0.0,0.0,0.0,0.0,0.0,0.0,0.0,0.0,0.0,0.0,0.0,0.4431,0.463,0.4418,0.4731,0.491,0.0,0.0,0.0,0.0,0.0,0.0,0.0,0.0,0.0,0.0,0.0,0.5264,0.516,0.5632,0.6348,0.7231,0.6832,0.6829,0.7084,0.0,0.0,0.0,0.0,0.0,0.0,0.0,0.0,0.0,0.0,0.0,0.0,0.0,0.0,0.0,0.0,0.0,0.0,0.0,0.0,0.0,0.0,0.0,0.0,0.0,0.0,0.0,0.0,0.0,0.0,0.0,0.0,0.0,0.0,0.0,0.0,0.0,0.0,0.0,0.0,0.0,-1.4537,-1.5827,0.0,0.0,0.0,0.0,0.0,0.0,0.0,0.0,0.0,0.0,0.0,0.0,0.0,-1.0361,-1.0366,-1.0675,-1.1135,-1.1668,-1.1895,-1.2149,-1.2488,-1.2603,-1.2586,-1.248,-1.2335,0.0,-0.9799,-1.0457,0.0,0.0,0.0,0.0,0.0,0.0,0.0,0.0,0.0,0.0,0.0,0.0,0.0,0.0,0.0,0.0,0.0,0.0,0.0,0.0,0.0,0.4442,0.4834,0.4656,0.5025,0.5255,0.5239,0.0,0.0,0.0,0.0,0.0,0.0,0.0,0.0,0.0,0.5972,0.6046,0.5933,0.657,0.7177,0.7784,0.808,0.8337,0.8541,0.8556,0.0,0.0,0.0,0.0,0.0,0.0,0.0,0.0,0.0,0.0,0.0,0.0,0.0,0.0,0.0,0.0,0.0,0.0,0.0,0.0,0.0,0.0,0.0,0.0,0.0,0.0,0.0,0.0,0.0,0.0,0.0,0.0,0.0,0.0,0.0,0.0,0.0,0.0,0.0,-1.4878,-1.7108,-1.7256,-1.5821,-1.4313,0.0,0.0,0.0,0.0,0.0,0.0,0.0,0.0,0.0,-1.2352,-1.2111,-1.2024,-1.2181,-1.2271,-1.2466,-1.2862,-1.2896,-1.3105,-1.3447,-1.3447,-1.3348,-1.3161,-1.321,-1.267,-1.1777,-1.1598,-1.1157,-1.0523,0.0,0.0,0.0,0.0,-1.1655,-1.1913,0.0,0.0,0.0,0.0,0.0,0.0,0.0,0.0,0.0,0.0,0.0,0.0,0.3791,0.4504,0.5016,0.4923,0.5339,0.5616,0.5718,0.5753,0.0,0.0,0.0,0.0,0.0,0.0,0.0,0.5906,0.641,0.6694,0.6819,0.7449,0.8061,0.868,0.9192,0.9586,0.9846,0.9563,0.9572,0.9768,0.0,0.0,0.0,0.0,0.0,0.0,0.0,0.0,0.0,0.0,0.0,0.0,0.0,0.0,0.0,0.0,0.0,0.0,0.0,0.0,0.0,0.0,0.0,0.0,0.0,0.0,0.0,0.0,0.0,0.0,0.0,0.0,0.0,0.0,0.0,0.0,0.0,-1.6143,-1.8117,-1.7502,-1.6378,-1.4832,0.0,0.0,0.0,0.0,0.0,0.0,-1.3269,-1.3242,-1.339,-1.3803,-1.3618,-1.3541,-1.3591,-1.3399,-1.3479,-1.375,-1.3735,-1.3879,-1.4282,-1.4206,-1.4118,-1.3987,-1.3872,-1.381,-1.368,-1.2706,-1.2189,-1.2024,-1.2006,-1.2343,-1.2923,-1.3433,-1.3774,-1.3997,0.0,0.0,0.0,0.0,0.0,0.0,0.0,0.0,0.0,0.0,0.0,0.4184,0.4179,0.4745,0.5125,0.5268,0.5611,0.5929,0.632,0.5777,0.5651,0.621,0.0,0.0,0.0,0.0,0.0,0.572,0.6424,0.707,0.7639,0.7932,0.8985,1.0639,1.0178,1.0169,1.0537,1.039,1.1002,1.1933,1.0498,0.0,0.0,0.0,0.0,0.0,0.0,0.0,0.0,0.0,0.0,0.0,0.0,0.0,0.0,0.0,0.0,0.0,0.0,0.0,0.0,0.0,0.0,0.0,0.0,0.0,0.0,0.0,0.0,0.0,0.0,0.0,0.0,0.0,0.0,0.0,0.0,0.0,0.0,-1.7611,-1.6972,0.0,0.0,0.0,0.0,-1.2973,-1.31,-1.3441,-1.4171,-1.4807,-1.4963,-1.4489,-1.4666,-1.4548,-1.4048,-1.3638,-1.37,-1.4289,-1.4384,-1.4662,-1.5022,-1.5214,-1.5377,-1.5368,-1.4876,-1.4811,-1.5,-1.3899,-1.3511,-1.3682,-1.3665,-1.3903,-1.4287,-1.4483,-1.4851,-1.5308,0.0,0.0,0.0,0.0,0.0,0.0,0.0,0.0,0.0,0.3262,0.3785,0.4215,0.4384,0.4893,0.5391,0.5858,0.6047,0.6283,0.6557,0.6401,0.6233,0.6108,0.0,0.0,0.0,0.0,0.6598,0.7133,0.7423,0.7918,0.8609,0.9024,0.9749,1.0743,1.0898,1.1247,1.1707,1.1101,1.1434,1.2287,1.1895,1.1929,0.0,0.0,0.0,0.0,0.0,0.0,0.0,0.0,0.0,0.0,0.0,0.0,0.0,0.0,0.0,0.0,0.0,0.0,0.0,0.0,0.0,0.0,0.0,0.0,0.0,0.0,0.0,0.0,0.0,0.0,0.0,0.0,0.0,0.0,0.0,0.0,0.0,-1.8513,-1.7381,0.0,-1.4194,-1.3677,-1.3593,-1.3905,-1.4462,-1.5076,-1.5818,-1.6166,-1.618,-1.591,-1.6035,-1.5723,-1.5089,-1.4787,-1.4753,-1.4911,-1.5051,-1.5145,-1.5314,-1.5909,-1.5814,-1.5245,-1.538,-1.5155,-1.4772,-1.4303,-1.42,-1.44,-1.4264,-1.4658,-1.533,-1.5459,-1.6039,-1.6694,0.0,0.0,0.0,0.0,0.0,0.0,0.0,0.0,0.0,0.3414,0.387,0.4295,0.4617,0.5101,0.5609,0.6191,0.6378,0.6586,0.6881,0.6719,0.6514,0.6283,0.6344,0.0,0.0,0.6852,0.7348,0.7986,0.8253,0.8731,0.9349,0.997,1.0677,1.1475,1.1895,1.2491,1.3189,1.2822,1.2811,1.3094,1.3094,1.338,1.3677,0.0,0.0,0.0,0.0,0.0,0.0,0.0,0.0,0.0,0.0,0.0,0.0,0.0,0.0,0.0,0.0,0.0,0.0,0.0,0.0,0.0,0.0,0.0,0.0,0.0,0.0,0.0,0.0,0.0,0.0,0.0,0.0,0.0,0.0,-1.8828,-1.9092,-1.815,-1.7483,-1.6425,-1.4754,-1.4742,-1.4944,-1.511,-1.5648,-1.6243,-1.6732,-1.7067,-1.7053,-1.6647,-1.6795,-1.6519,-1.5785,-1.5598,-1.5482,-1.5429,-1.5697,-1.5845,-1.5806,-1.6601,-1.6486,-1.5755,-1.6027,-1.5861,-1.536,-1.5213,-1.529,-1.5463,-1.4866,-1.528,-1.6156,-1.636,-1.6968,-1.7798,0.0,0.0,0.0,0.0,0.0,0.0,0.0,0.3158,0.3458,0.3667,0.4116,0.4527,0.4857,0.5313,0.5803,0.6277,0.6417,0.6713,0.724,0.6628,0.6401,0.6766,0.0,0.0,0.7031,0.7495,0.7909,0.8247,0.8896,0.946,0.9898,1.0759,1.1786,1.2958,1.316,1.3846,1.4849,1.5475,1.5266,1.4479,1.4142,1.4587,1.5244,0.0,0.0,0.0,0.0,0.0,0.0,0.0,0.0,0.0,0.0,0.0,0.0,0.0,0.0,0.0,0.0,0.0,0.0,0.0,0.0,0.0,0.0,0.0,0.0,0.0,0.0,0.0,0.0,0.0,0.0,0.0,0.0,0.0,-1.6818,-1.7306,-1.7376,-1.6529,-1.728,-1.7262,-1.5663,-1.6079,-1.6423,-1.6481,-1.6686,-1.6798,-1.6818,-1.7539,-1.7503,-1.6538,-1.703,-1.6928,-1.623,-1.5919,-1.5799,-1.5753,-1.6397,-1.6718,-1.6711,-1.7258,-1.7353,-1.711,-1.6994,-1.6927,-1.6826,-1.6674,-1.6817,-1.7072,-1.5764,-1.5903,-1.6927,-1.7135,-1.7754,-1.8466,0.0,0.0,0.0,0.0,0.0,0.0,0.0,0.2978,0.3162,0.3516,0.3959,0.448,0.5136,0.5515,0.601,0.6701,0.6721,0.6845,0.7132,0.6717,0.6572,0.0,0.0,0.0,0.7636,0.8068,0.8544,0.9048,0.933,1.0169,1.1497,1.1865,1.2763,1.3997,1.4338,1.4674,1.5007,1.5813,1.6325,1.6636,1.6704,1.7047,1.7432,0.0,0.0,0.0,0.0,0.0,0.0,0.0,0.0,0.0,0.0,0.0,0.0,0.0,0.0,0.0,0.0,0.0,0.0,0.0,0.0,0.0,0.0,0.0,0.0,0.0,0.0,0.0,0.0,0.0,0.0,0.0,-1.6484,-1.7032,-1.7247,-1.765,-1.7708,-1.713,-1.6997,-1.664,-1.5818,-1.6255,-1.6594,-1.6514,-1.7024,-1.7363,-1.747,-1.8217,-1.8307,-1.746,-1.8125,-1.8027,-1.7101,-1.7178,-1.733,-1.7426,-1.7351,-1.7502,-1.7953,-1.7953,-1.7737,-1.742,-1.7508,-1.7097,-1.6319,-1.6497,-1.6522,-1.636,-1.6235,-1.6555,-1.7162,-1.7515,-1.799,-1.8477,0.0,0.0,0.0,0.0,0.0,0.0,0.0,0.3017,0.3191,0.3688,0.4107,0.4591,0.5309,0.5729,0.6136,0.6702,0.6875,0.6907,0.6847,0.6783,0.675,0.0,0.0,0.7853,0.8083,0.8602,0.9153,0.9645,1.0089,1.0931,1.2193,1.2693,1.3594,1.4814,1.5538,1.6051,1.646,1.7622,1.8478,1.9,1.9058,1.9139,1.9079,1.8195,1.78,1.7544,1.6317,1.5789,1.5532,1.4722,0.0,0.0,0.0,0.0,0.0,0.0,0.0,0.0,0.0,0.0,0.0,0.0,0.0,0.0,0.0,0.0,0.0,0.0,0.0,0.0,0.0,0.0,0.0,0.0,-1.648,-1.693,-1.7115,-1.7569,-1.7978,-1.8306,-1.7821,-1.7497,-1.7508,-1.7598,-1.7555,-1.7318,-1.7616,-1.7807,-1.7905,-1.8501,-1.8541,-1.794,-1.8682,-1.8665,-1.7786,-1.8107,-1.8308,-1.8332,-1.8275,-1.8356,-1.8601,-1.855,-1.8231,-1.7691,-1.7848,-1.7397,-1.6706,-1.7063,-1.7098,-1.6903,0.0,0.0,0.0,0.0,-1.8658,-1.8985,0.0,0.0,0.0,0.0,0.0,0.0,0.0,0.3158,0.3392,0.3945,0.432,0.4798,0.5431,0.588,0.6216,0.6483,0.6828,0.6894,0.6574,0.6804,0.0,0.7049,0.7704,0.8151,0.839,0.9064,0.9629,0.9999,1.0812,1.1646,1.2422,1.3355,1.4379,1.5431,1.6613,1.7573,1.8393,1.9876,2.0734,2.1082,2.0974,2.0732,2.0388,1.9439,1.9234,1.9321,1.8645,1.8015,1.7457,1.7156,0.0,0.0,0.0,0.0,0.0,0.0,0.0,0.0,0.0,0.0,0.0,0.0,0.0,0.0,0.0,0.0,0.0,0.0,0.0,0.0,0.0,0.0,0.0,0.0,-1.6485,-1.7084,-1.6912,-1.7405,-1.8261,-1.9432,-1.9076,-1.8975,-1.968,-1.9194,-1.8698,-1.8445,-1.8337,-1.8267,-1.835,-1.8659,0.0,0.0,0.0,-1.9082,-1.8504,-1.8879,-1.9017,-1.8908,-1.9175,-1.9202,-1.8865,-1.8952,-1.8638,-1.8112,-1.8031,-1.7772,-1.7415,-1.7861,-1.804,-1.7963,-1.7089,-1.7147,-1.7841,-1.8909,-1.9431,-1.9669,0.0,0.0,0.0,0.0,0.0,0.0,0.0,0.2909,0.3232,0.357,0.4306,0.4936,0.5293,0.5883,0.635,0.6564,0.6641,0.6755,0.68,0.7176,0.7435,0.7478,0.8036,0.839,0.8541,0.9221,0.9725,0.9999,1.1068,1.2085,1.3059,1.4014,1.4995,1.6001,1.6964,1.7799,1.8497,1.9401,2.0366,2.1238,2.1176,2.1303,2.1499,2.0633,2.0513,2.0685,1.9787,2.002,2.0549,1.9436,1.9066,1.9,1.8481,1.7491,0.0,0.0,0.0,0.0,0.0,0.0,0.0,0.0,0.0,0.0,0.0,0.0,0.0,0.0,0.0,0.0,0.0,0.0,0.0,-1.6233,-1.6559,-1.7125,-1.8362,-1.8469,-1.839,-1.8334,-1.8569,-1.8748,-1.8839,-1.8528,-1.8344,-1.8394,-1.8511,-1.8764,-1.9057,-1.9855,-2.0038,-1.9566,-2.0091,-2.0068,-1.9594,-1.9671,-1.9895,-2.0236,-1.984,0.0,-1.9974,-1.9099,-1.8843,-1.8984,-1.8514,-1.802,-1.7525,-1.7831,-1.8121,-1.8318,-1.8091,-1.841,-1.8967,-1.9028,-1.9303,-1.969,0.0,0.0,0.0,0.0,0.0,0.0,0.0,0.3001,0.3403,0.3686,0.4326,0.4893,0.5227,0.557,0.5923,0.6213,0.6396,0.6639,0.6938,0.7343,0.7639,0.7905,0.8344,0.8679,0.889,0.9569,1.0043,1.0257,1.1461,1.2427,1.3186,1.4345,1.5438,1.6471,1.7648,1.8625,1.9524,2.0472,2.1415,2.2189,2.2142,2.2245,2.2375,2.1502,2.1313,2.1479,2.1213,2.1376,2.1588,2.083,2.0661,2.0592,1.9877,1.9208,1.8328,0.0,0.0,0.0,0.0,0.0,0.0,0.0,0.0,0.0,0.0,0.0,0.0,0.0,0.0,-1.6248,-1.5276,0.0,-1.6099,-1.6512,-1.7063,-1.7735,-1.8684,-1.9174,-1.9354,-1.925,-1.9172,-1.9246,-1.9576,-1.9152,-1.8913,-1.8839,-1.8868,-1.9073,-1.9453,-1.991,-1.9991,-1.9867,-2.0246,-2.0167,-1.9771,-2.0061,-2.0352,-2.0411,-2.0284,-2.013,-2.0098,-1.9422,-1.9127,-1.9152,-1.8594,-1.8089,-1.7598,-1.7632,-1.804,-1.8585,-1.8558,-1.8831,-1.9125,-1.9238,-1.9459,-1.9645,0.0,0.0,0.0,0.0,0.0,0.0,0.0,0.0,0.3581,0.3885,0.4368,0.4808,0.5161,0.5257,0.5448,0.5858,0.6185,0.6607,0.0,0.7388,0.7771,0.8156,0.8573,0.8917,0.9249,0.9881,1.0389,1.0773,1.1957,1.2788,1.3369,1.4792,1.596,1.6997,1.8348,1.9537,2.0584,2.1637,2.2482,2.3148,2.293,2.2889,2.2843,2.213,2.1888,2.1983,2.2278,2.2146,2.1885,2.1792,2.1579,2.1201,2.0467,2.0172,1.9287,1.5286,1.3356,0.0,0.0,0.0,0.0,0.0,0.0,0.0,0.0,-1.718,-1.6771,-1.713,-1.7132,-1.6871,-1.6238,-1.6476,-1.6802,-1.6974,-1.7664,-1.8312,-1.8783,-1.9516,-2.0057,-2.0299,-2.0002,-1.9951,-2.0607,-1.9997,-1.9586,-1.9603,-1.9401,-1.9462,-1.9906,-1.9807,-1.989,-2.0036,-2.0257,-2.022,-1.9907,-2.0391,-2.0615,-2.0546,-2.0693,-2.0537,-2.0065,-1.9916,-1.9552,-1.9082,-1.8603,-1.8193,-1.7781,-1.7635,-1.804,-1.8709,-1.8861,-1.9048,-1.9199,-1.9519,-1.9734,-1.9869,0.0,0.0,0.0,0.0,0.0,0.0,0.0,0.0,0.0,0.4028,0.4534,0.4961,0.5159,0.5256,0.5425,0.5788,0.6169,0.6654,0.7211,0.7553,0.7859,0.8168,0.8474,0.8911,0.946,1.006,1.0794,1.1662,1.2527,1.3363,1.4279,1.5635,1.6726,1.7541,1.8805,1.9924,2.0911,2.1502,2.2396,2.3301,2.2592,2.2413,2.2591,2.2277,2.2263,2.242,2.2263,2.2183,2.2178,2.2345,2.1829,2.1175,2.1354,2.0433,1.8309,1.3256,1.0545,0.7312,-0.1134,-0.7702,-1.3015,-1.6554,-1.7281,-1.7915,0.0,-1.9809,-1.8309,-1.826,-1.7966,-1.7544,-1.7076,-1.671,-1.6959,-1.836,-1.8283,-1.8473,-1.9529,-1.9438,-1.9323,-1.9683,-1.9998,-2.0371,-2.074,-2.0018,-1.9782,-2.0516,-2.0205,-2.0196,-2.0645,-2.0675,-2.0731,-2.1044,-2.0884,-2.0904,-2.1048,-2.0702,-2.084,-2.1392,-2.1242,-2.0992,-2.0813,-2.0732,-2.0301,-1.9478,-1.8763,-1.8282,-1.7951,-1.8201,-1.8442,-1.8736,-1.948,-1.9779,-1.9779,-1.9861,-2.0245,-2.0754,0.0,0.0,0.0,0.0,0.0,0.0,0.0,0.0,0.0,0.0,0.4132,0.4339,0.4581,0.4927,0.5256,0.5589,0.6164,0.0,0.7002,0.75,0.8002,0.8421,0.8791,0.9109,0.9454,1.0098,1.0651,1.1059,1.23,1.3255,1.3875,1.5761,1.71,1.7864,1.9276,2.0437,2.1384,2.1558,2.225,2.317,2.2485,2.2456,2.2857,2.2734,2.2612,2.2527,2.2161,2.2091,0.0,2.1279,2.0952,2.069,2.0087,1.9708,1.8311,1.2291,0.9323,0.5648,-0.5225,-1.1652,-1.585,-1.8096,-1.8724,-1.9186,-2.0616,-1.9636,-1.847,-1.8905,-1.8429,-1.789,-1.7578,-1.7538,-1.7806,-1.8412,-1.8441,-1.8654,-1.9386,-1.9372,-1.9253,-1.9296,-1.9634,-1.9975,-2.0307,-2.0275,-2.0224,-2.0339,-2.0216,-2.0204,-2.0446,-2.0372,-2.042,-2.0867,-2.0498,-2.0546,-2.1046,-2.0709,-2.0851,-2.1284,-2.1202,-2.1192,-2.1081,-2.0917,-2.029,-1.9426,-1.8947,-1.849,-1.804,-1.8121,-1.8442,-1.8949,-1.9263,-1.9795,-2.0279,-2.0264,-2.0467,-2.0634,0.0,0.0,0.0,0.0,0.0,0.0,0.0,0.0,0.0,0.0,0.0,0.3821,0.4199,0.4602,0.5039,0.5475,0.5985,0.0,0.0,0.7479,0.8081,0.8626,0.8949,0.9306,0.9595,1.024,1.0653,1.0914,1.2353,1.3332,1.3846,1.6095,1.7559,1.8384,1.9756,2.0927,2.1827,2.1825,2.2211,2.2824,2.2377,2.2431,2.2758,2.2568,2.2429,2.2275,2.216,2.1766,2.1243,2.026,1.9706,1.9195,1.8229,1.7515,1.5793,0.9336,0.4576,-0.0462,-0.9073,-1.42,-1.7288,-1.8213,-1.9208,-1.9999,-1.9891,-1.9023,-1.8452,-1.9163,-1.8594,-1.8065,-1.8154,-1.8291,-1.8445,-1.8552,-1.8584,-1.8765,-1.9291,-1.9198,-1.9075,-1.9075,-1.9274,-1.9492,-1.9768,-2.0172,-2.0391,-2.0429,-2.0293,-2.0296,-2.0411,-2.0183,-2.0293,-2.0732,-2.0244,-2.0366,-2.1163,-2.0876,-2.0933,-2.1474,-2.1474,-2.1465,-2.1352,-2.0978,-2.0292,-1.9515,-1.9194,-1.8646,-1.8049,-1.8232,-1.8681,-1.9093,-1.9362,-1.9979,-2.0688,-2.0541,-2.0594,-2.0809,0.0,0.0,0.0,0.0,0.0,0.0,0.0,0.0,0.0,0.0,0.0,0.0,0.0,0.4466,0.479,0.5458,0.5503,0.0,0.0,0.7455,0.7986,0.8738,0.8903,0.9358,1.0144,1.047,1.1013,1.1975,1.2976,1.3902,1.4802,1.6857,1.8301,1.9179,2.0375,2.1336,2.2185,2.2347,2.2333,2.2342,2.2321,2.2128,2.1907,2.1453,2.1389,2.1626,2.233,2.1302,1.9598,1.9738,1.8245,1.6292,1.5979,1.3408,0.9274,0.3073,-0.6046,-1.3968,-1.3209,-1.5961,-1.8721,-1.7535,-1.8631,-1.9841,-1.9204,-1.8747,-1.8622,-1.9026,-1.8412,-1.806,-1.8912,-1.8701,-1.8601,-1.917,-1.8844,-1.8777,-1.9473,-1.8952,-1.8684,-1.9065,-1.9137,-1.9223,-1.9223,-1.9493,-2.0028,-2.1104,-2.0847,-2.0692,-2.0886,-2.0712,-2.0752,-2.1201,-2.0564,-2.0748,-2.1753,-2.1173,-2.1313,-2.2159,-2.2159,-2.1988,-2.1797,-2.1109,-2.0532,-1.9916,-1.9506,-1.8801,-1.8066,-1.8927,-1.925,-1.9368,-2.0161,-2.0723,-2.1025,-2.0649,-2.093,-2.1444,0.0,0.0,0.0,0.0,0.0,0.0,0.0,0.0,0.0,0.0,0.0,0.0,0.0,0.0,0.0,0.0,0.5588,0.5996,0.6455,0.7115,0.7745,0.8402,0.8795,0.926,0.9782,1.0211,1.0745,1.1391,1.2661,1.3635,1.4321,1.6543,1.79,1.8463,1.9681,2.0532,2.0985,2.087,2.1039,2.1341,2.1128,2.1212,2.1497,2.1554,2.1044,2.0285,0.0,2.0128,1.9045,1.6911,1.471,1.2522,1.0913,0.9071,0.6377,0.0677,-0.6175,-1.2142,-1.3278,-1.491,-1.6429,-1.6928,-1.7744,-1.833,-1.8479,-1.8202,-1.8056,-1.8338,-1.7845,-1.7427,-1.7705,-1.7644,-1.753,-1.783,-1.7701,-1.7809,-1.8432,-1.8449,-1.8449,-1.8377,-1.8666,-1.8901,-1.9053,-1.9776,-2.0302,-2.0345,-2.0641,-2.0664,-2.0264,-2.0177,-2.0165,-2.0308,-2.0132,-2.0389,-2.1089,-2.1062,-2.1409,-2.2155,-2.2417,-2.2505,-2.2233,-2.2168,-2.1702,-2.095,-2.0355,-1.9913,-1.9419,-1.9469,-1.9824,-2.0328,-2.0466,-2.0763,-2.1147,-2.0946,-2.0833,-2.0846,0.0,0.0,0.0,0.0,0.0,0.0,0.0,0.0,0.0,0.0,0.0,0.0,0.0,0.0,0.0,0.0,0.0,0.5826,0.603,0.0,0.7499,0.8237,0.8531,0.8931,0.9548,0.9795,1.0244,1.0864,1.225,1.3227,1.383,1.596,1.7216,1.7588,1.8781,1.9553,1.9887,1.9972,2.0222,2.0494,2.024,2.031,2.0539,2.0268,1.9606,0.0,1.8418,1.7996,1.7166,1.435,1.1743,0.9253,0.6618,0.4167,0.1355,-0.3501,-0.7564,-1.0882,-1.2773,-1.4176,-1.5206,-1.5478,-1.6592,-1.7556,-1.735,-1.7706,-1.8105,-1.8163,-1.7841,-1.7473,-1.7373,-1.713,-1.6992,-1.7164,-1.7025,-1.7226,-1.8086,-1.8187,-1.8241,-1.8407,-1.8569,-1.8706,-1.8985,-1.9697,-2.0017,-1.9856,-2.0255,-2.0342,-1.9942,-2.0084,-2.0231,-2.0442,-2.0318,-2.056,-2.1286,-2.1225,-2.1493,-2.2097,-2.2451,-2.2451,-2.2264,-2.228,-2.2063,-2.1435,-2.0789,-2.0352,-2.0138,-1.9895,-2.0207,-2.0808,-2.0576,-2.0865,-2.1371,-2.0992,-2.0824,-2.0714,0.0,0.0,0.0,0.0,0.0,0.0,0.0,0.0,0.0,0.0,0.0,0.0,0.0,0.0,0.0,0.0,0.0,0.0,0.5925,0.0,0.0,0.827,0.8098,0.8468,0.946,0.929,0.9658,1.0516,1.181,1.2771,1.3416,1.5173,1.6203,1.6696,1.7667,1.8419,1.8906,1.9518,1.971,1.9576,1.9482,1.9296,1.891,1.7644,1.7299,1.7277,1.6187,1.5159,1.4057,1.2083,0.9289,0.6078,0.2865,-0.1178,-0.5424,-0.8989,-1.0313,-1.0863,-1.1996,-1.3857,-1.5077,-1.3361,-1.5256,-1.7275,-1.6039,-1.7235,-1.8556,-1.8405,-1.8237,-1.8022,-1.775,-1.7139,-1.6768,-1.7236,-1.6864,-1.7034,-1.8375,-1.8076,-1.8093,-1.9073,-1.8848,-1.873,-1.8969,-1.9174,-1.9345,-1.9678,-1.983,-1.9891,-1.9901,-2.0377,-2.0799,-2.1302,-2.0977,-2.1163,-2.2031,-2.1677,-2.1696,-2.2097,-2.2097,-2.2097,-2.2078,-2.1745,-2.1558,-2.1549,-2.0629,-2.0277,-2.0277,-2.0277,-2.0512,-2.0829,-2.0619,-2.1034,-2.164,-2.0869,-2.0805,-2.1163,0.0,0.0,0.0,0.0,0.0,0.0,0.0,0.0,0.0,0.0,0.0,0.0,0.0,0.0,0.0,0.0,0.0,0.0,0.5303,0.0,0.0,0.0,0.0,0.0,0.0,0.0,0.0,1.0503,1.1509,1.2311,1.2899,1.4185,1.509,1.5741,1.5966,1.6392,1.699,1.6946,1.6814,1.6711,1.7303,1.7223,1.6819,1.6974,1.6757,1.6436,1.6778,1.4995,1.2104,0.9621,0.4361,-0.1505,-0.3546,-0.5901,-0.7954,-0.8044,-0.9354,-1.0898,-1.1646,-1.2759,-1.3688,-1.341,-1.4706,-1.6016,-1.581,-1.6473,-1.6982,-1.6609,-1.6149,-1.5645,-1.4796,-1.47,-1.4937,-1.5482,-1.578,-1.6438,-1.7783,-1.7791,-1.7796,-1.8286,-1.8341,-1.8322,-1.854,-1.8592,-1.8775,-1.9146,-1.994,-2.0254,-1.9931,-2.0319,-2.0412,-2.032,-2.0629,-2.0753,-2.068,-2.1328,-2.1808,-2.2097,-2.2264,-2.2441,-2.2608,-2.2188,-2.2256,-2.2669,-2.1579,-2.1278,-2.1381,-2.0903,-2.093,-2.1281,-2.1084,-2.1369,-2.198,-2.1502,-2.1291,-2.125,0.0,0.0,0.0,0.0,0.0,0.0,0.0,0.0,0.0,0.0,0.0,0.0,0.0,0.0,0.0,0.0,0.0,0.0,0.0,0.5556,0.0,0.0,0.0,0.0,0.0,0.0,0.0,0.0,0.0,0.0,1.1931,1.2822,1.3453,1.3941,1.4129,1.4418,1.4731,1.5072,0.0,0.0,0.0,1.574,1.5286,1.5319,1.5461,1.5487,1.3863,1.0527,0.6471,0.4025,-0.056,-0.5428,-0.6505,-0.7832,-0.8943,-0.862,-0.9583,-1.0868,-1.1522,-1.233,-1.3049,-1.3078,-1.4066,-1.4963,-1.4838,-1.5726,-1.6273,-1.5503,-1.5237,-1.4874,-1.405,-1.3939,-1.4206,-1.478,-1.5169,-1.5909,-1.7442,-1.7334,-1.7505,-1.8406,-1.8257,-1.8235,-1.8641,-1.8752,-1.886,-1.9075,-1.9715,-2.009,-1.985,-2.0313,-2.0516,-2.0129,-2.0725,-2.0941,-2.0725,-2.1255,-2.1651,-2.1839,-2.2097,-2.2264,-2.2344,-2.2111,-2.2409,-2.2921,-2.1796,-2.1512,-2.1779,-2.0922,-2.0847,-2.1262,-2.1001,-2.1383,-2.2097,-2.1919,-2.1762,-2.1761,0.0,0.0,0.0,0.0,0.0,0.0,0.0,0.0,0.0,0.0,0.0,0.0,0.0,0.0,0.0,0.0,0.0,0.0,0.0,0.0,0.0,0.0,0.0,0.0,0.8325,0.85,0.8848,0.9418,1.0128,1.0573,0.0,0.0,0.0,0.0,0.0,0.0,0.0,0.0,0.0,1.3925,1.4495,1.4488,1.4032,0.0,0.0,1.4423,0.9577,0.4742,0.0296,-0.2124,-0.4595,-0.6717,-0.7068,-0.7935,-0.893,-0.9492,-1.004,-1.0618,-1.1323,-1.2166,-1.2806,-1.2781,-1.3645,-1.4391,-1.3874,-1.5041,-1.5826,-1.4708,-1.4674,-1.4639,-1.411,-1.3895,-1.399,-1.4626,-1.4808,-1.549,-1.7149,-1.6931,-1.7151,-1.8619,-1.838,-1.8239,-1.8798,-1.9029,-1.9185,-1.9156,-1.9484,-1.9755,-1.9915,-2.047,-2.0685,-2.0518,-2.0935,-2.1194,-2.1392,-2.1392,-2.1392,-2.1401,-2.1839,-2.1919,-2.1722,-2.1755,-2.214,-2.2755,-2.1721,-2.14,-2.1684,-2.0641,-2.0523,-2.0998,-2.0649,-2.1188,-2.2097,-2.2097,-2.2264,-2.2441,0.0,0.0,0.0,0.0,0.0,0.0,0.0,0.0,0.0,0.0,0.216,0.2481,0.0,0.0,0.0,0.0,0.0,0.0,0.0,0.0,0.0,0.0,0.0,0.0,0.7637,0.7795,0.8068,0.8531,0.8763,0.9059,0.0,0.0,0.0,0.0,0.0,0.0,0.0,0.0,0.0,1.1875,1.2648,1.2796,1.2545,0.0,0.0,0.0,0.7822,0.4022,0.0971,-0.2901,-0.4887,-0.5831,-0.5973,-0.7018,-0.811,-0.759,-0.8313,-0.945,-1.0246,-1.1223,-1.2219,-1.3171,-1.4275,-1.4985,-1.4586,-1.4772,-1.4589,-1.3182,-1.2996,-1.2885,-1.2155,-1.2672,-1.332,-1.3598,-1.4344,-1.533,-1.6456,-1.6351,-1.6584,-1.7838,-1.7744,-1.7682,-1.8158,-1.8629,-1.8984,-1.9221,-1.9713,-2.0183,-2.0584,-2.0696,-2.0729,-2.0648,-2.0088,-2.0263,-2.1087,-2.1087,-2.1195,-2.1392,-2.1651,-2.183,-2.1998,-2.1668,-2.1966,-2.2755,-2.1815,-2.1406,-2.1258,-2.0775,-2.0531,-2.0613,-2.0801,-2.137,-2.2097,-2.2264,-2.2353,-2.2432,0.0,0.0,0.0,0.0,0.0,0.0,0.0,0.1672,0.1939,0.232,0.2652,0.2849,0.2851,0.3224,0.3515,0.0,0.0,0.0,0.0,0.0,0.0,0.0,0.0,0.0,0.6997,0.732,0.7551,0.7748,0.0,0.8296,0.8441,0.8586,0.9011,0.9537,0.9281,0.9391,0.9774,1.0293,1.0641,1.0963,1.1784,1.2198,0.0,0.0,0.0,0.0,0.0,0.1687,-0.1651,-0.4582,-0.5351,-0.5289,-0.6072,-0.69,-0.7634,-0.7488,-0.8425,-0.959,-1.0054,-1.1196,-1.2456,-1.3462,-1.4236,-1.4616,-1.3897,-1.3797,-1.3468,-1.2251,-1.2026,-1.1965,-1.1598,-1.1939,-1.2399,-1.2707,-1.3319,-1.4169,-1.5582,-1.5687,-1.6119,-1.7476,-1.7475,-1.7463,-1.7917,-1.8382,-1.8759,-1.9144,-1.9617,-2.0086,-2.0544,-2.0277,-2.0364,-2.0645,-2.0017,-1.9982,-2.0817,-2.0907,-2.1087,-2.1195,-2.1553,-2.1741,-2.1909,-2.1803,-2.2086,-2.257,-2.1824,-2.1368,-2.0968,-2.0429,-2.0461,-2.0689,-2.0866,-2.1541,-2.2451,-2.253,-2.2706,-2.2784,0.0,0.0,0.0,0.0,0.0,0.0,0.0,0.1837,0.2166,0.2738,0.3114,0.3279,0.3201,0.3483,0.368,0.0,0.0,0.0,0.0,0.0,0.0,0.0,0.0,0.0,0.0,0.0,0.0,0.702,0.75,0.0,0.0,0.0,0.0,0.0,0.8136,0.8203,0.8456,0.9129,0.9663,0.0,0.0,1.1903,1.2414,0.0,0.0,0.0,0.0,-0.0772,-0.4567,-0.6394,-0.6111,-0.5177,-0.6596,-0.7053,-0.7186,-0.758,-0.8695,-0.9806,-1.0012,-1.1313,-1.2766,-1.3561,-1.3997,-1.4028,-1.3032,-1.2829,-1.2598,-1.1661,-1.1418,-1.1418,-1.1477,-1.1584,-1.1775,-1.2007,-1.2379,-1.3141,-1.4646,-1.5044,-1.5675,-1.7107,-1.7198,-1.74,-1.7844,-1.8294,-1.8684,-1.9067,-1.9511,-1.9903,-2.0275,-1.9941,-2.0004,-2.0645,-2.0021,-2.0004,-2.0654,-2.0826,-2.0997,-2.0997,-2.1463,-2.1651,-2.1741,-2.1919,-2.2176,-2.2394,-2.1835,-2.1427,-2.11,-2.0424,-2.0485,-2.1072,-2.1062,-2.1788,-2.2794,-2.2891,-2.2969,-2.3144,0.0,0.0,0.0,0.0,0.0,0.0,0.0,0.1957,0.2259,0.2812,0.3165,0.3559,0.4039,0.3792,0.3629,0.0,0.0,0.0,0.0,0.0,0.0,0.0,0.0,0.0,0.0,0.0,0.0,0.6481,0.6696,0.0,0.0,0.0,0.0,0.0,0.0,0.7145,0.7802,0.8244,0.0,0.0,0.0,0.0,0.0,0.0,0.0,0.0,0.0,-0.2347,-0.562,-0.7918,-0.738,-0.5977,-0.7166,-0.7112,-0.6652,-0.6764,-0.7868,-0.9094,-0.9617,-1.1031,-1.2603,-1.3412,-1.3765,-1.3786,-1.3153,-1.2642,-1.2192,-1.1456,-1.1226,-1.1217,-1.1477,-1.1679,-1.1841,-1.1671,-1.2315,-1.2999,-1.3688,-1.4463,-1.5317,-1.6304,-1.6891,-1.7242,-1.744,-1.8448,-1.905,-1.8826,-1.9482,-1.9985,-2.0292,-2.0119,-2.0182,-2.0365,-1.9932,-1.9915,-2.0283,-2.0564,-2.0826,-2.0997,-2.1293,-2.1482,-2.1741,-2.1741,-2.1998,-2.2413,-2.1968,-2.1864,-2.1968,-2.1188,-2.1167,-2.1731,-2.1492,-2.2034,-2.2891,-2.3242,-2.3319,-2.3144,0.0,0.0,0.0,0.0,0.0,0.0,0.193,0.2165,0.2487,0.3005,0.3463,0.3853,0.4112,0.423,0.4256,0.4138,0.0,0.0,0.0,0.0,0.0,0.0,0.0,0.0,0.0,0.0,0.5901,0.6143,0.6145,0.0,0.0,0.0,0.0,0.0,0.0,0.7225,0.7314,0.8019,0.0,0.0,0.0,0.0,0.0,0.0,0.0,0.0,0.0,0.0,-0.5411,-0.7595,-0.7355,-0.6365,-0.7616,-0.7072,-0.6103,-0.6701,-0.8131,-0.9614,-1.0094,-1.1219,-1.2397,-1.3121,-1.329,-1.31,-1.2393,-1.2073,-1.1752,-1.1199,-1.1074,-1.1124,-1.1226,-1.114,-1.1085,-1.1292,-1.1461,-1.1849,-1.2639,-1.3539,-1.4496,-1.5599,-1.617,-1.6756,-1.7334,-1.8012,-1.8675,-1.9121,-1.9552,-1.9762,-1.9853,-1.9983,-2.0048,-2.0283,-2.0155,-2.0146,-2.0292,-2.0564,-2.0826,-2.0997,-2.1293,-2.1482,-2.1741,-2.1741,-2.1919,-2.2246,-2.1929,-2.1835,-2.1959,-2.1422,-2.1537,-2.1988,-2.1986,-2.2446,-2.3242,-2.3416,-2.3493,-2.358,0.0,0.0,0.0,0.0,0.0,0.1761,0.2091,0.2326,0.2667,0.3115,0.3608,0.3997,0.4216,0.4532,0.4771,0.4787,0.4065,0.0,0.0,0.0,0.0,0.0,0.0,0.0,0.0,0.0,0.5566,0.5991,0.5956,0.618,0.0,0.0,0.6538,0.6628,0.0,0.0,0.0,0.0,0.0,0.0,0.0,0.0,0.0,0.0,0.0,0.0,0.0,0.0,0.0,0.0,0.0,-0.6988,-0.7925,-0.7192,-0.619,-0.7026,-0.8354,-0.9689,-1.029,-1.1145,-1.2077,-1.2863,-1.2827,-1.2413,-1.2048,-1.1821,-1.1526,-1.1071,-1.1023,-1.1124,-1.1124,-1.082,-1.0667,-1.0922,-1.0914,-1.1106,-1.1894,-1.2862,-1.3793,-1.4706,-1.5389,-1.6117,-1.6836,-1.7606,-1.8485,-1.9393,-1.943,-1.9487,-1.9587,-1.9662,-1.9837,-2.0119,-2.011,-2.0201,-2.0201,-2.0473,-2.0645,-2.0907,-2.1195,-2.1383,-2.1651,-2.1651,-2.1919,-2.2167,-2.2051,-2.2092,-2.215,-2.1964,-2.2126,-2.2418,-2.2347,-2.2752,-2.3484,-2.3441,-2.3567,-2.3754,0.0,0.0,0.0,0.0,0.0,0.0,0.2167,0.2487,0.2811,0.3085,0.3497,0.3989,0.4552,0.4602,0.4884,0.5616,0.4784,0.0,0.0,0.0,0.0,0.0,0.0,0.0,0.0,0.0,0.5677,0.5991,0.6135,0.6371,0.6705,0.6435,0.6402,0.6594,0.0,0.0,0.0,0.0,0.0,0.0,0.0,0.0,0.0,0.0,0.0,0.0,0.0,0.0,0.0,0.0,0.0,0.0,0.0,-0.7588,-0.7092,-0.7697,-0.8296,-0.8951,-0.9916,-1.0756,-1.1594,-1.2772,-1.2432,-1.1934,-1.2421,-1.1953,-1.1431,-1.1174,-1.1124,-1.1124,-1.1124,-1.0871,-1.0718,-1.0718,-1.0854,-1.1136,-1.1439,-1.2419,-1.3206,-1.3579,-1.4645,-1.5437,-1.5695,-1.7218,-1.8619,-1.9521,-1.9379,-1.9288,-1.9587,-1.9379,-1.9288,-1.9587,-1.9754,-1.9928,-1.9928,-2.0201,-2.0473,-2.0744,-2.0907,-2.1096,-2.1392,-2.1651,-2.1909,-2.2441,-2.2432,-2.2696,-2.3105,-2.2942,-2.2935,-2.3047,-2.2615,-2.2898,-2.3454,-2.3273,-2.3308,-2.3503,0.0,0.0,0.0,0.0,0.0,0.0,0.0,0.2472,0.2737,0.3044,0.3497,0.3906,0.4174,0.4476,0.4824,0.519,0.4966,0.0,0.0,0.0,0.0,0.0,0.0,0.0,0.0,0.0,0.5234,0.5923,0.5363,0.5647,0.6709,0.6228,0.6243,0.6704,0.7286,0.7433,0.0,0.0,0.0,0.0,0.0,0.0,1.184,0.0,0.0,0.0,0.0,0.0,0.0,0.0,0.0,0.0,0.0,0.0,0.0,-0.7622,-0.8254,-0.8898,-0.9204,-0.974,-1.0279,-1.0729,-1.0622,-1.0342,-1.0279,-1.047,-1.0562,-1.0298,-1.0294,-1.0516,-1.0779,-1.0506,-1.0498,-1.1063,-1.1269,-1.1424,-1.1608,-1.251,-1.3308,-1.3862,-1.5279,-1.6492,-1.696,-1.7552,-1.8241,-1.8905,-1.8975,-1.892,-1.902,-1.9012,-1.9104,-1.9587,-1.9754,-1.9928,-1.9928,-2.0201,-2.0464,-2.0907,-2.0997,-2.1275,-2.183,-2.1741,-2.2087,-2.2618,-2.2441,-2.2706,-2.3105,-2.2771,-2.285,-2.3086,-2.2869,-2.3168,-2.3744,-2.3594,-2.373,-2.4024,0.0,0.0,0.0,0.0,0.0,0.0,0.0,0.2458,0.2735,0.2995,0.3328,0.365,0.3915,0.429,0.4678,0.5082,0.5209,0.0,0.0,0.0,0.0,0.0,0.0,0.0,0.0,0.4825,0.5026,0.6007,0.5328,0.557,0.6641,0.6155,0.6239,0.6825,0.7416,0.7543,0.0,0.0,0.0,0.0,0.0,0.0,1.0249,0.0,0.0,0.0,0.0,0.0,0.0,0.0,0.0,0.0,0.0,0.0,0.0,0.0,-0.8226,-0.8545,-0.8686,-0.9113,-0.9599,-0.9734,-0.9717,-0.956,-0.9373,-0.9592,-0.9799,-0.9519,-0.9596,-0.9843,-1.03,-1.018,-1.022,-1.0962,-1.119,-1.1408,-1.16,-1.2366,-1.3243,-1.4196,-1.5507,-1.6605,-1.7175,-1.7467,-1.7874,-1.8458,-1.851,-1.8593,-1.8819,-1.8609,-1.8637,-1.91,-1.9596,-1.9762,-1.9762,-2.011,-2.0464,-2.0907,-2.0997,-2.1275,-2.1839,-2.183,-2.2176,-2.2608,-2.2456,-2.2563,0.0,-2.2611,-2.2676,-2.2873,-2.2782,-2.3039,-2.3402,-2.323,-2.3476,-2.3846,0.0,0.0,0.0,0.0,0.0,0.0,0.0,0.2408,0.2698,0.2852,0.2975,0.3288,0.3822,0.4035,0.4448,0.5181,0.0,0.0,0.0,0.0,0.0,0.0,0.0,0.0,0.5411,0.4835,0.5022,0.6089,0.5757,0.5901,0.6547,0.6123,0.6317,0.7026,0.6977,0.7342,0.0,0.0,0.0,0.0,0.0,0.0,0.0,0.0,0.0,0.0,0.0,0.0,0.0,0.0,0.0,0.0,0.0,0.0,0.0,0.0,0.0,0.0,0.0,-0.8781,-0.9242,-0.951,-0.9475,-0.9372,-0.935,-0.9264,0.0,-0.8885,-0.9027,-0.929,-0.9751,-0.9831,-0.9974,-1.0478,-1.082,-1.1161,-1.1511,-1.2286,-1.3211,-1.4554,-1.5308,-1.5983,-1.6667,-1.7064,-1.754,-1.8176,-1.7987,-1.8143,-1.874,-1.8175,-1.7995,-1.8263,-1.9052,-1.9521,-1.9546,-1.9985,-2.0357,-2.0654,-2.0854,-2.1042,-2.1401,-2.1891,-2.2157,-2.2413,-2.2303,-2.2454,-2.2809,-2.2539,-2.2523,-2.2483,-2.2508,-2.2611,-2.2707,-2.232,-2.2635,-2.322,0.0,0.0,0.0,0.0,0.0,0.0,0.0,0.0,0.0,0.0,0.2653,0.2928,0.3543,0.3559,0.3887,0.0,0.0,0.0,0.0,0.0,0.0,0.0,0.0,0.0,0.4668,0.4655,0.4773,0.5068,0.5154,0.5596,0.6303,0.6185,0.6541,0.7309,0.7398,0.7945,0.0,0.0,0.0,0.0,0.0,0.0,0.0,0.0,0.0,0.0,-0.5066,-0.6309,0.0,0.0,0.0,0.0,0.0,0.0,0.0,0.0,-0.8364,-0.8534,-0.7723,0.0,-0.7835,-0.7511,-0.7721,-0.7907,0.0,-0.8247,-0.8813,-0.85,-0.8963,-0.9559,-0.9933,-1.0035,-1.0274,-1.0974,-1.1352,-1.1785,-1.2397,-1.3574,-1.4616,-1.5332,-1.5817,-1.6254,-1.669,-1.7064,-1.735,-1.7509,-1.7589,-1.7681,-1.8017,-1.7585,-1.7451,-1.7898,-1.8249,-1.8612,-1.8897,-1.9427,-1.9911,-2.0374,-2.0044,-2.0517,-2.1642,-2.1674,-2.2051,-2.2706,-2.2698,-2.2726,-2.2809,-2.2383,-2.2359,-2.2483,-2.2359,-2.2451,-2.2788,-2.3114,-2.3256,-2.3479,0.0,0.0,0.0,0.0,0.0,0.0,0.0,0.0,0.0,0.0,0.0,0.0,0.0,0.0,0.0,0.0,0.0,0.0,0.0,0.0,0.0,0.0,0.0,0.4377,0.4672,0.4664,0.4761,0.5034,0.5269,0.5599,0.6079,0.6151,0.6514,0.7123,0.717,0.7379,0.0,0.0,0.0,0.0,0.9095,0.0,0.0,0.0,0.0,0.0,-0.545,-0.6653,0.0,-0.8166,-0.8343,-0.8448,0.0,0.0,0.0,0.0,-0.8351,-0.8586,-0.7773,-0.7623,-0.7606,-0.7187,-0.7311,-0.7473,-0.7181,0.0,-0.7932,-0.776,-0.825,-0.8908,-0.9394,-0.9748,-1.0213,-1.104,-1.1615,-1.2289,-1.3284,-1.4412,-1.5307,-1.5695,-1.5991,-1.6349,-1.6698,-1.6913,-1.7096,-1.7262,-1.7274,-1.7353,-1.7763,-1.7195,-1.711,-1.7548,-1.7712,-1.8048,-1.8685,-1.9125,-1.957,-2.0009,-1.9783,-2.025,-2.1271,-2.1392,-2.1947,-2.2608,-2.2514,-2.2725,-2.2968,-2.2247,-2.2221,-2.2502,-2.2121,-2.2179,-2.2367,-2.2898,-2.3115,-2.3247,0.0,0.0,0.0,0.0,0.0,0.0,0.0,0.0,0.0,0.0,0.0,0.0,0.0,0.0,0.0,0.0,0.0,0.0,0.0,0.0,0.0,0.0,0.0,0.443,0.4832,0.4754,0.4876,0.5163,0.5584,0.5809,0.5906,0.622,0.6521,0.6765,0.6495,0.6332,0.0,0.0,0.7122,0.3938,0.6171,0.0,0.0,0.0,0.0,0.0,0.0,0.0,0.0,-0.7733,-0.7898,-0.8246,-0.7795,0.0,0.0,0.0,0.0,0.0,-0.8097,-0.8012,-0.7912,-0.7466,-0.752,-0.758,-0.7309,-0.726,-0.7228,-0.7228,-0.7736,-0.8339,-0.8882,-0.9511,-1.0271,-1.1054,-1.1957,-1.2932,-1.4053,-1.4969,-1.5608,-1.579,-1.6102,-1.6341,-1.6698,-1.673,-1.6857,-1.7175,-1.7014,-1.704,-1.7596,-1.6831,-1.6684,-1.7107,-1.7175,-1.7571,-1.8515,-1.8824,-1.9212,-1.9613,-1.9634,-1.9995,-2.0779,-2.1139,-2.1643,-2.2224,-2.215,-2.2467,-2.2842,-2.2171,-2.2056,-2.2278,-2.1952,-2.1849,-2.1963,-2.2428,-2.2763,-2.3001,0.0,0.0,0.0,0.0,0.0,0.0,0.0,0.0,0.0,0.0,0.0,0.0,0.0,0.0,0.0,0.0,0.0,0.0,0.0,0.0,0.0,0.4307,0.461,0.4579,0.4156,0.4839,0.4845,0.4145,0.5468,0.6079,0.5994,0.6834,0.698,0.6502,0.5514,0.5785,0.7015,0.8401,0.7727,0.5764,0.5948,0.0,0.0,0.0,0.0,0.0,0.0,0.0,0.0,-0.8431,-0.8612,-0.8882,-0.846,0.0,0.0,0.0,0.0,0.0,-0.8586,-0.8288,-0.7815,-0.7041,-0.734,-0.7749,-0.7224,-0.7695,-0.8219,-0.831,-0.8884,-0.9526,-1.0019,-1.0606,-1.1184,-1.1798,-1.2917,-1.3963,-1.4733,-1.5348,-1.5938,-1.6299,-1.642,-1.6509,-1.6698,-1.673,-1.6754,-1.681,-1.6562,-1.6495,-1.6633,-1.6088,-1.6065,-1.6562,-1.6554,-1.6841,-1.7523,-1.7705,-1.8349,-1.9445,-1.8854,-1.9305,-2.0761,-2.0683,-2.0894,-2.1371,-2.1752,-2.186,-2.1819,-2.1989,-2.1863,-2.1681,-2.1762,-2.2045,-2.2449,-2.2915,-2.3202,-2.3363,0.0,0.0,0.0,0.0,0.0,0.0,0.0,0.0,0.0,0.0,0.0,0.0,0.0,0.0,0.0,0.0,0.0,0.0,0.0,0.0,0.0,0.4111,0.4236,0.4284,0.428,0.457,0.4578,0.4277,0.5474,0.5932,0.5794,0.6032,0.5623,0.4654,0.2821,0.2221,0.2611,0.2467,0.1014,-0.1045,0.0,0.0,0.0,0.0,0.0,0.0,0.0,0.0,0.0,0.0,-0.8492,-0.8727,-0.8255,0.0,0.0,0.0,0.0,0.0,-0.8556,-0.8594,-0.8446,-0.7626,-0.7808,-0.817,-0.8085,-0.8376,-0.8662,-0.8813,-0.9449,-0.9972,-1.0224,-1.106,-1.2004,-1.2933,-1.3763,-1.4415,-1.4736,-1.5209,-1.5585,-1.5996,-1.6339,-1.6669,-1.6976,-1.7032,-1.7107,-1.7183,-1.6833,-1.664,-1.6804,-1.6312,-1.6229,-1.6566,-1.6566,-1.6727,-1.7226,-1.7391,-1.7828,-1.8604,-1.8396,-1.892,-1.996,-2.0116,-2.056,-2.1182,-2.1534,-2.184,-2.2059,-2.2211,-2.2188,-2.2025,-2.2102,-2.2304,-2.2584,-2.346,-2.4124,-2.4591,0.0,0.0,0.0,0.0,0.0,0.0,0.0,0.0,0.0,0.0,0.0,0.0,0.0,0.0,0.0,0.0,0.0,0.0,0.0,0.0,0.4312,0.4142,0.3809,0.3764,0.3988,0.4093,0.4156,0.4246,0.5255,0.5853,0.6019,0.5397,0.4568,0.3467,0.0806,-0.0648,-0.1157,-0.2271,-0.44,-0.6773,0.0,0.0,0.0,0.0,0.0,0.0,0.0,0.0,0.0,0.0,0.0,0.0,0.0,0.0,0.0,-0.8221,-0.8363,-0.8586,-0.851,-0.8743,-0.8868,-0.8378,-0.8398,-0.8595,-0.8822,-0.8926,-0.9017,-0.9337,-0.9883,-1.0328,-1.0539,-1.1616,-1.2829,-1.3962,-1.4395,-1.4673,-1.4824,-1.5194,-1.5446,-1.5771,-1.6307,-1.6758,-1.6984,-1.7104,-1.7227,-1.7387,-1.6964,-1.673,-1.6968,-1.6558,-1.6476,-1.6648,-1.6648,-1.673,-1.6976,-1.731,-1.7655,-1.8104,-1.8305,-1.8804,-1.935,-1.9688,-2.0208,-2.0888,-2.1154,-2.1562,-2.214,-2.2221,-2.2249,-2.2267,-2.2381,-2.2625,-2.2984,-2.4008,-2.4836,-2.5478,0.0,0.0,0.0,0.0,0.0,0.0,0.0,0.0,0.0,0.0,0.0,0.0,0.0,0.0,0.0,0.0,0.0,0.0,0.0,0.0,0.5042,0.4485,0.3633,0.2951,0.2555,0.3458,0.3674,0.3204,0.4593,0.5926,0.7245,0.5797,0.4994,0.4613,0.1153,-0.052,-0.0787,-0.1434,-0.3236,-0.5491,-0.3821,0.0,0.0,0.0,0.0,0.0,0.0,0.0,0.0,0.0,0.0,0.0,0.0,0.0,-0.747,-0.7756,-0.8008,-0.832,-0.8582,-0.8524,-0.8461,-0.8837,-0.8993,-0.8991,-0.8867,-0.9079,-0.9556,-1.0172,-1.0422,-1.0799,-1.1524,-1.2651,-1.3809,-1.4688,-1.4697,-1.4832,-1.561,-1.5863,-1.594,-1.5988,-1.6604,-1.6823,-1.6309,-1.6579,-1.677,-1.677,-1.6746,-1.6648,-1.6476,-1.6394,-1.6394,-1.6394,-1.6394,-1.6484,-1.6738,-1.7147,-1.782,-1.8588,-1.8562,-1.8894,-1.9579,-1.9606,-1.9751,-2.0036,-2.0272,-2.0596,-2.0995,-2.1228,-2.143,-2.1594,-2.2022,-2.2938,-2.4105,-2.4559,-2.4941,-2.5087,0.0,0.0,0.0,0.0,0.0,0.0,0.0,0.0,0.0,0.0,0.0,0.0,0.0,0.0,0.0,0.0,0.0,0.0,0.0,0.499,0.4741,0.4526,0.3481,0.2639,0.2107,0.2964,0.3421,0.3397,0.4288,0.5204,0.6192,0.501,0.3129,0.0563,-0.2131,-0.4408,-0.6385,-0.8605,-0.8912,-0.7815,-0.735,-0.6396,0.0,0.0,0.0,0.0,0.0,0.0,0.0,0.0,-0.8156,-0.8145,-0.7888,-0.7918,-0.8071,-0.8281,-0.8237,-0.8142,-0.8474,-0.8899,-0.9189,-0.8919,-0.9509,-0.9993,-0.951,-0.9748,-1.0243,-1.1074,-1.1333,-1.1637,-1.2634,-1.3255,-1.3909,-1.4736,-1.4721,-1.4761,-1.5194,-1.552,-1.5664,-1.553,-1.642,-1.6846,-1.6377,-1.6775,-1.7072,-1.7072,-1.6857,-1.673,-1.6804,-1.6648,-1.6566,-1.6566,-1.673,-1.6894,-1.7147,-1.7465,-1.7775,-1.8245,-1.8245,-1.849,-1.9075,-1.9308,-1.9617,-1.9942,-2.043,-2.0751,-2.0926,-2.1585,-2.169,-2.1553,-2.2315,-2.3113,-2.3981,-2.4234,-2.5017,-2.5738,0.0,0.0,0.0,0.0,0.0,0.0,0.0,0.0,0.0,0.0,0.0,0.0,0.0,0.0,0.0,0.0,0.0,0.0,0.5097,0.5027,0.4822,0.4571,0.3555,0.2688,0.2056,0.275,0.3155,0.324,0.3822,0.4466,0.5163,0.4324,0.1733,-0.2229,-0.4112,-0.6872,-1.0274,-1.2451,-1.1891,-0.9475,-0.8947,-0.7394,0.0,0.0,0.0,0.0,0.0,0.0,0.0,0.0,-0.8307,-0.8102,-0.8078,-0.8044,-0.8117,-0.8333,-0.839,-0.8359,-0.8422,-0.9101,-0.97,-0.9187,-0.9781,-1.0414,-1.0014,-1.0208,-1.0667,-1.146,-1.1851,-1.236,-1.338,-1.3699,-1.4034,-1.495,-1.4864,-1.4824,-1.5081,-1.5405,-1.5557,-1.549,-1.6332,-1.678,-1.6498,-1.6806,-1.7104,-1.7104,-1.6873,-1.6812,-1.6976,-1.6812,-1.673,-1.673,-1.6976,-1.7139,-1.731,-1.7538,-1.7781,-1.804,-1.8121,-1.8362,-1.87,-1.9152,-1.9539,-1.9942,-2.0498,-2.082,-2.1134,-2.1738,-2.2086,-2.2165,-2.2882,-2.3456,-2.41,-2.4352,-2.5011,-2.578,0.0,0.0,0.0,0.0,0.0,0.0,0.0,0.0,0.0,0.0,0.0,0.0,0.0,0.0,0.0,0.0,0.0,0.0,0.5061,0.5598,0.5526,0.4732,0.3855,0.3086,0.2411,0.2878,0.2912,0.2494,0.3174,0.385,0.4475,0.3825,0.1291,-0.2765,-0.4072,-0.7123,-1.1325,-1.1252,-1.0731,-0.9826,-0.776,-0.6993,-0.6901,0.0,0.0,0.0,0.0,0.0,0.0,0.0,-0.8148,-0.7296,-0.829,-0.7931,-0.7207,-0.7654,-0.8399,-0.9001,-0.8452,-0.9055,-0.9788,-0.9698,-0.9851,-1.0048,-1.0258,-1.0387,-1.0682,-1.1181,-1.1944,-1.2767,-1.3715,-1.3978,-1.4375,-1.5376,-1.5158,-1.5065,-1.5634,-1.5686,-1.5758,-1.5996,-1.6389,-1.6684,-1.6492,-1.6613,-1.673,-1.6648,-1.673,-1.673,-1.673,-1.673,-1.673,-1.673,-1.6976,-1.7139,-1.7139,-1.7538,-1.7781,-1.804,-1.8282,-1.8523,-1.87,-1.9152,-1.9539,-1.9942,-2.0186,-2.0751,-2.1541,-2.161,-2.2372,-2.3545,-2.3756,-2.4115,-2.453,-2.5001,-2.5178,-2.5161,0.0,0.0,0.0,0.0,0.0,0.0,0.0,0.0,0.0,0.0,0.0,0.0,0.0,0.0,0.0,0.0,0.0,0.0,0.4477,0.4789,0.4892,0.4851,0.4194,0.3544,0.2973,0.3286,0.3339,0.312,0.3415,0.3464,0.3253,0.3496,0.0933,-0.4014,-0.6556,-0.961,-1.2814,-1.2217,-1.0934,-0.9241,-0.8741,-0.7309,-0.5466,0.0,0.0,0.0,0.0,0.0,0.0,0.0,0.0,0.0,-0.863,-0.8776,-0.8748,-0.8494,-0.8731,-0.8888,-0.8279,-0.9012,-0.9907,-0.9704,-1.0607,-1.1445,-1.1085,-1.0934,-1.1091,-1.1681,-1.2469,-1.3203,-1.3608,-1.4244,-1.4814,-1.543,-1.5593,-1.5721,-1.5902,-1.5988,-1.596,-1.579,-1.6301,-1.6522,-1.6102,-1.6451,-1.6574,-1.6335,-1.6574,-1.6648,-1.6484,-1.6648,-1.6812,-1.6976,-1.7057,-1.7212,-1.7538,-1.7781,-1.8031,-1.8282,-1.8683,-1.8843,-1.8922,-1.932,-1.9636,-1.996,-2.0819,-2.1342,-2.164,-2.2281,-2.2705,-2.3075,-2.3583,-2.3983,-2.4298,-2.42,-2.4892,-2.5814,0.0,0.0,0.0,0.0,0.0,0.0,0.0,0.0,0.0,0.0,0.0,0.0,0.0,0.0,0.0,0.0,0.0,0.0,0.0,0.4759,0.5008,0.4703,0.4587,0.4124,0.3335,0.3723,0.3638,0.3128,0.3197,0.3011,0.2597,0.1394,-0.174,-0.6494,-0.8948,-1.1618,-1.4197,-1.2706,-1.1122,-0.9579,-0.8923,-0.7861,-0.6614,0.0,0.0,0.0,0.0,0.0,0.0,0.0,0.0,0.0,-0.905,-0.915,-0.9157,-0.8963,-0.9171,-0.9402,-0.9085,-0.9913,-1.078,-1.0605,-1.1551,-1.2443,-1.2168,-1.1794,-1.1653,-1.2167,-1.2751,-1.3431,-1.3976,-1.4558,-1.512,-1.5624,-1.5935,-1.613,-1.6191,-1.6236,-1.6174,-1.626,-1.6557,-1.6569,-1.6364,-1.653,-1.6574,-1.6327,-1.6484,-1.6503,-1.6362,-1.6369,-1.6468,-1.6636,-1.6716,-1.7029,-1.7489,-1.7817,-1.8134,-1.8523,-1.8843,-1.9082,-1.924,-1.9557,-1.9872,-2.0136,-2.1301,-2.1879,-2.209,-2.3052,-2.3371,-2.3381,-2.3917,-2.4031,-2.3913,-2.3983,-2.4659,-2.5475,0.0,0.0,0.0,0.0,0.0,0.0,0.0,0.0,0.0,0.0,0.0,0.0,0.0,0.0,0.0,0.0,0.0,0.0,0.0,0.0,0.5474,0.4489,0.4905,0.4656,0.356,0.4038,0.3797,0.2813,0.2842,0.2714,0.2317,-0.1797,-0.5774,-0.9609,-1.1221,-1.3188,-1.5135,-1.263,-1.1092,-1.0234,-0.8603,-0.8448,-0.9165,-0.8274,0.0,0.0,0.0,0.0,0.0,0.0,0.0,0.0,-0.9452,-0.9236,-0.8805,-0.9121,-0.9683,-1.0245,-1.0363,-1.1226,-1.2079,-1.2049,-1.2522,-1.3048,-1.3203,-1.2721,-1.235,-1.2654,-1.2938,-1.3516,-1.4657,-1.5008,-1.5267,-1.5891,-1.6182,-1.6321,-1.649,-1.6261,-1.6365,-1.696,-1.6764,-1.678,-1.7049,-1.6812,-1.6648,-1.6648,-1.6484,-1.6327,-1.6142,-1.5983,-1.5984,-1.6005,-1.6234,-1.6553,-1.7206,-1.7622,-1.8127,-1.8647,-1.8913,-1.924,-1.9645,-1.9794,-2.0127,-2.0449,-2.1637,-2.2319,-2.2635,-2.3727,-2.4157,-2.4166,-2.4373,-2.4073,-2.3545,-2.4203,-2.436,-2.4464,0.0,0.0,0.0,0.0,0.0,0.0,0.0,0.0,0.0,0.0,0.0,0.0,0.0,0.0,0.0,0.0,0.0,0.0,0.0,0.0,0.4524,0.4715,0.4292,0.4006,0.3896,0.3616,0.3514,0.3649,0.3953,0.3224,0.1455,-0.3051,-0.7056,-1.0627,-1.3416,-1.4319,-1.3625,-1.1402,-0.9768,-0.867,-0.8287,-0.8156,-0.8157,-0.832,-0.7981,0.0,0.0,0.0,0.0,0.0,0.0,0.0,-0.9706,-0.9587,-0.9173,-0.9269,-0.964,-1.0018,-0.9918,-1.0754,-1.1722,-1.1842,-1.2478,-1.2995,-1.2818,-1.3148,-1.3508,-1.3393,-1.3613,-1.3927,-1.4431,-1.5138,-1.5739,-1.5774,-1.6154,-1.6442,-1.6277,-1.5968,-1.592,-1.6357,-1.6317,-1.6428,-1.6788,-1.673,-1.6648,-1.6476,-1.6566,-1.6417,-1.6006,-1.6055,-1.6126,-1.6005,-1.6234,-1.6505,-1.6962,-1.7716,-1.8142,-1.8473,-1.9321,-1.9784,-1.9863,-1.9863,-2.0359,-2.1253,-2.177,-2.209,-2.228,-2.3246,-2.3528,-2.3377,-2.4147,-2.4179,-2.3853,-2.3805,-2.3925,-2.4079,0.0,0.0,0.0,0.0,0.0,0.0,0.0,0.0,0.0,0.0,0.0,0.0,0.0,0.0,0.0,0.0,0.0,0.0,0.0,0.0,0.4653,0.4941,0.4103,0.3687,0.3761,0.2216,0.2207,0.3816,0.1227,-0.0025,-0.0113,-0.5902,-0.9788,-1.2011,-1.4771,-1.5189,-1.3769,-1.2125,-1.058,-0.9232,-0.9126,-0.8764,-0.8369,-0.8688,-0.8199,-0.7356,-0.7713,0.0,0.0,0.0,0.0,0.0,0.0,0.0,-0.9423,-0.9653,-0.9908,-1.0189,-1.0683,-1.1492,-1.2305,-1.2839,-1.3115,-1.3302,-1.3421,-1.3832,-1.4089,-1.3884,-1.4022,-1.4263,-1.4579,-1.5182,-1.5613,-1.5682,-1.5996,-1.6194,-1.5952,-1.5793,-1.5822,-1.6092,-1.6038,-1.6023,-1.6206,-1.6381,-1.6395,-1.6145,-1.6382,-1.6417,-1.6078,-1.5897,-1.5801,-1.5829,-1.5799,-1.6013,-1.6636,-1.7476,-1.7997,-1.8261,-1.9196,-1.9696,-1.9942,-2.0098,-2.0615,-2.1253,-2.1699,-2.2028,-2.2206,-2.3158,-2.3303,-2.3158,-2.4032,-2.4017,-2.3501,-2.362,-2.3593,-2.3632,0.0,0.0,0.0,0.0,0.0,0.0,0.0,0.0,0.0,0.0,0.0,0.0,0.0,0.0,0.0,0.0,0.0,0.0,0.0,0.0,0.0,0.4946,0.4194,0.3513,0.2912,0.0724,0.0455,0.221,-0.3189,-0.4925,-0.3317,-0.9242,-1.2366,-1.3122,-1.5492,-1.5694,-1.4184,-1.3062,-1.1675,-1.0205,-0.9885,-0.9343,-0.8731,-0.8916,-0.8124,-0.698,-0.7825,-0.8146,-0.8264,-0.8626,0.0,0.0,0.0,0.0,-0.947,-0.9926,-1.0099,-1.0363,-1.1444,-1.2195,-1.295,-1.3857,-1.3777,-1.3588,-1.4135,-1.4314,-1.4281,-1.4065,-1.4255,-1.4517,-1.4743,-1.5024,-1.5324,-1.5554,-1.5747,-1.5831,-1.5671,-1.5539,-1.5599,-1.5823,-1.5755,-1.5634,-1.5753,-1.5975,-1.6055,-1.5952,-1.6226,-1.6322,-1.6134,-1.5756,-1.5626,-1.5782,-1.5493,-1.566,-1.6336,-1.7107,-1.7694,-1.8077,-1.9003,-1.9627,-2.0108,-2.0489,-2.0731,-2.0926,-2.1529,-2.1916,-2.2172,-2.2939,-2.3192,-2.3107,-2.3972,-2.3788,-2.3139,-2.343,-2.3341,-2.3072,0.0,0.0,0.0,0.0,0.0,0.0,0.0,0.0,0.0,0.0,0.0,0.0,0.0,0.0,0.0,0.0,0.0,0.0,0.393,0.0,0.0,0.4263,0.4437,0.3288,0.0613,0.014,-0.13,-0.3838,-0.7414,-0.9586,-1.0448,-1.1782,-1.2537,-1.2875,-1.55,-1.5412,-1.3195,-1.1894,-1.0647,-0.9494,-0.9056,-0.8502,-0.7966,-0.8107,-0.7606,-0.6906,-0.7603,-0.7993,-0.8272,-0.8802,-0.9122,0.0,0.0,0.0,-0.9041,-0.9457,-0.965,-0.9813,-1.0508,-1.1536,-1.2499,-1.3045,-1.3357,-1.3593,-1.37,-1.3938,-1.4065,-1.3863,-1.4228,-1.4572,-1.447,-1.4989,-1.5318,-1.5292,-1.5327,-1.5327,-1.5253,-1.4982,-1.4895,-1.5287,-1.5253,-1.5483,-1.6079,-1.5904,-1.5872,-1.6103,-1.6166,-1.6118,-1.5761,-1.6156,-1.6218,-1.5932,-1.5964,-1.6164,-1.6564,-1.6826,-1.7349,-1.8136,-1.9263,-2.0177,-2.0751,-2.0829,-2.0906,-2.0906,-2.1343,-2.1671,-2.1901,-2.2345,-2.2627,-2.281,-2.3475,-2.3642,-2.3548,-2.341,-2.299,-2.2327,0.0,0.0,0.0,0.0,0.0,0.0,0.0,0.0,0.0,0.0,0.0,0.0,0.0,0.0,0.0,0.3549,0.3716,0.3924,0.4089,0.4339,0.4342,0.4002,0.4003,0.2789,0.0157,-0.1706,-0.3335,-0.4765,-0.9725,-1.2218,-1.2369,-1.4702,-1.5765,-1.5687,-1.6123,-1.5418,-1.3844,-1.2344,-1.0809,-0.9413,-0.961,-0.9196,-0.8399,-0.8181,-0.7901,-0.7584,-0.7616,-0.7646,-0.7748,-0.8466,-0.882,-0.9035,-0.9385,0.0,0.0,0.0,-0.9694,-0.983,-1.1007,-1.1619,-1.2133,-1.318,-1.3404,-1.3333,-1.3523,-1.3761,-1.3843,-1.3528,-1.3895,-1.4306,-1.4232,-1.4603,-1.4988,-1.5057,-1.4952,-1.4879,-1.5033,-1.4897,-1.4848,-1.5146,-1.5267,-1.5362,-1.5474,-1.5623,-1.5666,-1.5473,-1.5723,-1.5918,-1.5843,-1.5871,-1.5935,-1.6005,-1.6087,-1.6186,-1.6323,-1.7172,-1.789,-1.8458,-1.9354,-1.9918,-2.0244,-2.0941,-2.1205,-2.1195,-2.1161,-2.1419,-2.1918,-2.1702,-2.1859,-2.2366,-2.2961,-2.3106,-2.305,-2.2992,-2.2604,-2.2,0.0,0.0,0.0,0.0,0.0,0.0,0.0,0.0,0.0,0.0,0.0,0.0,0.0,0.0,0.0,0.0,0.382,0.3903,0.4063,0.3516,0.3406,0.3918,0.3393,0.1803,-0.0907,-0.2996,-0.5023,-0.6991,-1.1482,-1.3756,-1.3993,-1.6738,-1.8099,-1.821,-1.7306,-1.6045,-1.4535,-1.3114,-1.1626,-1.027,-1.0455,-0.9939,-0.9023,-0.887,-0.8643,-0.8326,-0.7865,-0.7654,-0.7668,-0.8213,-0.8538,-0.8853,-0.927,-0.9279,0.0,0.0,0.0,-0.9865,-1.1177,-1.1498,-1.1814,-1.2998,-1.3127,-1.3011,-1.3362,-1.3447,-1.3406,-1.3158,-1.3576,-1.3894,-1.3977,-1.4281,-1.4649,-1.4864,-1.4721,-1.4713,-1.4927,-1.4934,-1.4901,-1.5125,-1.5299,-1.5365,-1.5219,-1.545,-1.5559,-1.5166,-1.5459,-1.5631,-1.5859,-1.5772,-1.5823,-1.6203,-1.6266,-1.6276,-1.6429,-1.761,-1.8299,-1.8563,-1.9336,-1.9821,-1.9971,-2.1004,-2.1502,-2.1568,-2.1295,-2.1414,-2.187,-2.1488,-2.1543,-2.2023,-2.2592,-2.2741,-2.2715,-2.2731,-2.2411,-2.1887,0.0,0.0,0.0,0.0,0.0,0.0,0.0,0.0,0.0,0.0,0.0,0.0,0.5094,0.4802,0.4472,0.4207,0.3994,0.3848,0.3731,0.1993,0.1907,0.3992,0.2681,0.0,-0.3806,-0.2864,-0.601,-1.3506,-1.3006,-1.4333,-1.7341,-1.7101,-1.7677,-1.8947,-1.9197,-1.7597,-1.4631,-1.3719,-1.3008,-1.2429,-1.1185,-1.0194,-0.955,-1.0215,-0.9845,-0.8913,-0.8423,-0.8462,-0.8635,-0.817,-0.8345,-0.878,-0.9088,-0.9007,-0.8797,0.0,0.0,0.0,-1.0049,-1.0678,-1.1332,-1.1881,-1.2268,-1.2633,-1.3009,-1.2826,-1.2643,-1.2965,-1.3179,-1.3416,-1.3738,-1.4145,-1.4505,-1.4864,-1.4721,-1.4713,-1.5133,-1.4924,-1.4772,-1.4895,-1.5086,-1.5429,-1.5875,-1.5664,-1.5624,-1.5948,-1.553,-1.5279,-1.5486,-1.5953,-1.6438,-1.6817,-1.6689,-1.6884,-1.7459,-1.8047,-1.8263,-1.8161,-1.9345,-2.0101,-2.0581,-2.1004,-2.1436,-2.1807,-2.1928,-2.1828,-2.1513,-2.2002,-2.2078,-2.1882,-2.2297,-2.2659,-2.3021,-2.28,-2.248,-2.2138,0.0,0.0,0.0,0.0,0.0,0.0,0.0,0.0,0.0,0.0,0.0,0.0,0.0,0.5689,0.5246,0.4451,0.4171,0.4035,0.4091,0.1989,0.0801,0.0957,-0.0985,-0.3727,-0.7289,-0.6374,-0.8242,-1.3101,-1.2829,-1.3798,-1.5881,-1.6665,-1.7133,-1.7338,-1.7493,-1.6585,-1.4821,-1.3806,-1.2476,-1.0992,-1.1173,-1.0865,-1.0284,-1.0566,-1.0687,-1.0567,-0.9724,-0.933,-0.9199,-0.9253,-0.907,-0.8945,-0.9556,-0.9345,-0.8862,-0.9056,-0.9142,-0.9298,-0.9917,-1.0224,-1.0593,-1.1433,-1.1817,-1.2075,-1.2327,-1.252,-1.2638,-1.2492,-1.3001,-1.3406,-1.3385,-1.3924,-1.4505,-1.4864,-1.467,-1.4668,-1.5321,-1.5108,-1.4869,-1.5092,-1.5491,-1.5649,-1.5519,-1.5544,-1.5569,-1.5324,-1.513,-1.513,-1.533,-1.5454,-1.5755,-1.6199,-1.6448,-1.6967,-1.7662,-1.7926,-1.8082,-1.8338,-1.958,-2.023,-2.0402,-2.1232,-2.1566,-2.1586,-2.1723,-2.1776,-2.1574,-2.1415,-2.1402,-2.1362,-2.1801,-2.2049,-2.2196,-2.2082,-2.1935,-2.1587,0.0,0.0,0.0,0.0,0.0,0.0,0.0,0.0,0.0,0.7303,0.0,0.0,0.0,0.0,0.589,0.4742,0.4486,0.3945,0.2891,0.1495,0.04,-0.0274,-0.2603,-0.5121,-0.7758,-0.8014,-0.9835,-1.3371,-1.3199,-1.3857,-1.5328,-1.6209,-1.6553,-1.6412,-1.6281,-1.5949,-1.5382,-1.4505,-1.3118,-1.1572,-1.2186,-1.2034,-1.1474,-1.1962,-1.2267,-1.2302,-1.131,-1.076,-1.0576,-1.0489,-1.0013,-0.9581,-1.0047,-0.9646,-0.9024,-0.9065,-0.9014,-0.9091,-0.9648,-0.9709,-0.9883,-1.0913,-1.1148,-1.1264,-1.1699,-1.205,-1.2254,-1.2189,-1.2654,-1.3127,-1.3096,-1.3569,-1.4198,-1.467,-1.4485,-1.4551,-1.5146,-1.4815,-1.4563,-1.48,-1.5242,-1.5496,-1.5292,-1.5534,-1.5585,-1.5283,-1.508,-1.5007,-1.5275,-1.5204,-1.5426,-1.5938,-1.6517,-1.7062,-1.7479,-1.7788,-1.7998,-1.8274,-1.9574,-2.0232,-2.0402,-2.1374,-2.1707,-2.1628,-2.1764,-2.1581,-2.1321,-2.1123,-2.103,-2.0996,-2.1348,-2.1658,-2.1729,-2.1493,-2.145,-2.1296,0.0,0.0,0.0,0.0,0.0,0.0,0.0,0.0,0.7455,0.8231,0.0,0.0,0.0,0.0,0.0,0.5063,0.4919,0.3501,0.0173,0.0298,0.0477,0.0454,-0.2104,-0.4104,-0.5311,-0.749,-1.0654,-1.4801,-1.4195,-1.4611,-1.5979,-1.5748,-1.59,-1.6337,-1.5871,-1.5879,-1.62,-1.5734,-1.5122,-1.4433,-1.4149,-1.3581,-1.3087,-1.4479,-1.463,-1.4012,-1.3017,-1.2774,-1.2777,-1.1713,-1.1107,-1.0685,-1.0466,-0.9856,-0.9234,-0.9217,-0.9062,-0.8945,0.0,0.0,0.0,-1.0205,-1.021,-1.0227,-1.1214,-1.1382,-1.1421,-1.1882,-1.2223,-1.2558,-1.2892,-1.3184,-1.351,-1.4243,-1.4223,-1.4231,-1.4616,-1.4049,-1.371,-1.4082,-1.4461,-1.4894,-1.5455,-1.568,-1.5905,-1.606,-1.5355,-1.5078,-1.5505,-1.5355,-1.5559,-1.6272,-1.6866,-1.7089,-1.6908,-1.7706,-1.8128,-1.8176,-1.9354,-2.0147,-2.0666,-2.1449,-2.1852,-2.2038,-2.2017,-2.1431,-2.0636,-2.1208,-2.1117,-2.0733,-2.1106,-2.1468,-2.1781,-2.1149,-2.1079,-2.1285,0.0,0.0,0.0,0.0,0.0,0.0,0.8082,0.8382,0.8667,0.0,0.0,0.0,0.8248,0.7279,0.6596,0.6361,0.4095,0.2288,0.1341,-0.2264,-0.4646,-0.5274,-0.76,-0.9594,-1.1149,-1.1222,-1.1758,-1.2795,-1.3441,-1.3497,-1.3002,-1.4059,-1.4808,-1.5294,-1.4916,-1.4763,-1.4733,-1.4027,-1.3643,-1.3467,-1.2543,-1.288,-1.3944,-1.4334,-1.4518,-1.4602,-1.474,-1.4157,-1.3318,-1.3077,-1.2502,-1.1666,-1.0725,-1.0214,-0.9917,-0.9408,-0.9014,-0.8741,-0.8694,0.0,0.0,0.0,0.0,0.0,-1.0287,-1.0463,-1.0631,-1.1161,-1.1719,-1.2155,-1.2249,-1.2963,-1.3568,-1.3598,-1.3688,-1.3933,-1.461,-1.418,-1.3847,-1.395,-1.4394,-1.4726,-1.4894,-1.5296,-1.5585,-1.5656,-1.5493,-1.5363,-1.5497,-1.5709,-1.6053,-1.6473,-1.665,-1.6869,-1.7107,-1.7901,-1.8557,-1.8967,-1.971,-2.0454,-2.1242,-2.1404,-2.1492,-2.1453,-2.1478,-2.1094,-2.0501,-2.113,-2.1183,-2.0839,-2.1106,-2.1314,-2.1353,-2.1024,-2.0929,-2.0848,0.0,0.0,0.0,0.0,0.0,0.9276,0.9215,0.9485,0.9776,0.0,0.0,0.0,0.8581,0.7929,0.7352,0.698,0.3834,0.1353,0.0122,-0.32,-0.5725,-0.7032,-0.8591,-1.0068,-1.1422,-1.2157,-1.256,-1.2665,-1.3457,-1.3424,-1.262,-1.3538,-1.4141,-1.443,-1.4093,-1.3847,-1.3627,-1.2817,-1.274,-1.3183,-1.3253,-1.3678,-1.438,-1.5266,-1.5499,-1.533,-1.574,-1.5244,-1.4434,-1.4341,-1.3542,-1.2395,-1.1214,-1.0696,-1.0409,-0.9622,-0.9168,-0.8884,-0.8699,-0.8502,-0.8423,-0.8877,0.0,0.0,-1.0198,-1.0358,-1.0509,-1.0958,-1.1571,-1.2019,-1.207,-1.2589,-1.3044,-1.3204,-1.3206,-1.338,-1.3933,-1.3859,-1.3667,-1.3541,-1.4073,-1.4521,-1.479,-1.512,-1.5469,-1.57,-1.5647,-1.5655,-1.5655,-1.6061,-1.6403,-1.6603,-1.6742,-1.7028,-1.7314,-1.7906,-1.8514,-1.9157,-1.9728,-2.0411,-2.1357,-2.1408,-2.1503,-2.1549,-2.13,-2.1027,-2.0709,-2.0995,-2.0992,-2.0839,-2.1094,-2.1221,-2.1158,-2.0903,-2.0786,-2.0669,0.0,0.0,0.9835,0.906,0.9871,1.064,1.0611,1.0567,1.0784,0.0,1.0254,0.9205,0.895,0.8822,0.8182,0.6704,0.3494,0.0275,-0.2768,-0.3833,-0.5107,-0.685,-0.731,-0.7986,-0.9004,-1.146,-1.2975,-1.3459,-1.3868,-1.3891,-1.3467,-1.3643,-1.3713,-1.3706,-1.3345,-1.3028,-1.2758,-1.2221,-1.242,-1.3213,-1.4889,-1.5101,-1.4653,-1.6651,-1.681,-1.6083,-1.6287,-1.6047,-1.5569,-1.5235,-1.4222,-1.2987,-1.1868,-1.1322,-1.0854,-0.9891,-0.9488,-0.9319,-0.9037,-0.864,-0.8594,-0.9673,-0.9552,0.0,-1.0581,-1.0693,-1.0643,-1.1068,-1.1527,-1.1912,-1.206,-1.2133,-1.2341,-1.2869,-1.2781,-1.2753,-1.3052,-1.3236,-1.3279,-1.296,-1.358,-1.4197,-1.4711,-1.499,-1.5377,-1.5974,-1.5912,-1.5867,-1.5867,-1.6333,-1.6603,-1.6673,-1.6982,-1.7239,-1.7472,-1.7755,-1.8232,-1.8904,-1.9418,-2.018,-2.1094,-2.1349,-2.1572,-2.1858,-2.1347,-2.1141,-2.1052,-2.0837,-2.0733,-2.0733,-2.1106,-2.1123,-2.1089,-2.0839,-2.07,-2.0526,1.0036,1.0062,1.0156,1.081,1.0621,1.0551,1.1141,1.1263,1.1373,1.1563,1.0668,0.9914,0.9701,0.8967,0.7242,0.4209,0.0782,-0.2716,-0.627,-0.8454,-0.9789,-1.0171,-0.9759,-1.0205,-1.1634,-1.2041,-1.2372,-1.2631,-1.356,-1.333,-1.2025,-1.2857,-1.3244,-1.3211,-1.2716,-1.2368,-1.221,-1.2929,-1.3102,-1.2894,-1.3333,-1.4422,-1.587,-1.6488,-1.6623,-1.6527,-1.6498,-1.5927,-1.5139,-1.4671,-1.4108,-1.3486,-1.2604,-1.2187,-1.1852,-1.0659,-1.0363,-1.0257,-0.9503,-0.9468,-0.9556,-0.9221,-0.9673,0.0,-1.0466,-1.03,-1.0245,-1.0719,-1.0954,-1.115,-1.1222,-1.1764,-1.2214,-1.2192,-1.2282,-1.2522,-1.3052,-1.3089,-1.3001,-1.2691,-1.3123,-1.3566,-1.3805,-1.4351,-1.4999,-1.5582,-1.5965,-1.6272,-1.6473,-1.6542,-1.6751,-1.7097,-1.6773,-1.6873,-1.7358,-1.7342,-1.795,-1.9055,-1.9089,-1.9737,-2.1005,-2.1015,-2.1114,-2.127,-2.1285,-2.1173,-2.0899,-2.0873,-2.0839,-2.0903,-2.1094,-2.0843,-2.0398,-2.0756,-2.0464,-1.9931,1.1043,1.1403,1.1607,1.1511,1.1733,1.1952,1.2088,1.2114,1.229,1.2666,1.1684,1.0645,0.9891,0.7282,0.4903,0.3093,-0.2379,-0.6294,-0.7562,-1.0537,-1.2126,-1.187,-1.1086,-1.1152,-1.2238,-1.1687,-1.1501,-1.1709,-1.2689,-1.2635,-1.1668,-1.2537,-1.2913,-1.284,-1.2597,-1.2504,-1.2529,-1.2959,-1.3113,-1.3129,-1.4235,-1.5205,-1.6063,-1.6839,-1.7106,-1.7053,-1.651,-1.5756,-1.5009,-1.4852,-1.4508,-1.4029,-1.3104,-1.2851,-1.2528,-1.1247,-1.0893,-1.0685,-0.9843,-0.9739,-0.9923,-0.9902,-1.0084,0.0,0.0,-1.0694,-1.0548,-1.0916,-1.1197,-1.1326,-1.1209,-1.1625,-1.2011,-1.2039,-1.227,-1.2597,-1.2975,-1.326,-1.3318,-1.3022,-1.3372,-1.3777,-1.4076,-1.4383,-1.4854,-1.5569,-1.5851,-1.6026,-1.616,-1.6294,-1.6427,-1.6561,-1.6487,-1.6699,-1.7234,-1.7269,-1.7934,-1.9124,-1.9147,-1.9846,-2.1062,-2.0986,-2.103,-2.1264,-2.1205,-2.0958,-2.0658,-2.0839,-2.0775,-2.0722,-2.1031,-2.0882,-2.05,-2.0685,-2.0565,-2.0206,1.1727,1.2513,1.3037,1.2157,1.2788,1.331,1.3057,1.3018,1.3136,1.3509,1.2451,1.124,1.0072,0.6432,0.3404,0.1712,-0.4573,-0.8781,-0.954,-1.2139,-1.348,-1.3102,-1.2043,-1.1772,-1.2446,-1.1425,-1.1061,-1.1413,-1.1822,-1.1905,-1.1736,-1.2262,-1.252,-1.253,-1.2617,-1.2764,-1.2924,-1.2954,-1.3244,-1.3885,-1.576,-1.6098,-1.5553,-1.6852,-1.7307,-1.7175,-1.64,-1.5683,-1.5068,-1.5106,-1.4782,-1.4291,-1.3458,-1.3221,-1.3037,-1.1804,-1.1411,-1.1199,-1.0392,-1.021,-1.0383,-1.0846,-1.078,-1.0731,0.0,0.0,0.0,-1.1271,-1.1515,-1.1636,-1.1416,-1.1515,-1.1747,-1.1915,-1.2175,-1.247,-1.2755,-1.3285,-1.3585,-1.3319,-1.3678,-1.4107,-1.4409,-1.4533,-1.489,-1.5542,-1.5633,-1.567,-1.5817,-1.6028,-1.6166,-1.6083,-1.6252,-1.6582,-1.7101,-1.7175,-1.7832,-1.8964,-1.9214,-1.9907,-2.1019,-2.0955,-2.1065,-2.1384,-2.1084,-2.0839,-2.0582,-2.0737,-2.0696,-2.0529,-2.0864,-2.083,-2.0523,-2.0523,-2.0523,-2.0482,1.2836,1.2868,1.314,1.3792,1.343,1.3229,1.3703,1.3782,1.3529,1.2836,1.2089,1.1385,1.0832,0.9499,0.5642,-0.1871,-0.3878,-0.7948,-1.5543,-1.5117,-1.4631,-1.4803,-1.3281,-1.2865,-1.3753,-1.227,-1.1972,-1.2964,-1.1559,-1.1183,-1.1775,-1.1571,-1.1765,-1.2267,-1.2456,-1.2568,-1.2691,-1.3494,-1.4401,-1.5341,-1.6245,-1.5543,-1.4166,-1.5515,-1.6039,-1.6117,-1.6213,-1.5854,-1.5275,-1.48,-1.4496,-1.4186,-1.3455,-1.3336,-1.3288,-1.2393,-1.2195,-1.2225,-1.1662,-1.1713,-1.181,-1.1416,-1.1747,-1.2049,-1.1609,0.0,-1.1312,-1.1331,0.0,-1.1322,-1.1172,0.0,0.0,-1.1395,-1.1489,-1.1636,-1.1916,-1.252,-1.3046,-1.3262,-1.3432,-1.364,-1.3891,-1.4192,-1.4666,-1.5325,-1.5458,-1.5679,-1.6138,-1.6166,-1.6357,-1.6602,-1.6234,-1.6335,-1.6809,-1.6763,-1.7334,-1.857,-1.8885,-1.966,-2.0747,-2.0862,-2.1001,-2.125,-2.1192,-2.121,-2.1227,-2.0676,-2.0631,-2.0794,-2.0466,-2.0121,-1.982,-1.9923,-1.9923,-1.9939,1.3461,1.3409,1.352,1.3809,1.3631,1.3552,1.3815,1.396,1.369,1.2839,1.2352,1.0744,0.7114,0.3773,-0.0943,-0.777,-1.0977,-1.4119,-1.7628,-1.6754,-1.6022,-1.585,-1.4137,-1.3301,-1.359,-1.2291,-1.1593,-1.1568,-1.1021,-1.0924,-1.1223,-1.1258,-1.1776,-1.2605,-1.2532,-1.2931,-1.3636,-1.3571,-1.4029,-1.4831,-1.5117,-1.4545,-1.375,-1.5701,-1.6147,-1.5723,-1.6768,-1.6355,-1.539,-1.5825,-1.5369,-1.4619,-1.4435,-1.3935,-1.333,-1.3016,-1.2647,-1.224,-1.1785,-1.18,-1.1919,-1.1872,-1.1898,-1.1933,-1.1835,-1.1685,-1.1575,-1.1514,0.0,0.0,0.0,0.0,0.0,0.0,-1.166,-1.1818,-1.1815,-1.2139,-1.2497,-1.2857,-1.3032,-1.3234,-1.3637,-1.4072,-1.4445,-1.4681,-1.4974,-1.5167,-1.53,-1.573,-1.6047,-1.6107,-1.6088,-1.6283,-1.6817,-1.6732,-1.7391,-1.8797,-1.8999,-1.9756,-2.0967,-2.0785,-2.1008,-2.1463,-2.0734,-2.058,-2.08,-2.0194,-1.986,-1.9711,-1.9632,-1.984,-2.0164,-2.0281,-2.0344,-2.0314,1.1895,1.2818,1.3775,1.3715,1.3795,1.3841,1.3841,1.3886,1.3601,1.2816,1.2547,1.0079,0.4044,0.0093,-0.4956,-1.1999,-1.5704,-1.8056,-1.9064,-1.8357,-1.7638,-1.7058,-1.5504,-1.4441,-1.4011,-1.2846,-1.1885,-1.1139,-1.0859,-1.0876,-1.1167,-1.1231,-1.1783,-1.2712,-1.2769,-1.3347,-1.4284,-1.3857,-1.4259,-1.5148,-1.4913,-1.4722,-1.4785,-1.6243,-1.644,-1.6101,-1.7494,-1.6987,-1.5862,-1.6688,-1.6124,-1.5088,-1.5159,-1.4487,-1.3678,-1.3638,-1.3189,-1.2663,-1.2157,-1.2109,-1.2225,-1.2147,-1.1974,-1.1837,-1.1782,-1.1868,-1.1837,-1.1837,-1.2079,0.0,0.0,0.0,-1.193,-1.1829,0.0,-1.2008,-1.1739,-1.1817,-1.2035,-1.2501,-1.2823,-1.3167,-1.3568,-1.3839,-1.4042,-1.4212,-1.4447,-1.4596,-1.4775,-1.5372,-1.5783,-1.5904,-1.6066,-1.641,-1.6864,-1.6864,-1.7557,-1.8848,-1.8977,-1.9667,-2.0807,-2.0537,-2.0787,-2.1428,-2.0356,-2.0132,-2.0427,-1.9734,-1.9256,-1.9048,-1.8974,-1.946,-2.02,-2.0392,-2.0546,-2.0733,0.7157,1.0311,1.3841,1.3967,1.4,1.4,1.4,1.3661,1.3198,1.2579,1.2269,0.9681,0.3339,0.2196,-0.2358,-1.3014,-1.4422,-1.6532,-2.074,-2.032,-1.952,-1.867,-1.7754,-1.683,-1.5838,-1.4508,-1.3563,-1.3005,-1.1336,-1.1053,-1.2066,-1.1455,-1.1571,-1.2246,-1.3084,-1.3716,-1.4141,-1.4632,-1.5826,-1.7321,-1.6636,-1.6972,-1.7806,-1.6799,-1.6779,-1.7424,-1.8342,-1.7858,-1.6883,-1.7008,-1.6276,-1.5364,-1.5212,-1.4923,-1.4538,-1.406,-1.4011,-1.3933,-1.3021,-1.314,-1.3273,-1.2176,-1.2111,-1.2184,-1.1456,-1.1834,-1.2263,-1.2263,-1.2726,-1.3086,-1.3241,-1.291,-1.2602,-1.2316,-1.2199,0.0,0.0,-1.1425,-1.1616,-1.2434,-1.3101,-1.3523,-1.3695,-1.337,-1.3399,-1.4068,-1.3997,-1.4292,-1.5144,-1.535,-1.572,-1.6363,-1.6384,-1.6591,-1.7011,-1.7011,-1.7497,-1.8531,-1.8531,-1.9033,-1.9947,-1.9936,-2.0322,-2.0875,-2.0181,-2.0191,-2.0586,-1.9286,-1.8986,-1.929,-1.8688,-1.8937,-1.9754,-1.9856,-2.0232,-2.0733,1.1228,1.2372,1.3527,1.3297,1.3378,1.354,1.3755,1.3435,1.1715,0.7729,0.6767,0.2864,-0.6622,-0.8074,-1.1428,-1.9025,-1.998,-2.0944,-2.2768,-2.1607,-2.0501,-1.9737,-1.8213,-1.7068,-1.6386,-1.5062,-1.3999,-1.331,-1.1909,-1.1661,-1.2491,-1.1703,-1.221,-1.3775,-1.3406,-1.3884,-1.4953,-1.5012,-1.5556,-1.6376,-1.6425,-1.7166,-1.8112,-1.7234,-1.7362,-1.8035,-1.8639,-1.84,-1.7754,-1.787,-1.7071,-1.6056,-1.5973,-1.5299,-1.4552,-1.4605,-1.443,-1.4032,-1.341,-1.3361,-1.3309,-1.2589,-1.2304,-1.2104,-1.1817,-1.1957,-1.2167,-1.2281,-1.2636,-1.3004,-1.3241,-1.3122,-1.2842,-1.2378,-1.2165,-1.1751,0.0,-1.075,-1.0906,-1.1221,-1.2203,-1.301,-1.3494,-1.3805,-1.41,-1.4387,-1.454,-1.4695,-1.4938,-1.5558,-1.5962,-1.6185,-1.6714,-1.7099,-1.7357,-1.7412,-1.7934,-1.8803,-1.8723,-1.9228,-2.0366,-1.975,-1.9957,-2.064,-1.9601,-1.9406,-1.9784,-1.8746,-1.8283,-1.8272,-1.8361,-1.8644,-1.9094,-1.9857,-2.0369,-2.0688,0.5874,0.9498,1.3104,1.3012,1.3138,1.2639,1.072,1.0004,0.765,0.1936,0.0564,-0.334,-1.2455,-1.3859,-1.6571,-2.2644,-2.345,-2.3545,-2.342,-2.2669,-2.1705,-2.0565,-1.9543,-1.8609,-1.7758,-1.6711,-1.5539,-1.4217,-1.3348,-1.2973,-1.3094,-1.2474,-1.2909,-1.4166,-1.3569,-1.4137,-1.55,-1.5413,-1.5916,-1.6752,-1.6938,-1.7605,-1.85,-1.8051,-1.8178,-1.8675,-1.9112,-1.8778,-1.8142,-1.8266,-1.7433,-1.6377,-1.651,-1.5765,-1.4959,-1.518,-1.501,-1.4622,-1.4038,-1.3841,-1.3603,-1.3057,-1.2655,-1.2341,-1.2178,-1.2303,-1.2517,-1.268,-1.3046,-1.3435,-1.367,-1.3551,-1.3204,-1.26,-1.2422,-1.1957,0.0,-1.0517,-1.0611,-1.0795,-1.1757,-1.2561,-1.3077,-1.3461,-1.3831,-1.4175,-1.4295,-1.4581,-1.5008,-1.5627,-1.616,-1.6613,-1.7103,-1.7479,-1.77,-1.77,-1.8081,-1.8757,-1.8567,-1.8977,-1.9925,-1.9371,-1.9539,-2.0286,-1.9166,-1.892,-1.92,-1.8357,-1.7822,-1.7678,-1.798,-1.8242,-1.8583,-1.9744,-2.0393,-2.0522,-0.7419,0.2115,1.1873,1.2256,1.2686,1.0966,0.4988,0.3625,0.1214,-0.4504,-0.6049,-0.875,-1.4269,-1.5171,-1.7752,-2.3676,-2.4523,-2.4186,-2.29,-2.3508,-2.3097,-2.1295,-2.1637,-2.122,-1.985,-1.9235,-1.7893,-1.5783,-1.5433,-1.4791,-1.388,-1.3704,-1.3591,-1.3578,-1.3685,-1.4474,-1.5753,-1.5917,-1.6948,-1.8491,-1.8092,-1.836,-1.9034,-1.9191,-1.9302,-1.9404,-1.9805,-1.9194,-1.8128,-1.8147,-1.7307,-1.6431,-1.6776,-1.6429,-1.5799,-1.583,-1.5851,-1.5634,-1.4947,-1.4552,-1.4252,-1.3538,-1.3126,-1.2862,-1.256,-1.2994,-1.3438,-1.3469,-1.3897,-1.4354,-1.4483,-1.4185,-1.3698,-1.303,-1.2857,-1.2345,-1.1076,-1.0742,-1.0766,-1.1233,-1.1853,-1.2273,-1.2421,-1.2523,-1.2785,-1.3379,-1.3422,-1.3956,-1.5286,-1.5628,-1.6324,-1.7368,-1.7501,-1.77,-1.8084,-1.781,-1.7943,-1.8402,-1.8205,-1.8379,-1.8834,-1.881,-1.9137,-1.9701,-1.8958,-1.8787,-1.8962,-1.8057,-1.7645,-1.7534,-1.7534,-1.7732,-1.8236,-1.9609,-2.0266,-2.0308,-0.3187,-0.1033,0.0936,0.0303,0.3779,0.4768,-0.0735,-0.2433,-0.5076,-1.0672,-1.2312,-1.5166,-2.0925,-2.1557,-2.2335,-2.4188,-2.4691,-2.4839,-2.4649,-2.4137,-2.3528,-2.2842,-2.1992,-2.1076,-2.0124,-1.8683,-1.7666,-1.7042,-1.5408,-1.4781,-1.5031,-1.4094,-1.397,-1.4451,-1.4335,-1.4965,-1.6114,-1.6795,-1.7642,-1.8596,-1.8486,-1.8871,-1.9545,-1.9579,-1.997,-2.0503,-2.0438,-1.9831,-1.8901,-1.8471,-1.7706,-1.6965,-1.6749,-1.6422,-1.6193,-1.6157,-1.6131,-1.5887,-1.5129,-1.4866,-1.4689,-1.4031,-1.3769,-1.3661,-1.3682,-1.3926,-1.4189,-1.4276,-1.4558,-1.4762,-1.4946,-1.4359,-1.3754,-1.325,-1.2341,-1.1477,-1.0912,-1.0783,-1.0854,-1.1113,-1.1925,-1.2574,-1.2756,-1.3202,-1.359,-1.3978,-1.4439,-1.479,-1.501,-1.5607,-1.6129,-1.6458,-1.7222,-1.7755,-1.7963,-1.7975,-1.8279,-1.8757,-1.8487,-1.8663,-1.929,-1.8964,-1.8869,-1.9054,-1.8857,-1.8588,-1.8311,-1.7965,-1.7755,-1.7656,-1.7656,-1.807,-1.8748,-1.9264,-1.9633,-1.9803,-0.8746,-0.7885,-0.714,-0.7858,-0.593,-0.5192,-0.7921,-0.8776,-1.1259,-1.7173,-1.8531,-2.027,-2.3824,-2.4037,-2.419,-2.4901,-2.5067,-2.5042,-2.4826,-2.4481,-2.4012,-2.3434,-2.271,-2.1974,-2.1256,-1.9968,-1.8925,-1.8206,-1.6594,-1.5737,-1.5618,-1.4544,-1.4239,-1.4588,-1.4511,-1.5154,-1.6392,-1.7756,-1.8258,-1.8238,-1.8813,-1.9169,0.0,-1.9686,-2.0094,-2.0416,-2.0321,-1.9829,-1.9241,-1.8571,-1.7842,-1.7153,-1.6948,-1.6612,-1.6342,-1.6482,-1.6342,-1.6018,-1.5791,-1.5403,-1.5027,-1.4757,-1.4493,-1.4286,-1.435,-1.4478,-1.4661,-1.4852,-1.4899,-1.4978,-1.5164,-1.4551,-1.3867,-1.338,-1.2208,-1.136,-1.1269,-1.1129,-1.1167,-1.1484,-1.2047,-1.245,-1.2705,-1.3099,-1.3438,-1.355,-1.3991,-1.4422,-1.4697,-1.5432,-1.6109,-1.6558,-1.7202,-1.7759,-1.8127,-1.8193,-1.8452,-1.8841,-1.867,-1.8833,-1.9377,-1.8982,-1.8851,-1.8893,-1.8637,-1.8356,-1.8061,-1.7854,-1.7689,-1.7645,-1.7656,-1.7991,-1.8374,-1.8543,-1.8965,-1.9298,-1.8287,-1.5999,-1.3531,-1.3782,-1.5192,-1.6165,-1.5858,-1.5585,-1.7393,-2.2936,-2.3818,-2.413,-2.4754,-2.4498,-2.4672,-2.5689,-2.5609,-2.5159,-2.4406,-2.4676,-2.4474,-2.3563,-2.345,-2.3194,-2.2676,-2.1828,-2.0686,-1.9272,-1.8194,-1.7034,-1.5811,-1.4967,-1.4511,-1.437,-1.4529,-1.5363,-1.6734,-1.8574,-1.8753,-1.7868,-1.9033,-1.9394,-1.9199,-1.9609,-1.9786,-1.9887,-1.9899,-1.9566,-1.9127,-1.8577,-1.7872,-1.7225,-1.7158,-1.683,-1.6421,-1.6769,-1.6551,-1.6202,-1.6473,-1.5947,-1.536,-1.5505,-1.5204,-1.4821,-1.4835,-1.4976,-1.5116,-1.5269,-1.5186,-1.5114,-1.5318,-1.4706,-1.3969,-1.3461,-1.2429,-1.1788,-1.2026,-1.1805,-1.1753,-1.2132,-1.2288,0.0,-1.2552,-1.2786,-1.2849,-1.2666,-1.3048,-1.3617,-1.4369,-1.5171,-1.6049,-1.7058,-1.7242,-1.7675,-1.841,-1.8422,-1.853,-1.8851,-1.8798,-1.8958,-1.9182,-1.8905,-1.8839,-1.8893,-1.8356,-1.8073,-1.7995,-1.7623,-1.7523,-1.7534,-1.7645,-1.7767,-1.7767,-1.7854,-1.8303,-1.8793,-2.0119,-2.0047,-1.9943,-1.9972,-2.0798,-2.2004,-2.3551,-2.3588,-2.3852,-2.491,-2.5357,-2.5796,-2.6338,-2.6277,-2.6221,-2.6269,-2.6379,-2.608,-2.5252,-2.4897,-2.4574,-2.415,-2.335,-2.2972,-2.3095,-2.1566,-2.06,-2.0258,-1.8593,-1.7213,-1.6102,-1.5291,-1.4883,-1.482,-1.5068,-1.61,-1.7649,-1.8189,-1.8566,-1.8755,-1.8865,-1.9262,-1.9682,-1.9448,-1.9589,-1.9847,-1.9676,-1.9249,-1.872,-1.8318,-1.7862,-1.7359,-1.7027,-1.6908,-1.6839,-1.6908,-1.6691,-1.6473,-1.6403,-1.6158,-1.5896,-1.5773,-1.5651,-1.5592,-1.541,-1.5711,-1.6049,-1.5865,-1.5948,-1.6001,-1.5844,-1.5072,-1.4342,-1.38,-1.319,-1.2868,-1.303,-1.2912,-1.2773,-1.2701,-1.3396,-1.3601,-1.2797,-1.3216,-1.3279,-1.2596,-1.3557,-1.4111,-1.3928,-1.4619,-1.5491,-1.6424,-1.6967,-1.7592,-1.8367,-1.8422,-1.8572,-1.8946,-1.8851,-1.8958,-1.9182,-1.8905,-1.8691,-1.8476,-1.8205,-1.792,-1.7579,-1.7523,-1.759,-1.7656,-1.7799,-1.7909,-1.803,-1.7909,-1.802,-1.8221,-2.2838,-2.2854,-2.3056,-2.3632,-2.4408,-2.5444,-2.6841,-2.7623,-2.7742,-2.6754,-2.6161,-2.6189,-2.7211,-2.6655,-2.639,-2.6912,-2.6418,-2.5874,-2.542,-2.4986,-2.4605,-2.4256,-2.3642,-2.3206,-2.3003,-2.2031,-2.1115,-2.0259,-1.8884,-1.7437,-1.5955,-1.5221,-1.4607,-1.4176,-1.5234,-1.6405,-1.7666,-1.8635,-1.8941,-1.878,-1.921,-1.9399,-1.9375,-1.9158,-1.9083,-1.9163,-1.8942,-1.8654,-1.8413,-1.8295,-1.7934,-1.7422,-1.7167,-1.6968,-1.6908,-1.6908,-1.676,-1.6612,-1.6621,-1.6342,-1.6061,-1.607,-1.5938,-1.5824,-1.5835,-1.607,-1.6289,-1.63,-1.6315,-1.6195,-1.5813,-1.5446,-1.498,-1.4496,-1.4058,-1.3818,-1.3871,-1.3871,-1.3789,-1.3532,-1.4035,-1.411,-1.3303,-1.3795,-1.385,-1.3076,-1.3572,-1.397,-1.4015,-1.446,-1.5211,-1.6327,-1.6864,-1.7566,-1.8506,-1.8625,-1.8827,-1.9081,-1.9064,-1.9064,-1.9117,-1.8839,-1.8518,-1.8247,-1.7975,-1.7755,-1.7534,-1.759,-1.77,-1.781,-1.7975,-1.803,-1.8084,-1.803,-1.803,-1.8084,-2.521,-2.4989,-2.5013,-2.5668,-2.6566,-2.7501,-2.834,-2.9558,-2.9849,-2.8223,-2.7083,-2.6842,-2.7975,-2.7018,-2.6644,-2.7537,-2.6474,-2.5654,-2.5356,-2.5126,-2.4806,-2.443,-2.4129,-2.3779,-2.3348,-2.2762,-2.1803,-2.0433,-1.931,-1.7809,-1.5954,-1.5301,-1.4627,-1.4071,-1.5649,-1.6754,-1.7514,-1.8981,-1.9174,-1.857,-1.9415,-1.9473,-1.9008,-1.8942,-1.8674,-1.8492,-1.8446,-1.8301,-1.8033,-1.828,-1.7943,-1.7493,-1.7227,-1.7038,-1.6968,-1.6908,-1.683,-1.6751,-1.6908,-1.656,-1.6132,-1.6272,-1.607,-1.585,-1.5957,-1.621,-1.6385,-1.6573,-1.645,-1.6216,-1.578,-1.5663,-1.5533,-1.5087,-1.4765,-1.455,-1.445,-1.4689,-1.4653,-1.4255,-1.4453,-1.4382,-1.3858,-1.416,-1.4171,-1.3739,-1.3682,-1.3807,-1.4019,-1.4324,-1.5025,-1.6098,-1.6706,-1.747,-1.8336,-1.8826,-1.9133,-1.9291,-1.9223,-1.917,-1.904,-1.8721,-1.8344,-1.803,-1.7755,-1.759,-1.7523,-1.77,-1.781,-1.7963,-1.8084,-1.8139,-1.8139,-1.8139,-1.8084,-1.8084,-2.6083,-2.6548,-2.6816,-2.5966,-2.6985,-2.8237,-2.9231,-2.981,-2.9793,-2.8842,-2.8945,-2.9123,-2.9076,-2.8556,-2.8155,-2.7966,-2.7165,-2.6248,-2.5196,-2.542,-2.5464,-2.5124,-2.4717,-2.4683,-2.5059,-2.351,-2.2443,-2.1896,-2.0168,-1.8485,-1.6876,-1.5998,-1.574,-1.6046,-1.686,-1.7468,-1.7962,-1.8539,-1.8742,-1.862,-1.9157,-1.9142,-1.8875,-1.9008,-1.8741,-1.8397,-1.8943,-1.8438,-1.7584,-1.8024,-1.7862,-1.7422,-1.7027,-1.7038,-1.7166,-1.6968,-1.7038,-1.7097,-1.6968,-1.6621,-1.6272,-1.6272,-1.607,-1.5773,-1.5745,-1.6136,-1.6573,-1.6633,-1.6486,-1.6306,-1.604,-1.5792,-1.5533,-1.5087,-1.5134,-1.5073,-1.4702,-1.5188,-1.534,-1.4747,-1.4838,-1.4838,-1.4558,-1.3881,-1.3746,-1.4293,-1.4367,-1.414,-1.3501,-1.414,-1.4702,-1.5234,-1.6454,-1.7239,-1.7519,-1.8597,-1.9291,-1.9552,-1.9328,-1.921,-1.9186,-1.8679,-1.8247,-1.7897,-1.7634,-1.7523,-1.7523,-1.7799,-1.7963,-1.8084,-1.8313,-1.8367,-1.8367,-1.815,-1.8084,-1.8084,-2.8132,-2.7801,-2.7826,-2.8603,-2.8747,-2.9317,-3.0942,-3.1582,-3.1524,-3.0505,-3.0075,-2.9793,-2.9657,-2.9123,-2.8798,-2.8779,-2.7927,-2.7136,-2.6523,-2.6411,-2.6171,-2.5687,-2.5387,-2.5071,-2.4827,-2.3708,-2.2684,-2.1715,-2.0216,-1.8786,-1.7536,-1.6756,-1.6672,-1.7137,-1.7581,-1.8056,-1.8499,-1.86,-1.8522,-1.8427,-1.885,-1.8791,-1.843,-1.8639,-1.8539,-1.8299,-1.8409,-1.8095,-1.7499,-1.766,-1.7497,-1.711,-1.6954,-1.7038,-1.7166,-1.6968,-1.7038,-1.7166,-1.6968,-1.6691,-1.6473,-1.6473,-1.6272,-1.6097,-1.6198,-1.6495,-1.6784,-1.6961,-1.693,-1.677,-1.6345,-1.6286,-1.6155,-1.5598,-1.5859,-1.6011,-1.587,-1.6227,-1.6169,-1.5335,-1.547,-1.5312,-1.4658,-1.4214,-1.4141,-1.4686,-1.4002,-1.3749,-1.4029,-1.421,-1.4751,-1.5846,-1.6872,-1.7617,-1.8141,-1.8976,-1.95,-1.9617,-1.942,-1.921,-1.8946,-1.8583,-1.8139,-1.7634,-1.7523,-1.7534,-1.7645,-1.792,-1.8182,-1.8398,-1.8422,-1.8476,-1.8464,-1.8193,-1.8084,-1.813,-2.9868,-2.9383,-2.9329,-3.0566,-3.0432,-3.0664,-3.2108,-3.284,-3.2827,-3.1613,-3.1047,-3.0547,-3.0042,-2.9397,-2.9078,-2.9236,-2.8262,-2.7516,-2.7203,-2.7065,-2.6753,-2.6204,-2.5974,-2.5547,-2.4893,-2.3907,-2.2864,-2.1855,-2.0415,-1.9237,-1.8332,-1.7543,-1.7389,-1.7873,-1.8166,-1.8417,-1.868,-1.8758,-1.8625,-1.8424,-1.8764,-1.8657,-1.8238,-1.8429,-1.8414,-1.8221,-1.8144,-1.7909,-1.7489,-1.7612,-1.7357,-1.6908,-1.6908,-1.7038,-1.7166,-1.6968,-1.7038,-1.7166,-1.6968,-1.6751,-1.6603,-1.6603,-1.6473,-1.6342,-1.6533,-1.676,-1.6941,-1.7154,-1.7235,-1.7171,-1.666,-1.6665,-1.6595,-1.61,-1.6363,-1.6532,-1.6424,-1.6727,-1.6721,-1.5883,-1.5785,-1.5581,-1.4998,-1.4574,-1.4525,-1.5005,-1.4194,-1.404,-1.4783,-1.4559,-1.4983,-1.6238,-1.7229,-1.7934,-1.8376,-1.9218,-1.9565,-1.9565,-1.9356,-1.9105,-1.8798,-1.841,-1.7975,-1.7423,-1.7534,-1.759,-1.7711,-1.803,-1.8356,-1.8614,-1.8518,-1.8464,-1.8518,-1.8193,-1.803,-1.8043,-3.0819,-3.1396,-3.1641,-3.0992,-3.1662,-3.2282,-3.2368,-3.3081,-3.3121,-3.1765,-3.1996,-3.1738,-3.0342,-2.9483,-2.9036,-2.9094,-2.8003,-2.7145,-2.6729,-2.7138,-2.715,-2.6616,-2.6527,-2.6265,-2.5803,-2.4236,-2.3187,-2.2694,-2.1033,-1.9903,-1.9361,-1.8273,-1.7934,-1.8217,-1.856,-1.858,-1.8451,-1.8885,-1.901,-1.8892,-1.8903,-1.8726,-1.8482,-1.8482,-1.8279,-1.8066,-1.8477,-1.8091,-1.7527,-1.7934,-1.7591,-1.6908,-1.6908,-1.7038,-1.7166,-1.6968,-1.7038,-1.7166,-1.6968,-1.6751,-1.6603,-1.6603,-1.6473,-1.6342,-1.6533,-1.676,-1.6927,-1.7054,-1.7242,-1.7311,-1.705,-1.6737,-1.6476,-1.6399,-1.6534,-1.6422,-1.5968,-1.6537,-1.683,-1.6243,-1.5758,-1.5504,-1.5686,-1.4925,-1.4667,-1.5276,-1.54,-1.549,-1.5501,-1.5307,-1.5441,-1.5988,-1.7313,-1.7941,-1.7823,-1.9019,-1.9512,-1.942,-1.9146,-1.8946,-1.8798,-1.8182,-1.77,-1.7334,-1.7601,-1.7711,-1.7767,-1.8205,-1.8464,-1.8614,-1.8614,-1.8518,-1.8367,-1.8193,-1.7931,-1.7779,-3.1291,-3.1672,-3.1881,-3.1457,-3.1986,-3.2426,-3.224,-3.2773,-3.2728,-3.1431,-3.1629,-3.1488,-3.0398,-2.9585,-2.9289,-2.968,-2.866,-2.8014,-2.8055,-2.7942,-2.7556,-2.6847,-2.6252,-2.5644,-2.4941,-2.3621,-2.2799,-2.2495,-2.0873,-1.9786,-1.9266,-1.9393,-1.9332,-1.9059,-1.9006,-1.8736,-1.8267,-1.8422,-1.8224,-1.7806,-1.8449,-1.8346,-1.7919,-1.8228,-1.8202,-1.8027,-1.8007,-1.7772,-1.7489,-1.7622,-1.7426,-1.7097,-1.7097,-1.7166,-1.7166,-1.6968,-1.7038,-1.7166,-1.6968,-1.6839,-1.683,-1.683,-1.683,-1.6959,-1.6959,-1.7235,-1.7541,-1.7812,-1.7833,-1.7725,-1.762,-1.7298,-1.6995,-1.685,-1.6838,-1.6858,-1.6852,-1.7115,-1.7103,-1.6435,-1.6176,-1.6049,-1.5959,-1.5451,-1.5496,-1.6408,-1.5763,-1.5596,-1.6284,-1.5949,-1.6247,-1.7338,-1.7442,-1.7837,-1.861,-1.8896,-1.9154,-1.942,-1.9146,-1.8774,-1.8302,-1.8018,-1.7744,-1.7423,-1.7689,-1.7755,-1.7767,-1.8205,-1.8464,-1.8614,-1.8518,-1.8422,-1.8367,-1.8193,-1.7931,-1.7779,-3.2525,-3.2942,-3.3237,-3.2844,-3.3122,-3.3332,-3.3164,-3.343,-3.3167,-3.1879,-3.1938,-3.1634,-3.0354,-2.9442,-2.9187,-2.9798,-2.9002,-2.8484,-2.8469,-2.8121,-2.7589,-2.6824,-2.6073,-2.5309,-2.4521,-2.3463,-2.2709,-2.2231,-2.0852,-1.9917,-1.9484,-1.9698,-1.9588,-1.9164,-1.9227,-1.8941,-1.8438,-1.8566,-1.8319,-1.8009,-1.829,-1.8161,-1.776,-1.8103,-1.8066,-1.7862,-1.7774,-1.7588,-1.747,-1.7392,-1.7245,-1.7079,-1.693,-1.6986,-1.7038,-1.6908,-1.6968,-1.7038,-1.6908,-1.6908,-1.6908,-1.6908,-1.6968,-1.7107,-1.7166,-1.751,-1.7852,-1.8056,-1.8128,-1.8137,-1.8127,-1.778,-1.7415,-1.7426,-1.7291,-1.72,-1.7379,-1.7479,-1.7265,-1.6474,-1.6462,-1.6367,-1.6114,-1.6092,-1.6445,-1.7281,-1.6872,-1.6819,-1.7374,-1.6692,-1.6945,-1.8407,-1.8106,-1.8357,-1.9221,-1.9006,-1.8973,-1.9158,-1.8893,-1.8464,-1.792,-1.7975,-1.7854,-1.759,-1.7854,-1.7909,-1.781,-1.8205,-1.8476,-1.8518,-1.8422,-1.8367,-1.8259,-1.815,-1.799,-1.7991,-3.4253,-3.4819,-3.5144,-3.4723,-3.4634,-3.4676,-3.4751,-3.4708,-3.4162,-3.2803,-3.2689,-3.2046,-3.0271,-2.9185,-2.8839,-2.9487,-2.9024,-2.8499,-2.8084,-2.7754,-2.7258,-2.6572,-2.5908,-2.5189,-2.444,-2.3668,-2.2886,-2.1957,-2.0974,-2.0335,-2.0041,-1.9547,-1.9083,-1.8713,-1.9194,-1.9201,-1.8923,-1.9109,-1.9179,-1.9201,-1.8404,-1.8035,-1.8008,-1.8008,-1.7862,-1.7706,-1.7706,-1.7588,-1.747,-1.7304,-1.7107,-1.6844,-1.6536,-1.6606,-1.6899,-1.6872,-1.689,-1.6908,-1.6908,-1.6908,-1.6908,-1.6908,-1.6908,-1.7038,-1.7235,-1.7657,-1.7998,-1.7784,-1.8172,-1.8499,-1.8499,-1.8042,-1.7811,-1.8118,-1.7658,-1.7323,-1.7468,-1.7645,-1.7384,-1.6525,-1.6596,-1.6535,-1.6219,-1.6725,-1.7317,-1.7981,-1.8505,-1.8734,-1.8634,-1.7551,-1.7651,-1.9154,-1.9128,-1.9246,-1.9604,-1.9162,-1.8857,-1.8744,-1.8476,-1.815,-1.7711,-1.7975,-1.7975,-1.7711,-1.7975,-1.803,-1.7909,-1.8247,-1.8367,-1.8422,-1.8367,-1.8259,-1.8084,-1.8084,-1.8126,-1.8264,-3.4455,-3.414,-3.3859,-3.4058,-3.4015,-3.3836,-3.3575,-3.3836,-3.3564,-3.2133,-3.1991,-3.1469,-3.0028,-2.9519,-2.9214,-2.9089,-2.8106,-2.7583,-2.7794,-2.74,-2.6774,-2.5957,-2.5259,-2.4511,-2.358,-2.3305,-2.2707,-2.1749,-2.1392,-2.0991,-2.0489,-2.041,-2.01,-1.9598,-1.9481,-1.9168,-1.878,-1.9046,-1.8998,-1.8599,-1.8476,-1.815,-1.7784,-1.7784,-1.7716,-1.7706,-1.7706,-1.7588,-1.7539,-1.7579,-1.7373,-1.7157,-1.7328,-1.7229,-1.7042,-1.6609,-1.667,-1.6908,-1.6908,-1.6908,-1.6908,-1.7107,-1.7304,-1.7579,-1.7988,-1.8134,-1.8269,-1.8472,-1.8334,-1.8222,-1.8417,-1.7936,-1.7571,-1.7631,-1.7442,-1.739,-1.7601,-1.7656,-1.7492,-1.6938,-1.7171,-1.7268,-1.7086,-1.7502,-1.7897,-1.827,-1.8529,-1.8744,-1.8896,-1.8727,-1.875,-1.9057,-1.8191,-1.8357,-1.9592,-1.8785,-1.8329,-1.8247,-1.8073,-1.7963,-1.7854,-1.803,-1.803,-1.7854,-1.803,-1.803,-1.7897,-1.8084,-1.8259,-1.8367,-1.8247,-1.8139,-1.8084,-1.8084,-1.8126,-1.8176,-3.4991,-3.4885,-3.4747,-3.4778,-3.4706,-3.4624,-3.4486,-3.4213,-3.3628,-3.2456,-3.1932,-3.1158,-2.9855,-2.9458,-2.9153,-2.8767,-2.8008,-2.7575,-2.766,-2.7491,-2.6874,-2.5717,-2.5401,-2.4632,-2.329,-2.3169,-2.2757,-2.1943,-2.1731,-2.1301,-2.0779,-2.0613,-2.0286,-1.9783,-1.9655,-1.9393,-1.9058,-1.9169,-1.8919,-1.8395,-1.8218,-1.7833,-1.7501,-1.7579,-1.7579,-1.7501,-1.7588,-1.752,-1.7382,-1.7304,-1.7235,-1.707,-1.7088,-1.7086,-1.7092,-1.6499,-1.6519,-1.676,-1.676,-1.676,-1.683,-1.7097,-1.7373,-1.7657,-1.7988,-1.8202,-1.8405,-1.8539,-1.8375,-1.8253,-1.8253,-1.7831,-1.752,-1.752,-1.7275,-1.7147,-1.7201,-1.728,-1.7151,-1.6842,-1.7229,-1.7582,-1.7735,-1.8075,-1.8442,-1.8851,-1.8927,-1.8969,-1.9007,-1.9106,-1.9331,-1.9535,-1.8745,-1.8759,-1.9604,-1.8698,-1.8183,-1.7931,-1.7909,-1.7854,-1.7799,-1.8096,-1.8139,-1.8018,-1.8193,-1.8139,-1.8018,-1.8084,-1.8139,-1.8259,-1.8139,-1.8084,-1.8084,-1.8084,-1.8329,-1.8581,-3.5588,-3.5793,-3.5882,-3.5757,-3.5714,-3.5756,-3.5945,-3.5106,-3.4108,-3.3135,-3.2232,-3.1149,-2.9716,-2.9279,-2.8902,-2.8518,-2.8219,-2.7908,-2.7601,-2.7739,-2.7153,-2.5637,-2.5879,-2.5215,-2.3334,-2.3188,-2.293,-2.245,-2.1984,-2.1537,-2.1096,-2.0638,-2.0217,-1.9787,-1.9913,-1.9791,-1.9487,-1.938,-1.8998,-1.8442,-1.791,-1.7501,-1.7235,-1.7392,-1.7392,-1.7235,-1.7461,-1.7392,-1.7245,-1.7047,-1.6978,-1.6913,-1.6573,-1.6828,-1.7101,-1.6631,-1.6565,-1.6673,-1.6673,-1.6682,-1.6821,-1.7166,-1.7451,-1.7666,-1.7784,-1.8202,-1.8529,-1.8315,-1.8338,-1.8257,-1.8004,-1.7685,-1.7414,-1.7472,-1.7103,-1.6833,-1.6802,-1.686,-1.6827,-1.6685,-1.726,-1.7796,-1.8169,-1.8532,-1.8929,-1.9384,-1.942,-1.9379,-1.9171,-1.9294,-1.9597,-2.0169,-1.9787,-1.953,-1.9448,-1.8679,-1.8096,-1.7711,-1.7799,-1.7799,-1.7767,-1.8205,-1.8313,-1.8139,-1.8367,-1.8313,-1.815,-1.815,-1.8139,-1.8084,-1.8084,-1.8084,-1.8084,-1.8084,-1.8544,-1.9019,-3.5656,-3.4733,-3.4105,-3.5177,-3.5283,-3.5277,-3.5476,-3.5533,-3.496,-3.3293,-3.2755,-3.1728,-2.9664,-2.9126,-2.8791,-2.8432,-2.7979,-2.763,-2.7509,-2.7487,-2.6862,-2.5492,-2.602,-2.5499,-2.3749,-2.3261,-2.3058,-2.308,-2.2445,-2.1857,-2.1413,-2.1315,-2.0968,-2.0411,-2.0384,-2.016,-1.9836,-1.9441,-1.8998,-1.8442,-1.791,-1.7501,-1.7235,-1.7392,-1.7392,-1.7235,-1.7579,-1.7588,-1.747,-1.7401,-1.7314,-1.7157,-1.7434,-1.7316,-1.7226,-1.7425,-1.7189,-1.6839,-1.6839,-1.7116,-1.7392,-1.7461,-1.7803,-1.8202,-1.8347,-1.8539,-1.8706,-1.8438,-1.8186,-1.7873,-1.7496,-1.7217,-1.7129,-1.7331,-1.7016,-1.6802,-1.7089,-1.7219,-1.7208,-1.6968,-1.7989,-1.8654,-1.837,-1.8912,-1.9374,-1.9552,-1.9565,-1.9683,-2.0003,-1.9902,-2.0004,-2.0182,-1.9572,-1.9094,-1.8762,-1.8236,-1.7865,-1.7711,-1.7711,-1.7755,-1.7909,-1.8247,-1.8367,-1.8367,-1.8518,-1.8464,-1.8367,-1.8367,-1.8259,-1.8084,-1.8084,-1.8084,-1.8084,-1.8084,-1.8544,-1.9019,-3.5701,-3.5034,-3.4538,-3.4988,-3.52,-3.5375,-3.557,-3.5286,-3.4554,-3.3208,-3.2346,-3.1206,-2.9528,-2.9012,-2.8644,-2.821,-2.8057,-2.7866,-2.7636,-2.7412,-2.6749,-2.5592,-2.5994,-2.551,-2.3951,-2.338,-2.305,-2.2938,-2.2486,-2.1995,-2.1471,-2.1221,-2.0816,-2.0302,-2.0248,-1.9922,-1.9473,-1.9142,-1.8664,-1.8037,-1.7716,-1.7382,-1.7038,-1.7245,-1.7176,-1.7038,-1.7373,-1.7373,-1.7314,-1.7185,-1.7176,-1.7235,-1.7373,-1.7373,-1.7392,-1.752,-1.7245,-1.6908,-1.676,-1.6968,-1.7263,-1.747,-1.7725,-1.8056,-1.8337,-1.8549,-1.8619,-1.8431,-1.8155,-1.7809,-1.7584,-1.722,-1.7078,-1.7278,-1.6859,-1.667,-1.7149,-1.7012,-1.7018,-1.7485,-1.8265,-1.8848,-1.8937,-1.9416,-1.972,-1.9708,-1.9862,-2.0016,-2.0182,-2.0131,-2.0131,-2.0182,-1.9572,-1.8943,-1.8518,-1.8182,-1.792,-1.7711,-1.7755,-1.7854,-1.7897,-1.829,-1.8464,-1.8422,-1.8625,-1.8572,-1.8367,-1.8259,-1.8139,-1.7963,-1.792,-1.792,-1.7963,-1.792,-1.8373,-1.903,-3.5927,-3.5562,-3.5133,-3.5032,-3.5302,-3.5597,-3.5775,-3.5187,-3.4379,-3.3407,-3.2348,-3.1204,-2.9986,-2.9324,-2.8771,-2.8238,-2.8244,-2.8066,-2.758,-2.7292,-2.6775,-2.5931,-2.5849,-2.5305,-2.4272,-2.3632,-2.3109,-2.2739,-2.2457,-2.1939,-2.1325,-2.0955,-2.0506,-2.0042,-1.9977,-1.966,-1.9008,-1.8808,-1.8259,-1.7647,-1.7461,-1.7254,-1.6908,-1.7097,-1.7107,-1.6908,-1.7107,-1.7166,-1.7166,-1.6968,-1.7102,-1.7385,-1.7385,-1.753,-1.7735,-1.7779,-1.7392,-1.6917,-1.6655,-1.6684,-1.6847,-1.7232,-1.7513,-1.7765,-1.8111,-1.8322,-1.84,-1.8286,-1.8009,-1.7772,-1.7658,-1.7316,-1.719,-1.7379,-1.6983,-1.6763,-1.7242,-1.6965,-1.7025,-1.7882,-1.8454,-1.8966,-1.9384,-1.9733,-1.9926,-1.9862,-2.0029,-2.0182,-2.0296,-2.0233,-2.0131,-2.0029,-1.9448,-1.8934,-1.8476,-1.8193,-1.792,-1.7711,-1.781,-1.7854,-1.7897,-1.829,-1.8464,-1.8464,-1.8679,-1.8637,-1.841,-1.8259,-1.8084,-1.7963,-1.781,-1.7865,-1.7909,-1.781,-1.8249,-1.8873,-3.6444,-3.5656,-3.4889,-3.5299,-3.5532,-3.5714,-3.5781,-3.5736,-3.5321,-3.4257,-3.3716,-3.2921,-3.1593,-3.0455,-2.9503,-2.8789,-2.8412,-2.7879,-2.7106,-2.6985,-2.6808,-2.6564,-2.5531,-2.4989,-2.4924,-2.4155,-2.3479,-2.2909,-2.2273,-2.1628,-2.1123,-2.0646,-2.027,-1.9933,-1.9736,-1.9341,-1.8808,-1.8472,-1.7998,-1.747,-1.7314,-1.7107,-1.6908,-1.7097,-1.7107,-1.6908,-1.7107,-1.7166,-1.7166,-1.6968,-1.7296,-1.7763,-1.7967,-1.815,-1.8385,-1.8498,-1.7823,-1.7016,-1.6711,-1.6398,-1.6381,-1.6722,-1.7205,-1.7655,-1.7916,-1.8046,-1.8117,-1.7968,-1.7701,-1.7493,-1.7353,-1.739,-1.7523,-1.7799,-1.7466,-1.7254,-1.7549,-1.7634,-1.7753,-1.7966,-1.8782,-1.9384,-1.942,-1.9656,-1.9862,-1.999,-1.999,-2.0144,-2.0461,-2.0296,-1.9978,-1.9473,-1.9146,-1.8881,-1.8614,-1.8127,-1.7854,-1.7711,-1.7711,-1.7755,-1.7909,-1.8073,-1.8302,-1.8614,-1.8614,-1.8614,-1.856,-1.8422,-1.8259,-1.8084,-1.8084,-1.8084,-1.8084,-1.7909,-1.8126,-1.8462,-3.6011,-3.5628,-3.5215,-3.5477,-3.5684,-3.5827,-3.5801,-3.5684,-3.5222,-3.4147,-3.3633,-3.2847,-3.1573,-3.0782,-3.0145,-2.9487,-2.9317,-2.8942,-2.8216,-2.8092,-2.7427,-2.6072,-2.5517,-2.5067,-2.4694,-2.3826,-2.3065,-2.2494,-2.1765,-2.1198,-2.0839,-2.0399,-2.0009,-1.9671,-1.9407,-1.9008,-1.8472,-1.8056,-1.7716,-1.7314,-1.7235,-1.7107,-1.6908,-1.6968,-1.6978,-1.6908,-1.6968,-1.7107,-1.7204,-1.7254,-1.7528,-1.7847,-1.8307,-1.8316,-1.8109,-1.7773,-1.7148,-1.6531,-1.6487,-1.6429,-1.6424,-1.6985,-1.7353,-1.7601,-1.765,-1.7866,-1.7984,-1.7622,-1.7518,-1.7498,-1.74,-1.7479,-1.7579,-1.7854,-1.7554,-1.7402,-1.7871,-1.7903,-1.808,-1.8453,-1.8931,-1.9328,-1.9368,-1.9656,-1.9811,-1.9862,-2.0029,-2.0144,-2.0195,-2.0029,-1.9708,-1.9146,-1.8881,-1.856,-1.8182,-1.8018,-1.7799,-1.759,-1.7755,-1.7854,-1.7897,-1.8193,-1.8367,-1.8464,-1.856,-1.8572,-1.8464,-1.8193,-1.8018,-1.7963,-1.77,-1.7767,-1.7963,-1.7645,-1.789,-1.8417,-3.5941,-3.5703,-3.55,-3.5659,-3.5817,-3.5878,-3.5781,-3.5621,-3.5174,-3.4273,-3.377,-3.3134,-3.2093,-3.1409,-3.0742,-3.009,-2.9943,-2.9588,-2.8783,-2.845,-2.7618,-2.6097,-2.545,-2.4951,-2.4509,-2.3484,-2.2665,-2.2111,-2.1451,-2.088,-2.0518,-2.0205,-1.9813,-1.9407,-1.9065,-1.8596,-1.8066,-1.7706,-1.7373,-1.7107,-1.7107,-1.7038,-1.6908,-1.6908,-1.6908,-1.6908,-1.6908,-1.6968,-1.7162,-1.7429,-1.7668,-1.7979,-1.8533,-1.848,-1.8085,-1.7446,-1.6833,-1.6392,-1.6456,-1.6326,-1.6282,-1.6846,-1.7081,-1.7183,-1.7266,-1.7604,-1.7873,-1.762,-1.7616,-1.7589,-1.771,-1.7578,-1.7579,-1.7854,-1.7679,-1.763,-1.8147,-1.8172,-1.8341,-1.8762,-1.9064,-1.9328,-1.9368,-1.9656,-1.9811,-1.9862,-2.0029,-2.008,-1.999,-1.9811,-1.95,-1.8946,-1.8667,-1.8278,-1.7799,-1.7799,-1.7744,-1.7523,-1.7744,-1.7854,-1.7854,-1.8139,-1.8313,-1.8422,-1.841,-1.841,-1.8367,-1.8018,-1.7909,-1.7909,-1.759,-1.7645,-1.7854,-1.759,-1.7801,-1.8193,-3.642,-3.596,-3.5596,-3.5854,-3.5895,-3.5845,-3.5723,-3.5589,-3.5295,-3.4775,-3.4427,-3.4006,-3.357,-3.2439,-3.142,-3.0681,-3.016,-2.947,-2.8442,-2.7773,-2.7181,-2.6736,-2.5398,-2.4624,-2.4509,-2.3318,-2.242,-2.1877,-2.1376,-2.0741,-2.0096,-1.9987,-1.9605,-1.9065,-1.8643,-1.8172,-1.7696,-1.7364,-1.7097,-1.6899,-1.6899,-1.6908,-1.6908,-1.6908,-1.6908,-1.6908,-1.6908,-1.6908,-1.6963,-1.7358,-1.777,-1.8193,-1.8544,-1.8552,-1.8302,-1.7801,-1.7205,-1.6665,-1.6719,-1.6225,-1.5781,-1.6207,-1.6317,-1.6377,-1.6738,-1.7144,-1.7657,-1.8129,-1.8018,-1.7872,-1.8151,-1.7811,-1.759,-1.7854,-1.7897,-1.8018,-1.8367,-1.8518,-1.8667,-1.8798,-1.9158,-1.942,-1.942,-1.9656,-1.9862,-1.999,-1.999,-1.999,-1.999,-1.972,-1.9356,-1.8798,-1.8452,-1.8061,-1.7534,-1.7645,-1.7645,-1.7523,-1.7645,-1.7711,-1.7711,-1.7854,-1.8073,-1.8367,-1.8193,-1.8193,-1.8367,-1.8018,-1.7963,-1.8084,-1.7963,-1.7897,-1.7897,-1.7897,-1.7799,-1.77,-3.5792,-3.5669,-3.5699,-3.5869,-3.5908,-3.5837,-3.566,-3.5374,-3.5012,-3.4617,-3.4189,-3.3752,-3.335,-3.2729,-3.2068,-3.1349,-3.069,-2.9619,-2.7996,-2.736,-2.6774,-2.615,-2.5328,-2.4765,-2.435,-2.3125,-2.2223,-2.1776,-2.1158,-2.0518,-1.9987,-1.9933,-1.9369,-1.8489,-1.8398,-1.7789,-1.686,-1.6635,-1.6554,-1.6496,-1.6351,-1.6515,-1.6839,-1.656,-1.6621,-1.6908,-1.6751,-1.676,-1.6963,-1.7358,-1.7578,-1.7688,-1.7977,-1.7783,-1.7398,-1.69,-1.6519,-1.6211,-1.6148,-1.6277,-1.6446,-1.6337,-1.6667,-1.6991,-1.7038,-1.7698,-1.8302,-1.8203,-1.8326,-1.837,-1.8217,-1.827,-1.8284,-1.8087,-1.8139,-1.8313,-1.8367,-1.8583,-1.8744,-1.8798,-1.8999,-1.921,-1.9368,-1.9473,-1.9617,-1.9862,-1.9862,-1.9811,-1.972,-1.9565,-1.9263,-1.8798,-1.8356,-1.7975,-1.7645,-1.759,-1.7479,-1.7379,-1.7601,-1.7711,-1.7711,-1.792,-1.8084,-1.8193,-1.8139,-1.8084,-1.8018,-1.7963,-1.7854,-1.7822,-1.7689,-1.7733,-1.7809,-1.7243,-1.7185,-1.7311,-3.5681,-3.567,-3.5779,-3.5871,-3.5878,-3.5773,-3.5527,-3.4885,-3.4375,-3.4213,-3.3563,-3.3063,-3.2858,-3.2504,-3.1967,-3.1338,-3.0444,-2.9345,-2.7864,-2.7261,-2.6654,-2.6002,-2.5216,-2.465,-2.4234,-2.2944,-2.2099,-2.1588,-2.0914,-2.027,-1.9671,-1.9605,-1.9062,-1.8091,-1.7982,-1.7405,-1.6541,-1.6401,-1.6379,-1.6331,-1.6342,-1.6551,-1.6908,-1.663,-1.67,-1.6908,-1.676,-1.666,-1.6762,-1.7312,-1.7639,-1.7726,-1.7488,-1.7243,-1.6975,-1.6432,-1.6208,-1.6107,-1.586,-1.6153,-1.6504,-1.6447,-1.688,-1.74,-1.7428,-1.8123,-1.8702,-1.8665,-1.8848,-1.8956,-1.884,-1.8806,-1.869,-1.8283,-1.8437,-1.8533,-1.8391,-1.8637,-1.8798,-1.8798,-1.8958,-1.9158,-1.9328,-1.942,-1.9565,-1.9798,-1.9759,-1.9708,-1.9617,-1.9356,-1.9052,-1.8625,-1.8193,-1.7822,-1.7545,-1.749,-1.7379,-1.7278,-1.7545,-1.7711,-1.7711,-1.792,-1.803,-1.8084,-1.803,-1.8018,-1.7963,-1.7854,-1.781,-1.7733,-1.7378,-1.73,-1.7396,-1.6796,-1.6618,-1.6688,-3.5939,-3.5807,-3.5821,-3.589,-3.5837,-3.5674,-3.5335,-3.4365,-3.3674,-3.3692,-3.2774,-3.2163,-3.2264,-3.1913,-3.1414,-3.0828,-2.9717,-2.8685,-2.7898,-2.7363,-2.6759,-2.6056,-2.5021,-2.435,-2.4015,-2.2836,-2.1925,-2.1336,-2.0711,-2.0009,-1.9285,-1.9142,-1.8721,-1.7939,-1.7549,-1.7071,-1.6458,-1.642,-1.6372,-1.6236,-1.6688,-1.6872,-1.6908,-1.6839,-1.6839,-1.6908,-1.6908,-1.6652,-1.6422,-1.7101,-1.7595,-1.7726,-1.7006,-1.6854,-1.6847,-1.6266,-1.6186,-1.6178,-1.5889,-1.5954,-1.6277,-1.6566,-1.7073,-1.7606,-1.7967,-1.8438,-1.8945,-1.9304,-1.9452,-1.9514,-1.9625,-1.9332,-1.8937,-1.8507,-1.8748,-1.8883,-1.8491,-1.8672,-1.8845,-1.8798,-1.9011,-1.9182,-1.9182,-1.942,-1.9604,-1.9759,-1.9656,-1.9565,-1.9565,-1.9198,-1.8774,-1.8333,-1.792,-1.7601,-1.7334,-1.7334,-1.7278,-1.7278,-1.7545,-1.7711,-1.7711,-1.7854,-1.7963,-1.8084,-1.7963,-1.7963,-1.8084,-1.7822,-1.7788,-1.7741,-1.7098,-1.6802,-1.6702,-1.6435,-1.6143,-1.5941,-3.6101,-3.5903,-3.5884,-3.5908,-3.5762,-3.5535,-3.5192,-3.4566,-3.4012,-3.3678,-3.2925,-3.2373,-3.2231,-3.162,-3.1027,-3.0601,-2.9361,-2.8304,-2.75,-2.7019,-2.6351,-2.5453,-2.4808,-2.4176,-2.3569,-2.2665,-2.18,-2.1019,-2.0593,-1.9944,-1.9142,-1.9131,-1.8558,-1.751,-1.728,-1.6605,-1.5575,-1.5817,-1.5761,-1.5611,-1.5999,-1.6401,-1.6682,-1.6482,-1.663,-1.6908,-1.6751,-1.6506,-1.6294,-1.627,-1.6197,-1.6154,-1.6315,-1.6086,-1.5867,-1.623,-1.6154,-1.6046,-1.6238,-1.6536,-1.6794,-1.6896,-1.7378,-1.7916,-1.847,-1.9105,-1.9609,-1.9432,-1.9788,-2.0012,-1.9432,-1.9643,-1.9663,-1.892,-1.939,-1.9561,-1.8689,-1.9131,-1.9401,-1.8994,-1.8999,-1.9052,-1.9182,-1.9368,-1.9473,-1.946,-1.9473,-1.942,-1.942,-1.9146,-1.8881,-1.856,-1.8073,-1.7744,-1.7479,-1.7323,-1.7278,-1.7278,-1.7479,-1.759,-1.7711,-1.7711,-1.7865,-1.8084,-1.7963,-1.7909,-1.7963,-1.7975,-1.7639,-1.7022,-1.6964,-1.6685,-1.6283,-1.5742,-1.5612,-1.5654,-3.6567,-3.6218,-3.5877,-3.5812,-3.565,-3.5347,-3.4876,-3.4124,-3.3482,-3.3252,-3.2456,-3.1879,-3.177,-3.1223,-3.0584,-2.9821,-2.8951,-2.8091,-2.7144,-2.6811,-2.6136,-2.5174,-2.4637,-2.4073,-2.3403,-2.2531,-2.1663,-2.0903,-2.0453,-1.9868,-1.9075,-1.8875,-1.8352,-1.7513,-1.7041,-1.641,-1.5753,-1.5817,-1.5808,-1.583,-1.6143,-1.6423,-1.6603,-1.6473,-1.6426,-1.6478,-1.6478,-1.6291,-1.5927,-1.5394,-1.5551,-1.5966,-1.5681,-1.5696,-1.5831,-1.5894,-1.59,-1.5964,-1.6137,-1.6433,-1.6777,-1.7044,-1.7392,-1.7746,-1.8321,-1.8817,-1.9252,-1.9482,-1.9753,-1.9838,-1.9577,-1.9823,-1.9787,-1.8885,-1.9286,-1.9465,-1.8731,-1.9012,-1.9203,-1.8928,-1.912,-1.9384,-1.9653,-1.9422,-1.9316,-1.946,-1.9368,-1.9275,-1.921,-1.8999,-1.8732,-1.829,-1.7963,-1.77,-1.7423,-1.7323,-1.7278,-1.7278,-1.7423,-1.7579,-1.781,-1.7711,-1.7877,-1.8084,-1.7963,-1.7827,-1.7664,-1.7611,-1.7168,-1.6591,-1.6316,-1.6059,-1.5818,-1.5241,-1.4918,-1.4706,-3.6834,-3.6394,-3.5838,-3.5679,-3.5488,-3.5162,-3.4564,-3.3593,-3.29,-3.28,-3.1989,-3.1377,-3.1342,-3.0845,-3.0081,-2.8997,-2.8558,-2.791,-2.6953,-2.6602,-2.5974,-2.5005,-2.4465,-2.3943,-2.3343,-2.2299,-2.1495,-2.0903,-2.0366,-1.9781,-1.9075,-1.8741,-1.823,-1.7562,-1.6802,-1.6345,-1.6184,-1.5965,-1.5992,-1.6282,-1.6528,-1.6603,-1.6533,-1.6603,-1.636,-1.6026,-1.6245,-1.6001,-1.5478,-1.4814,-1.5303,-1.6057,-1.5308,-1.5565,-1.6088,-1.5664,-1.5722,-1.5944,-1.6095,-1.6267,-1.6545,-1.711,-1.7273,-1.7487,-1.7988,-1.8323,-1.8743,-1.9519,-1.9544,-1.9522,-1.9756,-1.9806,-1.9598,-1.8872,-1.9206,-1.943,-1.8901,-1.8993,-1.9036,-1.8941,-1.9238,-1.9605,-1.9976,-1.9412,-1.9146,-1.946,-1.9263,-1.9117,-1.8934,-1.8786,-1.8464,-1.7909,-1.7755,-1.7545,-1.7267,-1.7278,-1.7278,-1.7278,-1.7423,-1.7634,-1.7854,-1.7665,-1.7741,-1.7958,-1.7838,-1.7607,-1.7243,-1.7047,-1.6689,-1.6241,-1.5612,-1.54,-1.535,-1.4968,-1.4394,-1.3871,-3.6048,-3.5924,-3.5749,-3.557,-3.5311,-3.4969,-3.4411,-3.3795,-3.3245,-3.2763,-3.2178,-3.1718,-3.1504,-3.0658,-2.9782,-2.8951,-2.8319,-2.7665,-2.6953,-2.6351,-2.566,-2.4835,-2.4221,-2.359,-2.2969,-2.1704,-2.102,-2.0903,-2.0366,-1.9781,-1.9075,-1.8875,-1.8195,-1.7148,-1.6529,-1.6102,-1.5771,-1.5716,-1.5862,-1.6062,-1.645,-1.6473,-1.6342,-1.6533,-1.636,-1.6026,-1.6245,-1.5826,-1.5173,-1.5012,-1.5046,-1.5231,-1.5283,-1.5527,-1.5821,-1.5949,-1.6068,-1.6229,-1.6839,-1.6736,-1.6487,-1.6933,-1.7263,-1.7499,-1.7562,-1.8394,-1.9206,-1.9596,-1.9647,-1.9576,-1.9467,-1.9579,-1.9604,-1.9538,-2.0168,-2.0488,-1.997,-2.0003,-1.9951,-1.9523,-1.9143,-1.9012,-1.9332,-1.9141,-1.904,-1.9093,-1.9052,-1.8946,-1.8667,-1.853,-1.8302,-1.7897,-1.7634,-1.7357,-1.7067,-1.7211,-1.7278,-1.7278,-1.7423,-1.759,-1.7689,-1.7241,-1.7198,-1.7484,-1.7338,-1.7053,-1.6727,-1.6676,-1.6329,-1.5788,-1.5672,-1.5366,-1.4959,-1.4834,-1.464,-1.4446,-3.6487,-3.6091,-3.5611,-3.5364,-3.5081,-3.4698,-3.411,-3.376,-3.3291,-3.257,-3.2283,-3.193,-3.1449,-3.0535,-2.9665,-2.8795,-2.8125,-2.7515,-2.6811,-2.6068,-2.5384,-2.4835,-2.4073,-2.3331,-2.2496,-2.1368,-2.0699,-2.0421,-1.9841,-1.9276,-1.8692,-1.8696,-1.7969,-1.6735,-1.6341,-1.6,-1.5689,-1.5689,-1.5862,-1.6206,-1.645,-1.6542,-1.6473,-1.6533,-1.636,-1.5999,-1.598,-1.545,-1.4842,-1.507,-1.5169,-1.5156,-1.5264,-1.5498,-1.5712,-1.5841,-1.5938,-1.6161,-1.6799,-1.6878,-1.685,-1.7355,-1.7651,-1.7906,-1.8466,-1.8978,-1.9419,-1.9669,-1.9721,-1.9678,-1.9437,-1.9465,-1.9445,-1.9287,-1.9599,-1.9936,-2.0006,-1.9795,-1.9582,-1.9506,-1.901,-1.8959,-1.9594,-1.9179,-1.8946,-1.8987,-1.8881,-1.8614,-1.8356,-1.8247,-1.8084,-1.7689,-1.7479,-1.7181,-1.6721,-1.7003,-1.7059,-1.6852,-1.7015,-1.7178,-1.7404,-1.7168,-1.7013,-1.6956,-1.6917,-1.6642,-1.6221,-1.6112,-1.5816,-1.5359,-1.5301,-1.5084,-1.4846,-1.4719,-1.4415,-1.3989]}]]